<?xml version="1.0" encoding="UTF-8" standalone="no" ?>
<gpx xmlns="http://www.topografix.com/GPX/1/1" xmlns:xsi="http://www.w3.org/2001/XMLSchema-instance" xsi:schemaLocation="http://www.topografix.com/GPX/1/1 http://www.topografix.com/GPX/1/1/gpx.xsd" version="1.1" creator="VisuGPX - https://www.visugpx.com">
  <metadata>
    <name>Talmas cœur et santé </name>
    <desc><![CDATA[31 pax, stop à mi parcours boiterie hanche]]></desc>
  </metadata>
  <trk>
    <name><![CDATA[Randonnée]]></name>
    <trkseg>
      <trkpt lat="50.03012" lon="2.32617">
        <ele>137.2998</ele>
        <time>2024-02-28T13:56:21+01:00</time>
      </trkpt>
      <trkpt lat="50.0301" lon="2.32616">
        <ele>137.2998</ele>
        <time>2024-02-28T13:56:25+01:00</time>
      </trkpt>
      <trkpt lat="50.0301" lon="2.32616">
        <ele>137.2998</ele>
        <time>2024-02-28T13:56:26+01:00</time>
      </trkpt>
      <trkpt lat="50.0301" lon="2.32616">
        <ele>137.2998</ele>
        <time>2024-02-28T13:56:28+01:00</time>
      </trkpt>
      <trkpt lat="50.03025" lon="2.32611">
        <ele>137.2002</ele>
        <time>2024-02-28T13:56:29+01:00</time>
      </trkpt>
      <trkpt lat="50.03027" lon="2.32611">
        <ele>137.2002</ele>
        <time>2024-02-28T13:56:33+01:00</time>
      </trkpt>
      <trkpt lat="50.03027" lon="2.32611">
        <ele>137.2002</ele>
        <time>2024-02-28T13:56:34+01:00</time>
      </trkpt>
      <trkpt lat="50.03027" lon="2.32611">
        <ele>137.2002</ele>
        <time>2024-02-28T13:56:38+01:00</time>
      </trkpt>
      <trkpt lat="50.03031" lon="2.32611">
        <ele>137.2002</ele>
        <time>2024-02-28T13:56:39+01:00</time>
      </trkpt>
      <trkpt lat="50.03035" lon="2.3261">
        <ele>137.2002</ele>
        <time>2024-02-28T13:56:43+01:00</time>
      </trkpt>
      <trkpt lat="50.03037" lon="2.32608">
        <ele>137.2002</ele>
        <time>2024-02-28T13:56:44+01:00</time>
      </trkpt>
      <trkpt lat="50.0304" lon="2.32602">
        <ele>137.2002</ele>
        <time>2024-02-28T13:56:48+01:00</time>
      </trkpt>
      <trkpt lat="50.0304" lon="2.32602">
        <ele>137.2002</ele>
        <time>2024-02-28T13:56:49+01:00</time>
      </trkpt>
      <trkpt lat="50.03041" lon="2.32598">
        <ele>137.2002</ele>
        <time>2024-02-28T13:56:53+01:00</time>
      </trkpt>
      <trkpt lat="50.03041" lon="2.32598">
        <ele>137.2002</ele>
        <time>2024-02-28T13:56:54+01:00</time>
      </trkpt>
      <trkpt lat="50.03042" lon="2.32599">
        <ele>137.2002</ele>
        <time>2024-02-28T13:56:58+01:00</time>
      </trkpt>
      <trkpt lat="50.03043" lon="2.326">
        <ele>137.2002</ele>
        <time>2024-02-28T13:56:59+01:00</time>
      </trkpt>
      <trkpt lat="50.03042" lon="2.32603">
        <ele>137.10059</ele>
        <time>2024-02-28T13:57:03+01:00</time>
      </trkpt>
      <trkpt lat="50.03041" lon="2.32604">
        <ele>137.10059</ele>
        <time>2024-02-28T13:57:04+01:00</time>
      </trkpt>
      <trkpt lat="50.0304" lon="2.32605">
        <ele>137.2002</ele>
        <time>2024-02-28T13:57:08+01:00</time>
      </trkpt>
      <trkpt lat="50.0304" lon="2.32606">
        <ele>137.2002</ele>
        <time>2024-02-28T13:57:09+01:00</time>
      </trkpt>
      <trkpt lat="50.03041" lon="2.32606">
        <ele>137.10059</ele>
        <time>2024-02-28T13:57:13+01:00</time>
      </trkpt>
      <trkpt lat="50.03039" lon="2.32611">
        <ele>137.10059</ele>
        <time>2024-02-28T13:57:14+01:00</time>
      </trkpt>
      <trkpt lat="50.03037" lon="2.32614">
        <ele>137.10059</ele>
        <time>2024-02-28T13:57:18+01:00</time>
      </trkpt>
      <trkpt lat="50.03036" lon="2.32615">
        <ele>137.10059</ele>
        <time>2024-02-28T13:57:19+01:00</time>
      </trkpt>
      <trkpt lat="50.03033" lon="2.32622">
        <ele>137</ele>
        <time>2024-02-28T13:57:23+01:00</time>
      </trkpt>
      <trkpt lat="50.03032" lon="2.32623">
        <ele>137</ele>
        <time>2024-02-28T13:57:24+01:00</time>
      </trkpt>
      <trkpt lat="50.03031" lon="2.32628">
        <ele>136.90039</ele>
        <time>2024-02-28T13:57:28+01:00</time>
      </trkpt>
      <trkpt lat="50.03031" lon="2.32631">
        <ele>136.90039</ele>
        <time>2024-02-28T13:57:29+01:00</time>
      </trkpt>
      <trkpt lat="50.03032" lon="2.32643">
        <ele>136.7998</ele>
        <time>2024-02-28T13:57:33+01:00</time>
      </trkpt>
      <trkpt lat="50.03033" lon="2.32645">
        <ele>136.7998</ele>
        <time>2024-02-28T13:57:34+01:00</time>
      </trkpt>
      <trkpt lat="50.03035" lon="2.3265">
        <ele>136.7998</ele>
        <time>2024-02-28T13:57:38+01:00</time>
      </trkpt>
      <trkpt lat="50.03035" lon="2.32651">
        <ele>136.7002</ele>
        <time>2024-02-28T13:57:39+01:00</time>
      </trkpt>
      <trkpt lat="50.03041" lon="2.32655">
        <ele>136.60059</ele>
        <time>2024-02-28T13:57:43+01:00</time>
      </trkpt>
      <trkpt lat="50.03042" lon="2.32656">
        <ele>136.60059</ele>
        <time>2024-02-28T13:57:44+01:00</time>
      </trkpt>
      <trkpt lat="50.03047" lon="2.32662">
        <ele>136.40039</ele>
        <time>2024-02-28T13:57:48+01:00</time>
      </trkpt>
      <trkpt lat="50.03048" lon="2.32663">
        <ele>136.40039</ele>
        <time>2024-02-28T13:57:49+01:00</time>
      </trkpt>
      <trkpt lat="50.03052" lon="2.32669">
        <ele>136.2998</ele>
        <time>2024-02-28T13:57:53+01:00</time>
      </trkpt>
      <trkpt lat="50.03053" lon="2.3267">
        <ele>136.2998</ele>
        <time>2024-02-28T13:57:54+01:00</time>
      </trkpt>
      <trkpt lat="50.03057" lon="2.32675">
        <ele>136.2002</ele>
        <time>2024-02-28T13:57:58+01:00</time>
      </trkpt>
      <trkpt lat="50.03058" lon="2.32676">
        <ele>136.2002</ele>
        <time>2024-02-28T13:57:59+01:00</time>
      </trkpt>
      <trkpt lat="50.03061" lon="2.32681">
        <ele>136.2002</ele>
        <time>2024-02-28T13:58:03+01:00</time>
      </trkpt>
      <trkpt lat="50.03062" lon="2.32682">
        <ele>136.2002</ele>
        <time>2024-02-28T13:58:04+01:00</time>
      </trkpt>
      <trkpt lat="50.03066" lon="2.32685">
        <ele>136.10059</ele>
        <time>2024-02-28T13:58:08+01:00</time>
      </trkpt>
      <trkpt lat="50.03067" lon="2.32686">
        <ele>136.10059</ele>
        <time>2024-02-28T13:58:09+01:00</time>
      </trkpt>
      <trkpt lat="50.03067" lon="2.32692">
        <ele>136.10059</ele>
        <time>2024-02-28T13:58:14+01:00</time>
      </trkpt>
      <trkpt lat="50.03067" lon="2.32694">
        <ele>136.10059</ele>
        <time>2024-02-28T13:58:15+01:00</time>
      </trkpt>
      <trkpt lat="50.03069" lon="2.32699">
        <ele>136.10059</ele>
        <time>2024-02-28T13:58:19+01:00</time>
      </trkpt>
      <trkpt lat="50.0307" lon="2.32701">
        <ele>136.10059</ele>
        <time>2024-02-28T13:58:20+01:00</time>
      </trkpt>
      <trkpt lat="50.03073" lon="2.32706">
        <ele>136.10059</ele>
        <time>2024-02-28T13:58:24+01:00</time>
      </trkpt>
      <trkpt lat="50.03073" lon="2.32707">
        <ele>136.10059</ele>
        <time>2024-02-28T13:58:25+01:00</time>
      </trkpt>
      <trkpt lat="50.03077" lon="2.32714">
        <ele>136</ele>
        <time>2024-02-28T13:58:29+01:00</time>
      </trkpt>
      <trkpt lat="50.03078" lon="2.32717">
        <ele>136</ele>
        <time>2024-02-28T13:58:30+01:00</time>
      </trkpt>
      <trkpt lat="50.03081" lon="2.32724">
        <ele>135.90039</ele>
        <time>2024-02-28T13:58:34+01:00</time>
      </trkpt>
      <trkpt lat="50.03082" lon="2.32726">
        <ele>135.90039</ele>
        <time>2024-02-28T13:58:35+01:00</time>
      </trkpt>
      <trkpt lat="50.03083" lon="2.32731">
        <ele>136</ele>
        <time>2024-02-28T13:58:39+01:00</time>
      </trkpt>
      <trkpt lat="50.03083" lon="2.32732">
        <ele>136</ele>
        <time>2024-02-28T13:58:40+01:00</time>
      </trkpt>
      <trkpt lat="50.03085" lon="2.32735">
        <ele>135.90039</ele>
        <time>2024-02-28T13:58:44+01:00</time>
      </trkpt>
      <trkpt lat="50.03085" lon="2.32735">
        <ele>135.90039</ele>
        <time>2024-02-28T13:58:45+01:00</time>
      </trkpt>
      <trkpt lat="50.03084" lon="2.32735">
        <ele>136</ele>
        <time>2024-02-28T13:58:49+01:00</time>
      </trkpt>
      <trkpt lat="50.03084" lon="2.32736">
        <ele>136</ele>
        <time>2024-02-28T13:58:50+01:00</time>
      </trkpt>
      <trkpt lat="50.03087" lon="2.32739">
        <ele>136</ele>
        <time>2024-02-28T13:58:54+01:00</time>
      </trkpt>
      <trkpt lat="50.03087" lon="2.32741">
        <ele>136</ele>
        <time>2024-02-28T13:58:55+01:00</time>
      </trkpt>
      <trkpt lat="50.03085" lon="2.32745">
        <ele>136</ele>
        <time>2024-02-28T13:58:59+01:00</time>
      </trkpt>
      <trkpt lat="50.03084" lon="2.32746">
        <ele>136</ele>
        <time>2024-02-28T13:59:00+01:00</time>
      </trkpt>
      <trkpt lat="50.03083" lon="2.3275">
        <ele>136.10059</ele>
        <time>2024-02-28T13:59:04+01:00</time>
      </trkpt>
      <trkpt lat="50.03082" lon="2.32752">
        <ele>136.10059</ele>
        <time>2024-02-28T13:59:05+01:00</time>
      </trkpt>
      <trkpt lat="50.03078" lon="2.32757">
        <ele>136.2002</ele>
        <time>2024-02-28T13:59:09+01:00</time>
      </trkpt>
      <trkpt lat="50.03077" lon="2.32758">
        <ele>136.2002</ele>
        <time>2024-02-28T13:59:10+01:00</time>
      </trkpt>
      <trkpt lat="50.0307" lon="2.32761">
        <ele>136.2998</ele>
        <time>2024-02-28T13:59:14+01:00</time>
      </trkpt>
      <trkpt lat="50.03068" lon="2.32761">
        <ele>136.2998</ele>
        <time>2024-02-28T13:59:15+01:00</time>
      </trkpt>
      <trkpt lat="50.03061" lon="2.3276">
        <ele>136.40039</ele>
        <time>2024-02-28T13:59:19+01:00</time>
      </trkpt>
      <trkpt lat="50.03059" lon="2.3276">
        <ele>136.40039</ele>
        <time>2024-02-28T13:59:20+01:00</time>
      </trkpt>
      <trkpt lat="50.03053" lon="2.3276">
        <ele>136.40039</ele>
        <time>2024-02-28T13:59:24+01:00</time>
      </trkpt>
      <trkpt lat="50.03051" lon="2.3276">
        <ele>136.5</ele>
        <time>2024-02-28T13:59:25+01:00</time>
      </trkpt>
      <trkpt lat="50.03044" lon="2.32761">
        <ele>136.5</ele>
        <time>2024-02-28T13:59:29+01:00</time>
      </trkpt>
      <trkpt lat="50.03043" lon="2.32761">
        <ele>136.5</ele>
        <time>2024-02-28T13:59:30+01:00</time>
      </trkpt>
      <trkpt lat="50.03037" lon="2.32763">
        <ele>136.60059</ele>
        <time>2024-02-28T13:59:34+01:00</time>
      </trkpt>
      <trkpt lat="50.03036" lon="2.32763">
        <ele>136.60059</ele>
        <time>2024-02-28T13:59:35+01:00</time>
      </trkpt>
      <trkpt lat="50.0303" lon="2.32765">
        <ele>136.7002</ele>
        <time>2024-02-28T13:59:39+01:00</time>
      </trkpt>
      <trkpt lat="50.03028" lon="2.32766">
        <ele>136.7002</ele>
        <time>2024-02-28T13:59:40+01:00</time>
      </trkpt>
      <trkpt lat="50.03022" lon="2.32769">
        <ele>136.7998</ele>
        <time>2024-02-28T13:59:44+01:00</time>
      </trkpt>
      <trkpt lat="50.03021" lon="2.3277">
        <ele>136.7998</ele>
        <time>2024-02-28T13:59:45+01:00</time>
      </trkpt>
      <trkpt lat="50.03015" lon="2.32773">
        <ele>136.7998</ele>
        <time>2024-02-28T13:59:49+01:00</time>
      </trkpt>
      <trkpt lat="50.03014" lon="2.32773">
        <ele>136.7998</ele>
        <time>2024-02-28T13:59:50+01:00</time>
      </trkpt>
      <trkpt lat="50.03009" lon="2.32777">
        <ele>136.7998</ele>
        <time>2024-02-28T13:59:54+01:00</time>
      </trkpt>
      <trkpt lat="50.03007" lon="2.32778">
        <ele>136.7998</ele>
        <time>2024-02-28T13:59:55+01:00</time>
      </trkpt>
      <trkpt lat="50.03002" lon="2.32782">
        <ele>136.7998</ele>
        <time>2024-02-28T13:59:59+01:00</time>
      </trkpt>
      <trkpt lat="50.03001" lon="2.32783">
        <ele>136.7998</ele>
        <time>2024-02-28T14:00:00+01:00</time>
      </trkpt>
      <trkpt lat="50.02996" lon="2.32788">
        <ele>136.7998</ele>
        <time>2024-02-28T14:00:04+01:00</time>
      </trkpt>
      <trkpt lat="50.02995" lon="2.32789">
        <ele>136.7998</ele>
        <time>2024-02-28T14:00:05+01:00</time>
      </trkpt>
      <trkpt lat="50.0299" lon="2.32792">
        <ele>136.7998</ele>
        <time>2024-02-28T14:00:09+01:00</time>
      </trkpt>
      <trkpt lat="50.02989" lon="2.32793">
        <ele>136.7998</ele>
        <time>2024-02-28T14:00:10+01:00</time>
      </trkpt>
      <trkpt lat="50.02985" lon="2.32797">
        <ele>136.7002</ele>
        <time>2024-02-28T14:00:14+01:00</time>
      </trkpt>
      <trkpt lat="50.02984" lon="2.32798">
        <ele>136.7002</ele>
        <time>2024-02-28T14:00:15+01:00</time>
      </trkpt>
      <trkpt lat="50.0298" lon="2.32801">
        <ele>136.7002</ele>
        <time>2024-02-28T14:00:19+01:00</time>
      </trkpt>
      <trkpt lat="50.02979" lon="2.32802">
        <ele>136.60059</ele>
        <time>2024-02-28T14:00:20+01:00</time>
      </trkpt>
      <trkpt lat="50.02976" lon="2.32806">
        <ele>136.60059</ele>
        <time>2024-02-28T14:00:24+01:00</time>
      </trkpt>
      <trkpt lat="50.02975" lon="2.32808">
        <ele>136.60059</ele>
        <time>2024-02-28T14:00:25+01:00</time>
      </trkpt>
      <trkpt lat="50.02972" lon="2.32812">
        <ele>136.5</ele>
        <time>2024-02-28T14:00:29+01:00</time>
      </trkpt>
      <trkpt lat="50.0297" lon="2.32813">
        <ele>136.5</ele>
        <time>2024-02-28T14:00:30+01:00</time>
      </trkpt>
      <trkpt lat="50.02966" lon="2.32816">
        <ele>136.40039</ele>
        <time>2024-02-28T14:00:34+01:00</time>
      </trkpt>
      <trkpt lat="50.02965" lon="2.32818">
        <ele>136.40039</ele>
        <time>2024-02-28T14:00:35+01:00</time>
      </trkpt>
      <trkpt lat="50.02962" lon="2.32822">
        <ele>136.2002</ele>
        <time>2024-02-28T14:00:39+01:00</time>
      </trkpt>
      <trkpt lat="50.02961" lon="2.32823">
        <ele>136.2002</ele>
        <time>2024-02-28T14:00:40+01:00</time>
      </trkpt>
      <trkpt lat="50.02956" lon="2.32826">
        <ele>136.10059</ele>
        <time>2024-02-28T14:00:44+01:00</time>
      </trkpt>
      <trkpt lat="50.02956" lon="2.32826">
        <ele>136.10059</ele>
        <time>2024-02-28T14:00:45+01:00</time>
      </trkpt>
      <trkpt lat="50.02951" lon="2.32827">
        <ele>136</ele>
        <time>2024-02-28T14:00:49+01:00</time>
      </trkpt>
      <trkpt lat="50.0295" lon="2.32827">
        <ele>136</ele>
        <time>2024-02-28T14:00:50+01:00</time>
      </trkpt>
      <trkpt lat="50.02946" lon="2.3283">
        <ele>135.7998</ele>
        <time>2024-02-28T14:00:54+01:00</time>
      </trkpt>
      <trkpt lat="50.02945" lon="2.32831">
        <ele>135.7998</ele>
        <time>2024-02-28T14:00:55+01:00</time>
      </trkpt>
      <trkpt lat="50.02941" lon="2.32835">
        <ele>135.7002</ele>
        <time>2024-02-28T14:00:59+01:00</time>
      </trkpt>
      <trkpt lat="50.02939" lon="2.32837">
        <ele>135.7002</ele>
        <time>2024-02-28T14:01:00+01:00</time>
      </trkpt>
      <trkpt lat="50.02935" lon="2.3284">
        <ele>135.5</ele>
        <time>2024-02-28T14:01:04+01:00</time>
      </trkpt>
      <trkpt lat="50.02933" lon="2.32841">
        <ele>135.5</ele>
        <time>2024-02-28T14:01:05+01:00</time>
      </trkpt>
      <trkpt lat="50.02929" lon="2.32844">
        <ele>135.40039</ele>
        <time>2024-02-28T14:01:09+01:00</time>
      </trkpt>
      <trkpt lat="50.02928" lon="2.32844">
        <ele>135.40039</ele>
        <time>2024-02-28T14:01:10+01:00</time>
      </trkpt>
      <trkpt lat="50.02924" lon="2.32848">
        <ele>135.2998</ele>
        <time>2024-02-28T14:01:14+01:00</time>
      </trkpt>
      <trkpt lat="50.02923" lon="2.32849">
        <ele>135.2998</ele>
        <time>2024-02-28T14:01:15+01:00</time>
      </trkpt>
      <trkpt lat="50.02918" lon="2.32852">
        <ele>135.2002</ele>
        <time>2024-02-28T14:01:19+01:00</time>
      </trkpt>
      <trkpt lat="50.02917" lon="2.32853">
        <ele>135.2002</ele>
        <time>2024-02-28T14:01:20+01:00</time>
      </trkpt>
      <trkpt lat="50.02914" lon="2.32857">
        <ele>135.10059</ele>
        <time>2024-02-28T14:01:24+01:00</time>
      </trkpt>
      <trkpt lat="50.02913" lon="2.32858">
        <ele>135.10059</ele>
        <time>2024-02-28T14:01:25+01:00</time>
      </trkpt>
      <trkpt lat="50.0291" lon="2.32863">
        <ele>135.10059</ele>
        <time>2024-02-28T14:01:29+01:00</time>
      </trkpt>
      <trkpt lat="50.02909" lon="2.32865">
        <ele>135.10059</ele>
        <time>2024-02-28T14:01:30+01:00</time>
      </trkpt>
      <trkpt lat="50.02905" lon="2.32868">
        <ele>135</ele>
        <time>2024-02-28T14:01:34+01:00</time>
      </trkpt>
      <trkpt lat="50.02904" lon="2.3287">
        <ele>135</ele>
        <time>2024-02-28T14:01:35+01:00</time>
      </trkpt>
      <trkpt lat="50.029" lon="2.32874">
        <ele>134.90039</ele>
        <time>2024-02-28T14:01:39+01:00</time>
      </trkpt>
      <trkpt lat="50.029" lon="2.32875">
        <ele>134.90039</ele>
        <time>2024-02-28T14:01:40+01:00</time>
      </trkpt>
      <trkpt lat="50.02897" lon="2.32881">
        <ele>134.7998</ele>
        <time>2024-02-28T14:01:44+01:00</time>
      </trkpt>
      <trkpt lat="50.02896" lon="2.32882">
        <ele>134.7998</ele>
        <time>2024-02-28T14:01:45+01:00</time>
      </trkpt>
      <trkpt lat="50.02894" lon="2.32889">
        <ele>134.7998</ele>
        <time>2024-02-28T14:01:49+01:00</time>
      </trkpt>
      <trkpt lat="50.02894" lon="2.32891">
        <ele>134.7998</ele>
        <time>2024-02-28T14:01:50+01:00</time>
      </trkpt>
      <trkpt lat="50.02893" lon="2.32898">
        <ele>134.7998</ele>
        <time>2024-02-28T14:01:54+01:00</time>
      </trkpt>
      <trkpt lat="50.02893" lon="2.329">
        <ele>134.7998</ele>
        <time>2024-02-28T14:01:55+01:00</time>
      </trkpt>
      <trkpt lat="50.02894" lon="2.32907">
        <ele>134.7002</ele>
        <time>2024-02-28T14:01:59+01:00</time>
      </trkpt>
      <trkpt lat="50.02894" lon="2.32909">
        <ele>134.7002</ele>
        <time>2024-02-28T14:02:00+01:00</time>
      </trkpt>
      <trkpt lat="50.02895" lon="2.32917">
        <ele>134.7002</ele>
        <time>2024-02-28T14:02:04+01:00</time>
      </trkpt>
      <trkpt lat="50.02895" lon="2.32919">
        <ele>134.7002</ele>
        <time>2024-02-28T14:02:05+01:00</time>
      </trkpt>
      <trkpt lat="50.02895" lon="2.32926">
        <ele>134.60059</ele>
        <time>2024-02-28T14:02:09+01:00</time>
      </trkpt>
      <trkpt lat="50.02895" lon="2.32928">
        <ele>134.60059</ele>
        <time>2024-02-28T14:02:10+01:00</time>
      </trkpt>
      <trkpt lat="50.02895" lon="2.32935">
        <ele>134.60059</ele>
        <time>2024-02-28T14:02:14+01:00</time>
      </trkpt>
      <trkpt lat="50.02895" lon="2.32936">
        <ele>134.5</ele>
        <time>2024-02-28T14:02:15+01:00</time>
      </trkpt>
      <trkpt lat="50.02895" lon="2.32944">
        <ele>134.5</ele>
        <time>2024-02-28T14:02:19+01:00</time>
      </trkpt>
      <trkpt lat="50.02895" lon="2.32945">
        <ele>134.40039</ele>
        <time>2024-02-28T14:02:20+01:00</time>
      </trkpt>
      <trkpt lat="50.02895" lon="2.32952">
        <ele>134.40039</ele>
        <time>2024-02-28T14:02:24+01:00</time>
      </trkpt>
      <trkpt lat="50.02895" lon="2.32953">
        <ele>134.2998</ele>
        <time>2024-02-28T14:02:25+01:00</time>
      </trkpt>
      <trkpt lat="50.02894" lon="2.32961">
        <ele>134.2998</ele>
        <time>2024-02-28T14:02:29+01:00</time>
      </trkpt>
      <trkpt lat="50.02894" lon="2.32963">
        <ele>134.2002</ele>
        <time>2024-02-28T14:02:30+01:00</time>
      </trkpt>
      <trkpt lat="50.02893" lon="2.3297">
        <ele>134.10059</ele>
        <time>2024-02-28T14:02:34+01:00</time>
      </trkpt>
      <trkpt lat="50.02893" lon="2.32972">
        <ele>134.10059</ele>
        <time>2024-02-28T14:02:35+01:00</time>
      </trkpt>
      <trkpt lat="50.02892" lon="2.3298">
        <ele>134</ele>
        <time>2024-02-28T14:02:39+01:00</time>
      </trkpt>
      <trkpt lat="50.02892" lon="2.32983">
        <ele>134</ele>
        <time>2024-02-28T14:02:40+01:00</time>
      </trkpt>
      <trkpt lat="50.02892" lon="2.32992">
        <ele>133.90039</ele>
        <time>2024-02-28T14:02:44+01:00</time>
      </trkpt>
      <trkpt lat="50.02892" lon="2.32994">
        <ele>133.90039</ele>
        <time>2024-02-28T14:02:45+01:00</time>
      </trkpt>
      <trkpt lat="50.02892" lon="2.33001">
        <ele>133.7002</ele>
        <time>2024-02-28T14:02:49+01:00</time>
      </trkpt>
      <trkpt lat="50.02892" lon="2.33003">
        <ele>133.7002</ele>
        <time>2024-02-28T14:02:50+01:00</time>
      </trkpt>
      <trkpt lat="50.02891" lon="2.3301">
        <ele>133.60059</ele>
        <time>2024-02-28T14:02:54+01:00</time>
      </trkpt>
      <trkpt lat="50.02891" lon="2.33012">
        <ele>133.60059</ele>
        <time>2024-02-28T14:02:55+01:00</time>
      </trkpt>
      <trkpt lat="50.02891" lon="2.3302">
        <ele>133.5</ele>
        <time>2024-02-28T14:02:59+01:00</time>
      </trkpt>
      <trkpt lat="50.0289" lon="2.33022">
        <ele>133.5</ele>
        <time>2024-02-28T14:03:00+01:00</time>
      </trkpt>
      <trkpt lat="50.02889" lon="2.33029">
        <ele>133.5</ele>
        <time>2024-02-28T14:03:04+01:00</time>
      </trkpt>
      <trkpt lat="50.02889" lon="2.3303">
        <ele>133.40039</ele>
        <time>2024-02-28T14:03:05+01:00</time>
      </trkpt>
      <trkpt lat="50.02889" lon="2.33037">
        <ele>133.40039</ele>
        <time>2024-02-28T14:03:09+01:00</time>
      </trkpt>
      <trkpt lat="50.02888" lon="2.33039">
        <ele>133.2998</ele>
        <time>2024-02-28T14:03:10+01:00</time>
      </trkpt>
      <trkpt lat="50.02888" lon="2.33046">
        <ele>133.2998</ele>
        <time>2024-02-28T14:03:14+01:00</time>
      </trkpt>
      <trkpt lat="50.02888" lon="2.33048">
        <ele>133.2002</ele>
        <time>2024-02-28T14:03:15+01:00</time>
      </trkpt>
      <trkpt lat="50.02888" lon="2.33055">
        <ele>133.2002</ele>
        <time>2024-02-28T14:03:19+01:00</time>
      </trkpt>
      <trkpt lat="50.02887" lon="2.33057">
        <ele>133.2002</ele>
        <time>2024-02-28T14:03:20+01:00</time>
      </trkpt>
      <trkpt lat="50.02887" lon="2.33064">
        <ele>133.2002</ele>
        <time>2024-02-28T14:03:24+01:00</time>
      </trkpt>
      <trkpt lat="50.02886" lon="2.33066">
        <ele>133.10059</ele>
        <time>2024-02-28T14:03:25+01:00</time>
      </trkpt>
      <trkpt lat="50.02885" lon="2.33074">
        <ele>133</ele>
        <time>2024-02-28T14:03:29+01:00</time>
      </trkpt>
      <trkpt lat="50.02885" lon="2.33075">
        <ele>133</ele>
        <time>2024-02-28T14:03:30+01:00</time>
      </trkpt>
      <trkpt lat="50.02884" lon="2.33082">
        <ele>133</ele>
        <time>2024-02-28T14:03:34+01:00</time>
      </trkpt>
      <trkpt lat="50.02883" lon="2.33083">
        <ele>132.90039</ele>
        <time>2024-02-28T14:03:35+01:00</time>
      </trkpt>
      <trkpt lat="50.02882" lon="2.3309">
        <ele>132.90039</ele>
        <time>2024-02-28T14:03:39+01:00</time>
      </trkpt>
      <trkpt lat="50.02882" lon="2.33092">
        <ele>132.7998</ele>
        <time>2024-02-28T14:03:40+01:00</time>
      </trkpt>
      <trkpt lat="50.02881" lon="2.33098">
        <ele>132.7998</ele>
        <time>2024-02-28T14:03:44+01:00</time>
      </trkpt>
      <trkpt lat="50.02881" lon="2.331">
        <ele>132.7002</ele>
        <time>2024-02-28T14:03:45+01:00</time>
      </trkpt>
      <trkpt lat="50.02881" lon="2.33107">
        <ele>132.7002</ele>
        <time>2024-02-28T14:03:49+01:00</time>
      </trkpt>
      <trkpt lat="50.02881" lon="2.33108">
        <ele>132.60059</ele>
        <time>2024-02-28T14:03:50+01:00</time>
      </trkpt>
      <trkpt lat="50.0288" lon="2.33115">
        <ele>132.60059</ele>
        <time>2024-02-28T14:03:54+01:00</time>
      </trkpt>
      <trkpt lat="50.02879" lon="2.33117">
        <ele>132.5</ele>
        <time>2024-02-28T14:03:55+01:00</time>
      </trkpt>
      <trkpt lat="50.02878" lon="2.33124">
        <ele>132.5</ele>
        <time>2024-02-28T14:03:59+01:00</time>
      </trkpt>
      <trkpt lat="50.02877" lon="2.33125">
        <ele>132.40039</ele>
        <time>2024-02-28T14:04:00+01:00</time>
      </trkpt>
      <trkpt lat="50.02877" lon="2.33133">
        <ele>132.40039</ele>
        <time>2024-02-28T14:04:04+01:00</time>
      </trkpt>
      <trkpt lat="50.02876" lon="2.33135">
        <ele>132.2998</ele>
        <time>2024-02-28T14:04:05+01:00</time>
      </trkpt>
      <trkpt lat="50.02876" lon="2.33143">
        <ele>132.2002</ele>
        <time>2024-02-28T14:04:09+01:00</time>
      </trkpt>
      <trkpt lat="50.02876" lon="2.33145">
        <ele>132.2002</ele>
        <time>2024-02-28T14:04:10+01:00</time>
      </trkpt>
      <trkpt lat="50.02876" lon="2.33153">
        <ele>132.2002</ele>
        <time>2024-02-28T14:04:14+01:00</time>
      </trkpt>
      <trkpt lat="50.02876" lon="2.33155">
        <ele>132.2002</ele>
        <time>2024-02-28T14:04:15+01:00</time>
      </trkpt>
      <trkpt lat="50.02875" lon="2.33164">
        <ele>132.10059</ele>
        <time>2024-02-28T14:04:19+01:00</time>
      </trkpt>
      <trkpt lat="50.02875" lon="2.33166">
        <ele>132.10059</ele>
        <time>2024-02-28T14:04:20+01:00</time>
      </trkpt>
      <trkpt lat="50.02876" lon="2.33174">
        <ele>132.10059</ele>
        <time>2024-02-28T14:04:24+01:00</time>
      </trkpt>
      <trkpt lat="50.02876" lon="2.33176">
        <ele>132.10059</ele>
        <time>2024-02-28T14:04:25+01:00</time>
      </trkpt>
      <trkpt lat="50.02877" lon="2.33181">
        <ele>132.10059</ele>
        <time>2024-02-28T14:04:29+01:00</time>
      </trkpt>
      <trkpt lat="50.02877" lon="2.33183">
        <ele>132.10059</ele>
        <time>2024-02-28T14:04:30+01:00</time>
      </trkpt>
      <trkpt lat="50.02877" lon="2.3319">
        <ele>132.2002</ele>
        <time>2024-02-28T14:04:34+01:00</time>
      </trkpt>
      <trkpt lat="50.02877" lon="2.33192">
        <ele>132.2002</ele>
        <time>2024-02-28T14:04:35+01:00</time>
      </trkpt>
      <trkpt lat="50.0288" lon="2.33196">
        <ele>132.2002</ele>
        <time>2024-02-28T14:04:39+01:00</time>
      </trkpt>
      <trkpt lat="50.02881" lon="2.33197">
        <ele>132.2998</ele>
        <time>2024-02-28T14:04:40+01:00</time>
      </trkpt>
      <trkpt lat="50.02885" lon="2.332">
        <ele>132.2998</ele>
        <time>2024-02-28T14:04:44+01:00</time>
      </trkpt>
      <trkpt lat="50.02886" lon="2.332">
        <ele>132.2998</ele>
        <time>2024-02-28T14:04:45+01:00</time>
      </trkpt>
      <trkpt lat="50.0289" lon="2.33204">
        <ele>132.40039</ele>
        <time>2024-02-28T14:04:49+01:00</time>
      </trkpt>
      <trkpt lat="50.02891" lon="2.33205">
        <ele>132.40039</ele>
        <time>2024-02-28T14:04:50+01:00</time>
      </trkpt>
      <trkpt lat="50.02895" lon="2.33209">
        <ele>132.40039</ele>
        <time>2024-02-28T14:04:54+01:00</time>
      </trkpt>
      <trkpt lat="50.02896" lon="2.3321">
        <ele>132.40039</ele>
        <time>2024-02-28T14:04:55+01:00</time>
      </trkpt>
      <trkpt lat="50.02901" lon="2.33213">
        <ele>132.60059</ele>
        <time>2024-02-28T14:04:59+01:00</time>
      </trkpt>
      <trkpt lat="50.02902" lon="2.33214">
        <ele>132.60059</ele>
        <time>2024-02-28T14:05:00+01:00</time>
      </trkpt>
      <trkpt lat="50.02907" lon="2.33216">
        <ele>132.7002</ele>
        <time>2024-02-28T14:05:04+01:00</time>
      </trkpt>
      <trkpt lat="50.02908" lon="2.33216">
        <ele>132.7002</ele>
        <time>2024-02-28T14:05:05+01:00</time>
      </trkpt>
      <trkpt lat="50.02913" lon="2.33218">
        <ele>132.7998</ele>
        <time>2024-02-28T14:05:09+01:00</time>
      </trkpt>
      <trkpt lat="50.02914" lon="2.33219">
        <ele>132.7998</ele>
        <time>2024-02-28T14:05:10+01:00</time>
      </trkpt>
      <trkpt lat="50.02918" lon="2.33221">
        <ele>133</ele>
        <time>2024-02-28T14:05:14+01:00</time>
      </trkpt>
      <trkpt lat="50.0292" lon="2.33222">
        <ele>133.10059</ele>
        <time>2024-02-28T14:05:15+01:00</time>
      </trkpt>
      <trkpt lat="50.02924" lon="2.33224">
        <ele>133.10059</ele>
        <time>2024-02-28T14:05:19+01:00</time>
      </trkpt>
      <trkpt lat="50.02926" lon="2.33224">
        <ele>133.2002</ele>
        <time>2024-02-28T14:05:20+01:00</time>
      </trkpt>
      <trkpt lat="50.0293" lon="2.33226">
        <ele>133.2998</ele>
        <time>2024-02-28T14:05:24+01:00</time>
      </trkpt>
      <trkpt lat="50.02932" lon="2.33227">
        <ele>133.2998</ele>
        <time>2024-02-28T14:05:25+01:00</time>
      </trkpt>
      <trkpt lat="50.02936" lon="2.3323">
        <ele>133.5</ele>
        <time>2024-02-28T14:05:29+01:00</time>
      </trkpt>
      <trkpt lat="50.02938" lon="2.3323">
        <ele>133.5</ele>
        <time>2024-02-28T14:05:30+01:00</time>
      </trkpt>
      <trkpt lat="50.02942" lon="2.33233">
        <ele>133.7002</ele>
        <time>2024-02-28T14:05:34+01:00</time>
      </trkpt>
      <trkpt lat="50.02943" lon="2.33234">
        <ele>133.7002</ele>
        <time>2024-02-28T14:05:35+01:00</time>
      </trkpt>
      <trkpt lat="50.02948" lon="2.33238">
        <ele>133.90039</ele>
        <time>2024-02-28T14:05:39+01:00</time>
      </trkpt>
      <trkpt lat="50.02949" lon="2.33239">
        <ele>133.90039</ele>
        <time>2024-02-28T14:05:40+01:00</time>
      </trkpt>
      <trkpt lat="50.02954" lon="2.33242">
        <ele>134</ele>
        <time>2024-02-28T14:05:44+01:00</time>
      </trkpt>
      <trkpt lat="50.02955" lon="2.33243">
        <ele>134</ele>
        <time>2024-02-28T14:05:45+01:00</time>
      </trkpt>
      <trkpt lat="50.0296" lon="2.33246">
        <ele>134.2002</ele>
        <time>2024-02-28T14:05:49+01:00</time>
      </trkpt>
      <trkpt lat="50.02961" lon="2.33247">
        <ele>134.2002</ele>
        <time>2024-02-28T14:05:50+01:00</time>
      </trkpt>
      <trkpt lat="50.02965" lon="2.33252">
        <ele>134.2998</ele>
        <time>2024-02-28T14:05:54+01:00</time>
      </trkpt>
      <trkpt lat="50.02967" lon="2.33253">
        <ele>134.2998</ele>
        <time>2024-02-28T14:05:55+01:00</time>
      </trkpt>
      <trkpt lat="50.02972" lon="2.33256">
        <ele>134.5</ele>
        <time>2024-02-28T14:05:59+01:00</time>
      </trkpt>
      <trkpt lat="50.02973" lon="2.33257">
        <ele>134.5</ele>
        <time>2024-02-28T14:06:00+01:00</time>
      </trkpt>
      <trkpt lat="50.02978" lon="2.33259">
        <ele>134.60059</ele>
        <time>2024-02-28T14:06:04+01:00</time>
      </trkpt>
      <trkpt lat="50.02979" lon="2.3326">
        <ele>134.60059</ele>
        <time>2024-02-28T14:06:05+01:00</time>
      </trkpt>
      <trkpt lat="50.02984" lon="2.33263">
        <ele>134.7998</ele>
        <time>2024-02-28T14:06:09+01:00</time>
      </trkpt>
      <trkpt lat="50.02984" lon="2.33264">
        <ele>134.7998</ele>
        <time>2024-02-28T14:06:10+01:00</time>
      </trkpt>
      <trkpt lat="50.02988" lon="2.33267">
        <ele>134.90039</ele>
        <time>2024-02-28T14:06:15+01:00</time>
      </trkpt>
      <trkpt lat="50.02989" lon="2.33268">
        <ele>134.90039</ele>
        <time>2024-02-28T14:06:16+01:00</time>
      </trkpt>
      <trkpt lat="50.02993" lon="2.33271">
        <ele>135.10059</ele>
        <time>2024-02-28T14:06:20+01:00</time>
      </trkpt>
      <trkpt lat="50.02994" lon="2.33272">
        <ele>135.10059</ele>
        <time>2024-02-28T14:06:21+01:00</time>
      </trkpt>
      <trkpt lat="50.02999" lon="2.33276">
        <ele>135.2002</ele>
        <time>2024-02-28T14:06:25+01:00</time>
      </trkpt>
      <trkpt lat="50.03" lon="2.33277">
        <ele>135.2002</ele>
        <time>2024-02-28T14:06:26+01:00</time>
      </trkpt>
      <trkpt lat="50.03004" lon="2.3328">
        <ele>135.40039</ele>
        <time>2024-02-28T14:06:30+01:00</time>
      </trkpt>
      <trkpt lat="50.03005" lon="2.33281">
        <ele>135.40039</ele>
        <time>2024-02-28T14:06:31+01:00</time>
      </trkpt>
      <trkpt lat="50.03011" lon="2.33284">
        <ele>135.60059</ele>
        <time>2024-02-28T14:06:35+01:00</time>
      </trkpt>
      <trkpt lat="50.03012" lon="2.33285">
        <ele>135.60059</ele>
        <time>2024-02-28T14:06:36+01:00</time>
      </trkpt>
      <trkpt lat="50.03017" lon="2.33289">
        <ele>135.7998</ele>
        <time>2024-02-28T14:06:40+01:00</time>
      </trkpt>
      <trkpt lat="50.03019" lon="2.3329">
        <ele>135.90039</ele>
        <time>2024-02-28T14:06:41+01:00</time>
      </trkpt>
      <trkpt lat="50.03023" lon="2.33294">
        <ele>135.90039</ele>
        <time>2024-02-28T14:06:45+01:00</time>
      </trkpt>
      <trkpt lat="50.03024" lon="2.33295">
        <ele>136.10059</ele>
        <time>2024-02-28T14:06:46+01:00</time>
      </trkpt>
      <trkpt lat="50.03029" lon="2.33298">
        <ele>136.10059</ele>
        <time>2024-02-28T14:06:50+01:00</time>
      </trkpt>
      <trkpt lat="50.0303" lon="2.33298">
        <ele>136.2998</ele>
        <time>2024-02-28T14:06:51+01:00</time>
      </trkpt>
      <trkpt lat="50.03034" lon="2.33301">
        <ele>136.2998</ele>
        <time>2024-02-28T14:06:55+01:00</time>
      </trkpt>
      <trkpt lat="50.03035" lon="2.33302">
        <ele>136.2998</ele>
        <time>2024-02-28T14:06:56+01:00</time>
      </trkpt>
      <trkpt lat="50.03039" lon="2.33304">
        <ele>136.5</ele>
        <time>2024-02-28T14:07:00+01:00</time>
      </trkpt>
      <trkpt lat="50.0304" lon="2.33305">
        <ele>136.5</ele>
        <time>2024-02-28T14:07:01+01:00</time>
      </trkpt>
      <trkpt lat="50.03045" lon="2.33307">
        <ele>136.7002</ele>
        <time>2024-02-28T14:07:05+01:00</time>
      </trkpt>
      <trkpt lat="50.03046" lon="2.33308">
        <ele>136.7002</ele>
        <time>2024-02-28T14:07:06+01:00</time>
      </trkpt>
      <trkpt lat="50.0305" lon="2.33311">
        <ele>136.90039</ele>
        <time>2024-02-28T14:07:10+01:00</time>
      </trkpt>
      <trkpt lat="50.03051" lon="2.33311">
        <ele>136.90039</ele>
        <time>2024-02-28T14:07:11+01:00</time>
      </trkpt>
      <trkpt lat="50.03056" lon="2.33314">
        <ele>137.10059</ele>
        <time>2024-02-28T14:07:15+01:00</time>
      </trkpt>
      <trkpt lat="50.03057" lon="2.33316">
        <ele>137.10059</ele>
        <time>2024-02-28T14:07:16+01:00</time>
      </trkpt>
      <trkpt lat="50.0306" lon="2.3332">
        <ele>137.2002</ele>
        <time>2024-02-28T14:07:20+01:00</time>
      </trkpt>
      <trkpt lat="50.0306" lon="2.33321">
        <ele>137.2002</ele>
        <time>2024-02-28T14:07:21+01:00</time>
      </trkpt>
      <trkpt lat="50.03064" lon="2.33326">
        <ele>137.40039</ele>
        <time>2024-02-28T14:07:25+01:00</time>
      </trkpt>
      <trkpt lat="50.03065" lon="2.33327">
        <ele>137.40039</ele>
        <time>2024-02-28T14:07:26+01:00</time>
      </trkpt>
      <trkpt lat="50.03068" lon="2.33331">
        <ele>137.40039</ele>
        <time>2024-02-28T14:07:30+01:00</time>
      </trkpt>
      <trkpt lat="50.03069" lon="2.33332">
        <ele>137.40039</ele>
        <time>2024-02-28T14:07:31+01:00</time>
      </trkpt>
      <trkpt lat="50.03073" lon="2.33337">
        <ele>137.40039</ele>
        <time>2024-02-28T14:07:35+01:00</time>
      </trkpt>
      <trkpt lat="50.03073" lon="2.33338">
        <ele>137.40039</ele>
        <time>2024-02-28T14:07:36+01:00</time>
      </trkpt>
      <trkpt lat="50.03077" lon="2.33343">
        <ele>137.5</ele>
        <time>2024-02-28T14:07:40+01:00</time>
      </trkpt>
      <trkpt lat="50.03079" lon="2.33344">
        <ele>137.5</ele>
        <time>2024-02-28T14:07:41+01:00</time>
      </trkpt>
      <trkpt lat="50.03082" lon="2.33347">
        <ele>137.60059</ele>
        <time>2024-02-28T14:07:45+01:00</time>
      </trkpt>
      <trkpt lat="50.03083" lon="2.33348">
        <ele>137.5</ele>
        <time>2024-02-28T14:07:46+01:00</time>
      </trkpt>
      <trkpt lat="50.03087" lon="2.33351">
        <ele>137.60059</ele>
        <time>2024-02-28T14:07:50+01:00</time>
      </trkpt>
      <trkpt lat="50.03088" lon="2.33352">
        <ele>137.60059</ele>
        <time>2024-02-28T14:07:51+01:00</time>
      </trkpt>
      <trkpt lat="50.03092" lon="2.33356">
        <ele>137.7002</ele>
        <time>2024-02-28T14:07:55+01:00</time>
      </trkpt>
      <trkpt lat="50.03093" lon="2.33357">
        <ele>137.60059</ele>
        <time>2024-02-28T14:07:56+01:00</time>
      </trkpt>
      <trkpt lat="50.03096" lon="2.33361">
        <ele>137.60059</ele>
        <time>2024-02-28T14:08:00+01:00</time>
      </trkpt>
      <trkpt lat="50.03097" lon="2.33362">
        <ele>137.60059</ele>
        <time>2024-02-28T14:08:01+01:00</time>
      </trkpt>
      <trkpt lat="50.03101" lon="2.33366">
        <ele>137.60059</ele>
        <time>2024-02-28T14:08:05+01:00</time>
      </trkpt>
      <trkpt lat="50.03102" lon="2.33367">
        <ele>137.60059</ele>
        <time>2024-02-28T14:08:06+01:00</time>
      </trkpt>
      <trkpt lat="50.03106" lon="2.33371">
        <ele>137.60059</ele>
        <time>2024-02-28T14:08:10+01:00</time>
      </trkpt>
      <trkpt lat="50.03107" lon="2.33372">
        <ele>137.7002</ele>
        <time>2024-02-28T14:08:11+01:00</time>
      </trkpt>
      <trkpt lat="50.03112" lon="2.33374">
        <ele>137.7002</ele>
        <time>2024-02-28T14:08:15+01:00</time>
      </trkpt>
      <trkpt lat="50.03114" lon="2.33375">
        <ele>137.7002</ele>
        <time>2024-02-28T14:08:16+01:00</time>
      </trkpt>
      <trkpt lat="50.03118" lon="2.33377">
        <ele>137.7002</ele>
        <time>2024-02-28T14:08:20+01:00</time>
      </trkpt>
      <trkpt lat="50.03119" lon="2.33377">
        <ele>137.7002</ele>
        <time>2024-02-28T14:08:21+01:00</time>
      </trkpt>
      <trkpt lat="50.03124" lon="2.33381">
        <ele>137.7002</ele>
        <time>2024-02-28T14:08:25+01:00</time>
      </trkpt>
      <trkpt lat="50.03125" lon="2.33382">
        <ele>137.7002</ele>
        <time>2024-02-28T14:08:26+01:00</time>
      </trkpt>
      <trkpt lat="50.0313" lon="2.33386">
        <ele>137.7002</ele>
        <time>2024-02-28T14:08:30+01:00</time>
      </trkpt>
      <trkpt lat="50.03131" lon="2.33387">
        <ele>137.7002</ele>
        <time>2024-02-28T14:08:31+01:00</time>
      </trkpt>
      <trkpt lat="50.03135" lon="2.3339">
        <ele>137.7998</ele>
        <time>2024-02-28T14:08:35+01:00</time>
      </trkpt>
      <trkpt lat="50.03136" lon="2.33391">
        <ele>137.7002</ele>
        <time>2024-02-28T14:08:36+01:00</time>
      </trkpt>
      <trkpt lat="50.0314" lon="2.33396">
        <ele>137.7998</ele>
        <time>2024-02-28T14:08:40+01:00</time>
      </trkpt>
      <trkpt lat="50.03142" lon="2.33397">
        <ele>137.7998</ele>
        <time>2024-02-28T14:08:41+01:00</time>
      </trkpt>
      <trkpt lat="50.03146" lon="2.334">
        <ele>137.7998</ele>
        <time>2024-02-28T14:08:45+01:00</time>
      </trkpt>
      <trkpt lat="50.03147" lon="2.334">
        <ele>137.7998</ele>
        <time>2024-02-28T14:08:46+01:00</time>
      </trkpt>
      <trkpt lat="50.03152" lon="2.33403">
        <ele>137.90039</ele>
        <time>2024-02-28T14:08:50+01:00</time>
      </trkpt>
      <trkpt lat="50.03153" lon="2.33404">
        <ele>137.90039</ele>
        <time>2024-02-28T14:08:51+01:00</time>
      </trkpt>
      <trkpt lat="50.03157" lon="2.33405">
        <ele>138</ele>
        <time>2024-02-28T14:08:55+01:00</time>
      </trkpt>
      <trkpt lat="50.03158" lon="2.33406">
        <ele>138</ele>
        <time>2024-02-28T14:08:56+01:00</time>
      </trkpt>
      <trkpt lat="50.03162" lon="2.33409">
        <ele>138</ele>
        <time>2024-02-28T14:09:00+01:00</time>
      </trkpt>
      <trkpt lat="50.03163" lon="2.33409">
        <ele>138</ele>
        <time>2024-02-28T14:09:01+01:00</time>
      </trkpt>
      <trkpt lat="50.03167" lon="2.33412">
        <ele>138</ele>
        <time>2024-02-28T14:09:05+01:00</time>
      </trkpt>
      <trkpt lat="50.03168" lon="2.33413">
        <ele>138.10059</ele>
        <time>2024-02-28T14:09:06+01:00</time>
      </trkpt>
      <trkpt lat="50.03172" lon="2.33416">
        <ele>138.10059</ele>
        <time>2024-02-28T14:09:10+01:00</time>
      </trkpt>
      <trkpt lat="50.03173" lon="2.33417">
        <ele>138.10059</ele>
        <time>2024-02-28T14:09:11+01:00</time>
      </trkpt>
      <trkpt lat="50.03177" lon="2.33421">
        <ele>138.2002</ele>
        <time>2024-02-28T14:09:15+01:00</time>
      </trkpt>
      <trkpt lat="50.03177" lon="2.33422">
        <ele>138.2002</ele>
        <time>2024-02-28T14:09:16+01:00</time>
      </trkpt>
      <trkpt lat="50.03181" lon="2.33425">
        <ele>138.2998</ele>
        <time>2024-02-28T14:09:20+01:00</time>
      </trkpt>
      <trkpt lat="50.03182" lon="2.33426">
        <ele>138.2998</ele>
        <time>2024-02-28T14:09:21+01:00</time>
      </trkpt>
      <trkpt lat="50.03186" lon="2.33429">
        <ele>138.2998</ele>
        <time>2024-02-28T14:09:25+01:00</time>
      </trkpt>
      <trkpt lat="50.03187" lon="2.3343">
        <ele>138.2998</ele>
        <time>2024-02-28T14:09:26+01:00</time>
      </trkpt>
      <trkpt lat="50.03191" lon="2.33434">
        <ele>138.5</ele>
        <time>2024-02-28T14:09:30+01:00</time>
      </trkpt>
      <trkpt lat="50.03192" lon="2.33435">
        <ele>138.5</ele>
        <time>2024-02-28T14:09:31+01:00</time>
      </trkpt>
      <trkpt lat="50.03196" lon="2.33438">
        <ele>138.5</ele>
        <time>2024-02-28T14:09:35+01:00</time>
      </trkpt>
      <trkpt lat="50.03197" lon="2.33439">
        <ele>138.5</ele>
        <time>2024-02-28T14:09:36+01:00</time>
      </trkpt>
      <trkpt lat="50.03201" lon="2.33442">
        <ele>138.60059</ele>
        <time>2024-02-28T14:09:40+01:00</time>
      </trkpt>
      <trkpt lat="50.03202" lon="2.33443">
        <ele>138.7002</ele>
        <time>2024-02-28T14:09:41+01:00</time>
      </trkpt>
      <trkpt lat="50.03206" lon="2.33446">
        <ele>138.7998</ele>
        <time>2024-02-28T14:09:45+01:00</time>
      </trkpt>
      <trkpt lat="50.03207" lon="2.33446">
        <ele>138.7998</ele>
        <time>2024-02-28T14:09:46+01:00</time>
      </trkpt>
      <trkpt lat="50.0321" lon="2.33451">
        <ele>138.7998</ele>
        <time>2024-02-28T14:09:50+01:00</time>
      </trkpt>
      <trkpt lat="50.03212" lon="2.33451">
        <ele>138.90039</ele>
        <time>2024-02-28T14:09:51+01:00</time>
      </trkpt>
      <trkpt lat="50.03216" lon="2.33453">
        <ele>138.90039</ele>
        <time>2024-02-28T14:09:55+01:00</time>
      </trkpt>
      <trkpt lat="50.03217" lon="2.33454">
        <ele>139</ele>
        <time>2024-02-28T14:09:56+01:00</time>
      </trkpt>
      <trkpt lat="50.03222" lon="2.33455">
        <ele>139</ele>
        <time>2024-02-28T14:10:00+01:00</time>
      </trkpt>
      <trkpt lat="50.03223" lon="2.33456">
        <ele>139.10059</ele>
        <time>2024-02-28T14:10:01+01:00</time>
      </trkpt>
      <trkpt lat="50.03228" lon="2.33458">
        <ele>139.10059</ele>
        <time>2024-02-28T14:10:05+01:00</time>
      </trkpt>
      <trkpt lat="50.03229" lon="2.33458">
        <ele>139.2998</ele>
        <time>2024-02-28T14:10:06+01:00</time>
      </trkpt>
      <trkpt lat="50.03234" lon="2.3346">
        <ele>139.5</ele>
        <time>2024-02-28T14:10:10+01:00</time>
      </trkpt>
      <trkpt lat="50.03235" lon="2.33461">
        <ele>139.5</ele>
        <time>2024-02-28T14:10:11+01:00</time>
      </trkpt>
      <trkpt lat="50.03239" lon="2.33463">
        <ele>139.5</ele>
        <time>2024-02-28T14:10:15+01:00</time>
      </trkpt>
      <trkpt lat="50.0324" lon="2.33464">
        <ele>139.60059</ele>
        <time>2024-02-28T14:10:16+01:00</time>
      </trkpt>
      <trkpt lat="50.03244" lon="2.33467">
        <ele>139.60059</ele>
        <time>2024-02-28T14:10:20+01:00</time>
      </trkpt>
      <trkpt lat="50.03245" lon="2.33468">
        <ele>139.7998</ele>
        <time>2024-02-28T14:10:21+01:00</time>
      </trkpt>
      <trkpt lat="50.03248" lon="2.33472">
        <ele>139.90039</ele>
        <time>2024-02-28T14:10:25+01:00</time>
      </trkpt>
      <trkpt lat="50.03249" lon="2.33474">
        <ele>139.90039</ele>
        <time>2024-02-28T14:10:26+01:00</time>
      </trkpt>
      <trkpt lat="50.03252" lon="2.3348">
        <ele>140.10059</ele>
        <time>2024-02-28T14:10:30+01:00</time>
      </trkpt>
      <trkpt lat="50.03252" lon="2.33481">
        <ele>140.10059</ele>
        <time>2024-02-28T14:10:31+01:00</time>
      </trkpt>
      <trkpt lat="50.03255" lon="2.33487">
        <ele>140.2002</ele>
        <time>2024-02-28T14:10:35+01:00</time>
      </trkpt>
      <trkpt lat="50.03256" lon="2.33489">
        <ele>140.2002</ele>
        <time>2024-02-28T14:10:36+01:00</time>
      </trkpt>
      <trkpt lat="50.03258" lon="2.33496">
        <ele>140.40039</ele>
        <time>2024-02-28T14:10:40+01:00</time>
      </trkpt>
      <trkpt lat="50.03259" lon="2.33498">
        <ele>140.40039</ele>
        <time>2024-02-28T14:10:41+01:00</time>
      </trkpt>
      <trkpt lat="50.03261" lon="2.33505">
        <ele>140.60059</ele>
        <time>2024-02-28T14:10:46+01:00</time>
      </trkpt>
      <trkpt lat="50.03262" lon="2.33507">
        <ele>140.60059</ele>
        <time>2024-02-28T14:10:47+01:00</time>
      </trkpt>
      <trkpt lat="50.03265" lon="2.33513">
        <ele>140.60059</ele>
        <time>2024-02-28T14:10:51+01:00</time>
      </trkpt>
      <trkpt lat="50.03265" lon="2.33515">
        <ele>140.60059</ele>
        <time>2024-02-28T14:10:52+01:00</time>
      </trkpt>
      <trkpt lat="50.03268" lon="2.33522">
        <ele>140.7998</ele>
        <time>2024-02-28T14:10:56+01:00</time>
      </trkpt>
      <trkpt lat="50.03269" lon="2.33524">
        <ele>140.7998</ele>
        <time>2024-02-28T14:10:57+01:00</time>
      </trkpt>
      <trkpt lat="50.03272" lon="2.3353">
        <ele>140.7002</ele>
        <time>2024-02-28T14:11:01+01:00</time>
      </trkpt>
      <trkpt lat="50.03273" lon="2.33532">
        <ele>140.90039</ele>
        <time>2024-02-28T14:11:02+01:00</time>
      </trkpt>
      <trkpt lat="50.03275" lon="2.33538">
        <ele>140.90039</ele>
        <time>2024-02-28T14:11:06+01:00</time>
      </trkpt>
      <trkpt lat="50.03276" lon="2.3354">
        <ele>140.90039</ele>
        <time>2024-02-28T14:11:07+01:00</time>
      </trkpt>
      <trkpt lat="50.03279" lon="2.33546">
        <ele>141</ele>
        <time>2024-02-28T14:11:11+01:00</time>
      </trkpt>
      <trkpt lat="50.03279" lon="2.33548">
        <ele>141</ele>
        <time>2024-02-28T14:11:12+01:00</time>
      </trkpt>
      <trkpt lat="50.03283" lon="2.33554">
        <ele>140.90039</ele>
        <time>2024-02-28T14:11:16+01:00</time>
      </trkpt>
      <trkpt lat="50.03283" lon="2.33555">
        <ele>140.90039</ele>
        <time>2024-02-28T14:11:17+01:00</time>
      </trkpt>
      <trkpt lat="50.03285" lon="2.33561">
        <ele>141.10059</ele>
        <time>2024-02-28T14:11:21+01:00</time>
      </trkpt>
      <trkpt lat="50.03286" lon="2.33563">
        <ele>141</ele>
        <time>2024-02-28T14:11:22+01:00</time>
      </trkpt>
      <trkpt lat="50.03288" lon="2.33569">
        <ele>141</ele>
        <time>2024-02-28T14:11:26+01:00</time>
      </trkpt>
      <trkpt lat="50.03289" lon="2.3357">
        <ele>141.2002</ele>
        <time>2024-02-28T14:11:27+01:00</time>
      </trkpt>
      <trkpt lat="50.03291" lon="2.33577">
        <ele>141.10059</ele>
        <time>2024-02-28T14:11:31+01:00</time>
      </trkpt>
      <trkpt lat="50.03291" lon="2.33578">
        <ele>141.10059</ele>
        <time>2024-02-28T14:11:32+01:00</time>
      </trkpt>
      <trkpt lat="50.03293" lon="2.33585">
        <ele>141</ele>
        <time>2024-02-28T14:11:36+01:00</time>
      </trkpt>
      <trkpt lat="50.03294" lon="2.33587">
        <ele>141</ele>
        <time>2024-02-28T14:11:37+01:00</time>
      </trkpt>
      <trkpt lat="50.03296" lon="2.33593">
        <ele>141.10059</ele>
        <time>2024-02-28T14:11:41+01:00</time>
      </trkpt>
      <trkpt lat="50.03297" lon="2.33594">
        <ele>141.10059</ele>
        <time>2024-02-28T14:11:42+01:00</time>
      </trkpt>
      <trkpt lat="50.033" lon="2.33601">
        <ele>141</ele>
        <time>2024-02-28T14:11:46+01:00</time>
      </trkpt>
      <trkpt lat="50.033" lon="2.33602">
        <ele>141.10059</ele>
        <time>2024-02-28T14:11:47+01:00</time>
      </trkpt>
      <trkpt lat="50.03303" lon="2.33608">
        <ele>141</ele>
        <time>2024-02-28T14:11:51+01:00</time>
      </trkpt>
      <trkpt lat="50.03303" lon="2.33609">
        <ele>141</ele>
        <time>2024-02-28T14:11:52+01:00</time>
      </trkpt>
      <trkpt lat="50.03305" lon="2.33615">
        <ele>141</ele>
        <time>2024-02-28T14:11:56+01:00</time>
      </trkpt>
      <trkpt lat="50.03306" lon="2.33617">
        <ele>141</ele>
        <time>2024-02-28T14:11:57+01:00</time>
      </trkpt>
      <trkpt lat="50.03307" lon="2.33623">
        <ele>140.90039</ele>
        <time>2024-02-28T14:12:01+01:00</time>
      </trkpt>
      <trkpt lat="50.03307" lon="2.33624">
        <ele>140.90039</ele>
        <time>2024-02-28T14:12:02+01:00</time>
      </trkpt>
      <trkpt lat="50.03308" lon="2.3363">
        <ele>140.90039</ele>
        <time>2024-02-28T14:12:06+01:00</time>
      </trkpt>
      <trkpt lat="50.03309" lon="2.33631">
        <ele>140.90039</ele>
        <time>2024-02-28T14:12:07+01:00</time>
      </trkpt>
      <trkpt lat="50.03311" lon="2.33632">
        <ele>140.90039</ele>
        <time>2024-02-28T14:12:11+01:00</time>
      </trkpt>
      <trkpt lat="50.03312" lon="2.33633">
        <ele>140.90039</ele>
        <time>2024-02-28T14:12:12+01:00</time>
      </trkpt>
      <trkpt lat="50.03312" lon="2.33633">
        <ele>140.90039</ele>
        <time>2024-02-28T14:12:16+01:00</time>
      </trkpt>
      <trkpt lat="50.03309" lon="2.33631">
        <ele>140.90039</ele>
        <time>2024-02-28T14:12:17+01:00</time>
      </trkpt>
      <trkpt lat="50.03309" lon="2.33632">
        <ele>140.7998</ele>
        <time>2024-02-28T14:12:21+01:00</time>
      </trkpt>
      <trkpt lat="50.03309" lon="2.33633">
        <ele>140.7998</ele>
        <time>2024-02-28T14:12:22+01:00</time>
      </trkpt>
      <trkpt lat="50.03311" lon="2.33636">
        <ele>140.7998</ele>
        <time>2024-02-28T14:12:26+01:00</time>
      </trkpt>
      <trkpt lat="50.03311" lon="2.33638">
        <ele>140.90039</ele>
        <time>2024-02-28T14:12:27+01:00</time>
      </trkpt>
      <trkpt lat="50.03312" lon="2.33643">
        <ele>140.7998</ele>
        <time>2024-02-28T14:12:31+01:00</time>
      </trkpt>
      <trkpt lat="50.03312" lon="2.33644">
        <ele>140.7998</ele>
        <time>2024-02-28T14:12:32+01:00</time>
      </trkpt>
      <trkpt lat="50.03315" lon="2.3365">
        <ele>140.7002</ele>
        <time>2024-02-28T14:12:36+01:00</time>
      </trkpt>
      <trkpt lat="50.03316" lon="2.33651">
        <ele>140.7002</ele>
        <time>2024-02-28T14:12:37+01:00</time>
      </trkpt>
      <trkpt lat="50.03319" lon="2.33656">
        <ele>140.7998</ele>
        <time>2024-02-28T14:12:41+01:00</time>
      </trkpt>
      <trkpt lat="50.0332" lon="2.33658">
        <ele>140.7002</ele>
        <time>2024-02-28T14:12:42+01:00</time>
      </trkpt>
      <trkpt lat="50.03323" lon="2.33663">
        <ele>140.7002</ele>
        <time>2024-02-28T14:12:46+01:00</time>
      </trkpt>
      <trkpt lat="50.03323" lon="2.33664">
        <ele>140.7002</ele>
        <time>2024-02-28T14:12:47+01:00</time>
      </trkpt>
      <trkpt lat="50.03325" lon="2.3367">
        <ele>140.60059</ele>
        <time>2024-02-28T14:12:51+01:00</time>
      </trkpt>
      <trkpt lat="50.03326" lon="2.33672">
        <ele>140.60059</ele>
        <time>2024-02-28T14:12:52+01:00</time>
      </trkpt>
      <trkpt lat="50.03328" lon="2.33677">
        <ele>140.60059</ele>
        <time>2024-02-28T14:12:56+01:00</time>
      </trkpt>
      <trkpt lat="50.03329" lon="2.33679">
        <ele>140.60059</ele>
        <time>2024-02-28T14:12:57+01:00</time>
      </trkpt>
      <trkpt lat="50.03331" lon="2.33684">
        <ele>140.5</ele>
        <time>2024-02-28T14:13:01+01:00</time>
      </trkpt>
      <trkpt lat="50.03332" lon="2.33685">
        <ele>140.5</ele>
        <time>2024-02-28T14:13:02+01:00</time>
      </trkpt>
      <trkpt lat="50.03335" lon="2.33688">
        <ele>140.60059</ele>
        <time>2024-02-28T14:13:06+01:00</time>
      </trkpt>
      <trkpt lat="50.03336" lon="2.33689">
        <ele>140.60059</ele>
        <time>2024-02-28T14:13:07+01:00</time>
      </trkpt>
      <trkpt lat="50.0334" lon="2.33693">
        <ele>140.5</ele>
        <time>2024-02-28T14:13:11+01:00</time>
      </trkpt>
      <trkpt lat="50.0334" lon="2.33694">
        <ele>140.5</ele>
        <time>2024-02-28T14:13:12+01:00</time>
      </trkpt>
      <trkpt lat="50.03344" lon="2.33698">
        <ele>140.60059</ele>
        <time>2024-02-28T14:13:16+01:00</time>
      </trkpt>
      <trkpt lat="50.03345" lon="2.33699">
        <ele>140.60059</ele>
        <time>2024-02-28T14:13:17+01:00</time>
      </trkpt>
      <trkpt lat="50.03349" lon="2.33703">
        <ele>140.5</ele>
        <time>2024-02-28T14:13:21+01:00</time>
      </trkpt>
      <trkpt lat="50.03349" lon="2.33704">
        <ele>140.5</ele>
        <time>2024-02-28T14:13:22+01:00</time>
      </trkpt>
      <trkpt lat="50.03353" lon="2.33709">
        <ele>140.40039</ele>
        <time>2024-02-28T14:13:26+01:00</time>
      </trkpt>
      <trkpt lat="50.03354" lon="2.3371">
        <ele>140.40039</ele>
        <time>2024-02-28T14:13:27+01:00</time>
      </trkpt>
      <trkpt lat="50.03358" lon="2.33715">
        <ele>140.40039</ele>
        <time>2024-02-28T14:13:31+01:00</time>
      </trkpt>
      <trkpt lat="50.03358" lon="2.33716">
        <ele>140.40039</ele>
        <time>2024-02-28T14:13:32+01:00</time>
      </trkpt>
      <trkpt lat="50.03362" lon="2.33721">
        <ele>140.2998</ele>
        <time>2024-02-28T14:13:36+01:00</time>
      </trkpt>
      <trkpt lat="50.03363" lon="2.33723">
        <ele>140.2998</ele>
        <time>2024-02-28T14:13:37+01:00</time>
      </trkpt>
      <trkpt lat="50.03365" lon="2.33729">
        <ele>140.2002</ele>
        <time>2024-02-28T14:13:41+01:00</time>
      </trkpt>
      <trkpt lat="50.03366" lon="2.3373">
        <ele>140.2002</ele>
        <time>2024-02-28T14:13:42+01:00</time>
      </trkpt>
      <trkpt lat="50.03369" lon="2.33736">
        <ele>140</ele>
        <time>2024-02-28T14:13:46+01:00</time>
      </trkpt>
      <trkpt lat="50.0337" lon="2.33737">
        <ele>140</ele>
        <time>2024-02-28T14:13:47+01:00</time>
      </trkpt>
      <trkpt lat="50.03373" lon="2.33742">
        <ele>140</ele>
        <time>2024-02-28T14:13:51+01:00</time>
      </trkpt>
      <trkpt lat="50.03374" lon="2.33744">
        <ele>139.90039</ele>
        <time>2024-02-28T14:13:52+01:00</time>
      </trkpt>
      <trkpt lat="50.03377" lon="2.33748">
        <ele>139.90039</ele>
        <time>2024-02-28T14:13:56+01:00</time>
      </trkpt>
      <trkpt lat="50.03378" lon="2.33749">
        <ele>139.90039</ele>
        <time>2024-02-28T14:13:57+01:00</time>
      </trkpt>
      <trkpt lat="50.03381" lon="2.33753">
        <ele>139.7998</ele>
        <time>2024-02-28T14:14:01+01:00</time>
      </trkpt>
      <trkpt lat="50.03381" lon="2.33754">
        <ele>139.7998</ele>
        <time>2024-02-28T14:14:02+01:00</time>
      </trkpt>
      <trkpt lat="50.03384" lon="2.33759">
        <ele>139.7998</ele>
        <time>2024-02-28T14:14:06+01:00</time>
      </trkpt>
      <trkpt lat="50.03385" lon="2.33761">
        <ele>139.7002</ele>
        <time>2024-02-28T14:14:07+01:00</time>
      </trkpt>
      <trkpt lat="50.03389" lon="2.33766">
        <ele>139.7002</ele>
        <time>2024-02-28T14:14:11+01:00</time>
      </trkpt>
      <trkpt lat="50.0339" lon="2.33767">
        <ele>139.7002</ele>
        <time>2024-02-28T14:14:12+01:00</time>
      </trkpt>
      <trkpt lat="50.03394" lon="2.33771">
        <ele>139.60059</ele>
        <time>2024-02-28T14:14:16+01:00</time>
      </trkpt>
      <trkpt lat="50.03395" lon="2.33771">
        <ele>139.60059</ele>
        <time>2024-02-28T14:14:17+01:00</time>
      </trkpt>
      <trkpt lat="50.03399" lon="2.33775">
        <ele>139.60059</ele>
        <time>2024-02-28T14:14:21+01:00</time>
      </trkpt>
      <trkpt lat="50.034" lon="2.33776">
        <ele>139.60059</ele>
        <time>2024-02-28T14:14:22+01:00</time>
      </trkpt>
      <trkpt lat="50.03404" lon="2.33781">
        <ele>139.5</ele>
        <time>2024-02-28T14:14:26+01:00</time>
      </trkpt>
      <trkpt lat="50.03405" lon="2.33782">
        <ele>139.5</ele>
        <time>2024-02-28T14:14:27+01:00</time>
      </trkpt>
      <trkpt lat="50.03408" lon="2.33787">
        <ele>139.40039</ele>
        <time>2024-02-28T14:14:31+01:00</time>
      </trkpt>
      <trkpt lat="50.03409" lon="2.33788">
        <ele>139.40039</ele>
        <time>2024-02-28T14:14:32+01:00</time>
      </trkpt>
      <trkpt lat="50.03413" lon="2.33793">
        <ele>139.40039</ele>
        <time>2024-02-28T14:14:36+01:00</time>
      </trkpt>
      <trkpt lat="50.03414" lon="2.33794">
        <ele>139.2998</ele>
        <time>2024-02-28T14:14:37+01:00</time>
      </trkpt>
      <trkpt lat="50.03417" lon="2.33799">
        <ele>139.40039</ele>
        <time>2024-02-28T14:14:41+01:00</time>
      </trkpt>
      <trkpt lat="50.03418" lon="2.33801">
        <ele>139.40039</ele>
        <time>2024-02-28T14:14:42+01:00</time>
      </trkpt>
      <trkpt lat="50.03422" lon="2.33805">
        <ele>139.2998</ele>
        <time>2024-02-28T14:14:46+01:00</time>
      </trkpt>
      <trkpt lat="50.03422" lon="2.33806">
        <ele>139.2998</ele>
        <time>2024-02-28T14:14:47+01:00</time>
      </trkpt>
      <trkpt lat="50.03426" lon="2.33811">
        <ele>139.2998</ele>
        <time>2024-02-28T14:14:51+01:00</time>
      </trkpt>
      <trkpt lat="50.03427" lon="2.33812">
        <ele>139.2998</ele>
        <time>2024-02-28T14:14:52+01:00</time>
      </trkpt>
      <trkpt lat="50.03431" lon="2.33815">
        <ele>139.2998</ele>
        <time>2024-02-28T14:14:56+01:00</time>
      </trkpt>
      <trkpt lat="50.03432" lon="2.33816">
        <ele>139.2998</ele>
        <time>2024-02-28T14:14:57+01:00</time>
      </trkpt>
      <trkpt lat="50.03435" lon="2.3382">
        <ele>139.40039</ele>
        <time>2024-02-28T14:15:01+01:00</time>
      </trkpt>
      <trkpt lat="50.03436" lon="2.33821">
        <ele>139.2998</ele>
        <time>2024-02-28T14:15:02+01:00</time>
      </trkpt>
      <trkpt lat="50.0344" lon="2.33825">
        <ele>139.40039</ele>
        <time>2024-02-28T14:15:06+01:00</time>
      </trkpt>
      <trkpt lat="50.03441" lon="2.33826">
        <ele>139.40039</ele>
        <time>2024-02-28T14:15:07+01:00</time>
      </trkpt>
      <trkpt lat="50.03444" lon="2.3383">
        <ele>139.40039</ele>
        <time>2024-02-28T14:15:11+01:00</time>
      </trkpt>
      <trkpt lat="50.03445" lon="2.33832">
        <ele>139.40039</ele>
        <time>2024-02-28T14:15:12+01:00</time>
      </trkpt>
      <trkpt lat="50.03448" lon="2.33836">
        <ele>139.40039</ele>
        <time>2024-02-28T14:15:16+01:00</time>
      </trkpt>
      <trkpt lat="50.03449" lon="2.33838">
        <ele>139.5</ele>
        <time>2024-02-28T14:15:17+01:00</time>
      </trkpt>
      <trkpt lat="50.03453" lon="2.33843">
        <ele>139.5</ele>
        <time>2024-02-28T14:15:21+01:00</time>
      </trkpt>
      <trkpt lat="50.03454" lon="2.33844">
        <ele>139.5</ele>
        <time>2024-02-28T14:15:22+01:00</time>
      </trkpt>
      <trkpt lat="50.03458" lon="2.33847">
        <ele>139.5</ele>
        <time>2024-02-28T14:15:26+01:00</time>
      </trkpt>
      <trkpt lat="50.03459" lon="2.33848">
        <ele>139.5</ele>
        <time>2024-02-28T14:15:27+01:00</time>
      </trkpt>
      <trkpt lat="50.03462" lon="2.33852">
        <ele>139.60059</ele>
        <time>2024-02-28T14:15:31+01:00</time>
      </trkpt>
      <trkpt lat="50.03463" lon="2.33853">
        <ele>139.60059</ele>
        <time>2024-02-28T14:15:32+01:00</time>
      </trkpt>
      <trkpt lat="50.03468" lon="2.33858">
        <ele>139.7002</ele>
        <time>2024-02-28T14:15:36+01:00</time>
      </trkpt>
      <trkpt lat="50.03469" lon="2.33859">
        <ele>139.7002</ele>
        <time>2024-02-28T14:15:37+01:00</time>
      </trkpt>
      <trkpt lat="50.03474" lon="2.33862">
        <ele>139.7002</ele>
        <time>2024-02-28T14:15:41+01:00</time>
      </trkpt>
      <trkpt lat="50.03475" lon="2.33863">
        <ele>139.7002</ele>
        <time>2024-02-28T14:15:42+01:00</time>
      </trkpt>
      <trkpt lat="50.03479" lon="2.33867">
        <ele>139.7998</ele>
        <time>2024-02-28T14:15:46+01:00</time>
      </trkpt>
      <trkpt lat="50.0348" lon="2.33868">
        <ele>139.7998</ele>
        <time>2024-02-28T14:15:47+01:00</time>
      </trkpt>
      <trkpt lat="50.03484" lon="2.33873">
        <ele>139.90039</ele>
        <time>2024-02-28T14:15:51+01:00</time>
      </trkpt>
      <trkpt lat="50.03485" lon="2.33874">
        <ele>139.90039</ele>
        <time>2024-02-28T14:15:52+01:00</time>
      </trkpt>
      <trkpt lat="50.03489" lon="2.33879">
        <ele>139.90039</ele>
        <time>2024-02-28T14:15:56+01:00</time>
      </trkpt>
      <trkpt lat="50.0349" lon="2.3388">
        <ele>139.90039</ele>
        <time>2024-02-28T14:15:57+01:00</time>
      </trkpt>
      <trkpt lat="50.03493" lon="2.33886">
        <ele>140</ele>
        <time>2024-02-28T14:16:01+01:00</time>
      </trkpt>
      <trkpt lat="50.03494" lon="2.33887">
        <ele>140</ele>
        <time>2024-02-28T14:16:02+01:00</time>
      </trkpt>
      <trkpt lat="50.03497" lon="2.33892">
        <ele>140</ele>
        <time>2024-02-28T14:16:06+01:00</time>
      </trkpt>
      <trkpt lat="50.03498" lon="2.33893">
        <ele>140</ele>
        <time>2024-02-28T14:16:07+01:00</time>
      </trkpt>
      <trkpt lat="50.03501" lon="2.33897">
        <ele>140.10059</ele>
        <time>2024-02-28T14:16:11+01:00</time>
      </trkpt>
      <trkpt lat="50.03502" lon="2.33897">
        <ele>140.10059</ele>
        <time>2024-02-28T14:16:12+01:00</time>
      </trkpt>
      <trkpt lat="50.03505" lon="2.33901">
        <ele>140.10059</ele>
        <time>2024-02-28T14:16:16+01:00</time>
      </trkpt>
      <trkpt lat="50.03506" lon="2.33902">
        <ele>140.10059</ele>
        <time>2024-02-28T14:16:17+01:00</time>
      </trkpt>
      <trkpt lat="50.03509" lon="2.33905">
        <ele>140.10059</ele>
        <time>2024-02-28T14:16:21+01:00</time>
      </trkpt>
      <trkpt lat="50.0351" lon="2.33906">
        <ele>140.2002</ele>
        <time>2024-02-28T14:16:22+01:00</time>
      </trkpt>
      <trkpt lat="50.03513" lon="2.33909">
        <ele>140.2002</ele>
        <time>2024-02-28T14:16:26+01:00</time>
      </trkpt>
      <trkpt lat="50.03514" lon="2.3391">
        <ele>140.2002</ele>
        <time>2024-02-28T14:16:27+01:00</time>
      </trkpt>
      <trkpt lat="50.03518" lon="2.33914">
        <ele>140.2998</ele>
        <time>2024-02-28T14:16:31+01:00</time>
      </trkpt>
      <trkpt lat="50.03519" lon="2.33915">
        <ele>140.40039</ele>
        <time>2024-02-28T14:16:32+01:00</time>
      </trkpt>
      <trkpt lat="50.03523" lon="2.33919">
        <ele>140.40039</ele>
        <time>2024-02-28T14:16:36+01:00</time>
      </trkpt>
      <trkpt lat="50.03524" lon="2.33919">
        <ele>140.40039</ele>
        <time>2024-02-28T14:16:37+01:00</time>
      </trkpt>
      <trkpt lat="50.03528" lon="2.33924">
        <ele>140.5</ele>
        <time>2024-02-28T14:16:41+01:00</time>
      </trkpt>
      <trkpt lat="50.03529" lon="2.33925">
        <ele>140.5</ele>
        <time>2024-02-28T14:16:42+01:00</time>
      </trkpt>
      <trkpt lat="50.03533" lon="2.33929">
        <ele>140.60059</ele>
        <time>2024-02-28T14:16:46+01:00</time>
      </trkpt>
      <trkpt lat="50.03534" lon="2.3393">
        <ele>140.60059</ele>
        <time>2024-02-28T14:16:47+01:00</time>
      </trkpt>
      <trkpt lat="50.03538" lon="2.33933">
        <ele>140.7002</ele>
        <time>2024-02-28T14:16:52+01:00</time>
      </trkpt>
      <trkpt lat="50.03539" lon="2.33934">
        <ele>140.7002</ele>
        <time>2024-02-28T14:16:53+01:00</time>
      </trkpt>
      <trkpt lat="50.03544" lon="2.33938">
        <ele>140.7002</ele>
        <time>2024-02-28T14:16:57+01:00</time>
      </trkpt>
      <trkpt lat="50.03545" lon="2.33939">
        <ele>140.7002</ele>
        <time>2024-02-28T14:16:58+01:00</time>
      </trkpt>
      <trkpt lat="50.0355" lon="2.33943">
        <ele>140.7998</ele>
        <time>2024-02-28T14:17:02+01:00</time>
      </trkpt>
      <trkpt lat="50.03551" lon="2.33944">
        <ele>140.7998</ele>
        <time>2024-02-28T14:17:03+01:00</time>
      </trkpt>
      <trkpt lat="50.03555" lon="2.33947">
        <ele>140.7998</ele>
        <time>2024-02-28T14:17:07+01:00</time>
      </trkpt>
      <trkpt lat="50.03556" lon="2.33948">
        <ele>140.7998</ele>
        <time>2024-02-28T14:17:08+01:00</time>
      </trkpt>
      <trkpt lat="50.0356" lon="2.33951">
        <ele>140.90039</ele>
        <time>2024-02-28T14:17:12+01:00</time>
      </trkpt>
      <trkpt lat="50.03561" lon="2.33952">
        <ele>140.90039</ele>
        <time>2024-02-28T14:17:13+01:00</time>
      </trkpt>
      <trkpt lat="50.03564" lon="2.33955">
        <ele>140.90039</ele>
        <time>2024-02-28T14:17:17+01:00</time>
      </trkpt>
      <trkpt lat="50.03564" lon="2.33956">
        <ele>140.90039</ele>
        <time>2024-02-28T14:17:18+01:00</time>
      </trkpt>
      <trkpt lat="50.03567" lon="2.33958">
        <ele>140.90039</ele>
        <time>2024-02-28T14:17:22+01:00</time>
      </trkpt>
      <trkpt lat="50.03568" lon="2.33957">
        <ele>140.90039</ele>
        <time>2024-02-28T14:17:23+01:00</time>
      </trkpt>
      <trkpt lat="50.03569" lon="2.33956">
        <ele>140.90039</ele>
        <time>2024-02-28T14:17:27+01:00</time>
      </trkpt>
      <trkpt lat="50.03569" lon="2.33956">
        <ele>140.90039</ele>
        <time>2024-02-28T14:17:28+01:00</time>
      </trkpt>
      <trkpt lat="50.03569" lon="2.33956">
        <ele>140.90039</ele>
        <time>2024-02-28T14:17:32+01:00</time>
      </trkpt>
      <trkpt lat="50.03573" lon="2.33953">
        <ele>141</ele>
        <time>2024-02-28T14:17:33+01:00</time>
      </trkpt>
      <trkpt lat="50.03575" lon="2.3395">
        <ele>141</ele>
        <time>2024-02-28T14:17:37+01:00</time>
      </trkpt>
      <trkpt lat="50.03575" lon="2.33948">
        <ele>140.90039</ele>
        <time>2024-02-28T14:17:38+01:00</time>
      </trkpt>
      <trkpt lat="50.03575" lon="2.33942">
        <ele>140.90039</ele>
        <time>2024-02-28T14:17:42+01:00</time>
      </trkpt>
      <trkpt lat="50.03575" lon="2.3394">
        <ele>140.90039</ele>
        <time>2024-02-28T14:17:43+01:00</time>
      </trkpt>
      <trkpt lat="50.03574" lon="2.33932">
        <ele>140.90039</ele>
        <time>2024-02-28T14:17:47+01:00</time>
      </trkpt>
      <trkpt lat="50.03574" lon="2.3393">
        <ele>140.90039</ele>
        <time>2024-02-28T14:17:48+01:00</time>
      </trkpt>
      <trkpt lat="50.03573" lon="2.33923">
        <ele>140.90039</ele>
        <time>2024-02-28T14:17:52+01:00</time>
      </trkpt>
      <trkpt lat="50.03573" lon="2.33921">
        <ele>140.90039</ele>
        <time>2024-02-28T14:17:53+01:00</time>
      </trkpt>
      <trkpt lat="50.03572" lon="2.33913">
        <ele>140.90039</ele>
        <time>2024-02-28T14:17:57+01:00</time>
      </trkpt>
      <trkpt lat="50.03572" lon="2.33911">
        <ele>140.90039</ele>
        <time>2024-02-28T14:17:58+01:00</time>
      </trkpt>
      <trkpt lat="50.03572" lon="2.33903">
        <ele>140.90039</ele>
        <time>2024-02-28T14:18:02+01:00</time>
      </trkpt>
      <trkpt lat="50.03572" lon="2.33901">
        <ele>140.90039</ele>
        <time>2024-02-28T14:18:03+01:00</time>
      </trkpt>
      <trkpt lat="50.03572" lon="2.33894">
        <ele>140.90039</ele>
        <time>2024-02-28T14:18:07+01:00</time>
      </trkpt>
      <trkpt lat="50.03572" lon="2.33892">
        <ele>140.90039</ele>
        <time>2024-02-28T14:18:08+01:00</time>
      </trkpt>
      <trkpt lat="50.03573" lon="2.33885">
        <ele>140.90039</ele>
        <time>2024-02-28T14:18:12+01:00</time>
      </trkpt>
      <trkpt lat="50.03573" lon="2.33883">
        <ele>140.90039</ele>
        <time>2024-02-28T14:18:13+01:00</time>
      </trkpt>
      <trkpt lat="50.03574" lon="2.33876">
        <ele>140.90039</ele>
        <time>2024-02-28T14:18:17+01:00</time>
      </trkpt>
      <trkpt lat="50.03574" lon="2.33875">
        <ele>140.90039</ele>
        <time>2024-02-28T14:18:18+01:00</time>
      </trkpt>
      <trkpt lat="50.03576" lon="2.33868">
        <ele>141</ele>
        <time>2024-02-28T14:18:22+01:00</time>
      </trkpt>
      <trkpt lat="50.03576" lon="2.33867">
        <ele>141</ele>
        <time>2024-02-28T14:18:23+01:00</time>
      </trkpt>
      <trkpt lat="50.03577" lon="2.33859">
        <ele>141</ele>
        <time>2024-02-28T14:18:27+01:00</time>
      </trkpt>
      <trkpt lat="50.03577" lon="2.33857">
        <ele>141</ele>
        <time>2024-02-28T14:18:28+01:00</time>
      </trkpt>
      <trkpt lat="50.03578" lon="2.3385">
        <ele>141</ele>
        <time>2024-02-28T14:18:32+01:00</time>
      </trkpt>
      <trkpt lat="50.03578" lon="2.33848">
        <ele>141</ele>
        <time>2024-02-28T14:18:33+01:00</time>
      </trkpt>
      <trkpt lat="50.03577" lon="2.33841">
        <ele>141</ele>
        <time>2024-02-28T14:18:37+01:00</time>
      </trkpt>
      <trkpt lat="50.03577" lon="2.33838">
        <ele>141</ele>
        <time>2024-02-28T14:18:38+01:00</time>
      </trkpt>
      <trkpt lat="50.03576" lon="2.3383">
        <ele>141</ele>
        <time>2024-02-28T14:18:42+01:00</time>
      </trkpt>
      <trkpt lat="50.03576" lon="2.33828">
        <ele>141</ele>
        <time>2024-02-28T14:18:43+01:00</time>
      </trkpt>
      <trkpt lat="50.03576" lon="2.33821">
        <ele>141</ele>
        <time>2024-02-28T14:18:47+01:00</time>
      </trkpt>
      <trkpt lat="50.03576" lon="2.33819">
        <ele>141</ele>
        <time>2024-02-28T14:18:48+01:00</time>
      </trkpt>
      <trkpt lat="50.03577" lon="2.33812">
        <ele>141</ele>
        <time>2024-02-28T14:18:52+01:00</time>
      </trkpt>
      <trkpt lat="50.03578" lon="2.33811">
        <ele>140.90039</ele>
        <time>2024-02-28T14:18:53+01:00</time>
      </trkpt>
      <trkpt lat="50.03581" lon="2.33806">
        <ele>141</ele>
        <time>2024-02-28T14:18:57+01:00</time>
      </trkpt>
      <trkpt lat="50.03582" lon="2.33804">
        <ele>141</ele>
        <time>2024-02-28T14:18:58+01:00</time>
      </trkpt>
      <trkpt lat="50.03586" lon="2.33799">
        <ele>141</ele>
        <time>2024-02-28T14:19:02+01:00</time>
      </trkpt>
      <trkpt lat="50.03587" lon="2.33798">
        <ele>141.10059</ele>
        <time>2024-02-28T14:19:03+01:00</time>
      </trkpt>
      <trkpt lat="50.03592" lon="2.33795">
        <ele>141.10059</ele>
        <time>2024-02-28T14:19:07+01:00</time>
      </trkpt>
      <trkpt lat="50.03593" lon="2.33795">
        <ele>141.2002</ele>
        <time>2024-02-28T14:19:08+01:00</time>
      </trkpt>
      <trkpt lat="50.03597" lon="2.33791">
        <ele>141.2002</ele>
        <time>2024-02-28T14:19:12+01:00</time>
      </trkpt>
      <trkpt lat="50.03597" lon="2.3379">
        <ele>141.2002</ele>
        <time>2024-02-28T14:19:13+01:00</time>
      </trkpt>
      <trkpt lat="50.03601" lon="2.33786">
        <ele>141.2002</ele>
        <time>2024-02-28T14:19:17+01:00</time>
      </trkpt>
      <trkpt lat="50.03601" lon="2.33785">
        <ele>141.2002</ele>
        <time>2024-02-28T14:19:18+01:00</time>
      </trkpt>
      <trkpt lat="50.03601" lon="2.33783">
        <ele>141.2002</ele>
        <time>2024-02-28T14:19:22+01:00</time>
      </trkpt>
      <trkpt lat="50.03601" lon="2.33783">
        <ele>141.2002</ele>
        <time>2024-02-28T14:19:23+01:00</time>
      </trkpt>
      <trkpt lat="50.03601" lon="2.33782">
        <ele>141.2002</ele>
        <time>2024-02-28T14:19:27+01:00</time>
      </trkpt>
      <trkpt lat="50.03605" lon="2.33776">
        <ele>141.2998</ele>
        <time>2024-02-28T14:19:28+01:00</time>
      </trkpt>
      <trkpt lat="50.03607" lon="2.33771">
        <ele>141.2998</ele>
        <time>2024-02-28T14:19:32+01:00</time>
      </trkpt>
      <trkpt lat="50.03608" lon="2.3377">
        <ele>141.2998</ele>
        <time>2024-02-28T14:19:33+01:00</time>
      </trkpt>
      <trkpt lat="50.0361" lon="2.33765">
        <ele>141.40039</ele>
        <time>2024-02-28T14:19:37+01:00</time>
      </trkpt>
      <trkpt lat="50.03611" lon="2.33764">
        <ele>141.40039</ele>
        <time>2024-02-28T14:19:38+01:00</time>
      </trkpt>
      <trkpt lat="50.03614" lon="2.33758">
        <ele>141.40039</ele>
        <time>2024-02-28T14:19:42+01:00</time>
      </trkpt>
      <trkpt lat="50.03615" lon="2.33757">
        <ele>141.40039</ele>
        <time>2024-02-28T14:19:43+01:00</time>
      </trkpt>
      <trkpt lat="50.03618" lon="2.33752">
        <ele>141.40039</ele>
        <time>2024-02-28T14:19:47+01:00</time>
      </trkpt>
      <trkpt lat="50.03619" lon="2.3375">
        <ele>141.40039</ele>
        <time>2024-02-28T14:19:48+01:00</time>
      </trkpt>
      <trkpt lat="50.03623" lon="2.33746">
        <ele>141.5</ele>
        <time>2024-02-28T14:19:52+01:00</time>
      </trkpt>
      <trkpt lat="50.03624" lon="2.33745">
        <ele>141.5</ele>
        <time>2024-02-28T14:19:53+01:00</time>
      </trkpt>
      <trkpt lat="50.03628" lon="2.33739">
        <ele>141.60059</ele>
        <time>2024-02-28T14:19:57+01:00</time>
      </trkpt>
      <trkpt lat="50.03629" lon="2.33738">
        <ele>141.60059</ele>
        <time>2024-02-28T14:19:58+01:00</time>
      </trkpt>
      <trkpt lat="50.03632" lon="2.33732">
        <ele>141.60059</ele>
        <time>2024-02-28T14:20:02+01:00</time>
      </trkpt>
      <trkpt lat="50.03633" lon="2.33731">
        <ele>141.60059</ele>
        <time>2024-02-28T14:20:03+01:00</time>
      </trkpt>
      <trkpt lat="50.03636" lon="2.33726">
        <ele>141.60059</ele>
        <time>2024-02-28T14:20:07+01:00</time>
      </trkpt>
      <trkpt lat="50.03636" lon="2.33725">
        <ele>141.7002</ele>
        <time>2024-02-28T14:20:08+01:00</time>
      </trkpt>
      <trkpt lat="50.03639" lon="2.33721">
        <ele>141.7002</ele>
        <time>2024-02-28T14:20:12+01:00</time>
      </trkpt>
      <trkpt lat="50.0364" lon="2.33719">
        <ele>141.7002</ele>
        <time>2024-02-28T14:20:13+01:00</time>
      </trkpt>
      <trkpt lat="50.03643" lon="2.33714">
        <ele>141.7998</ele>
        <time>2024-02-28T14:20:17+01:00</time>
      </trkpt>
      <trkpt lat="50.03644" lon="2.33712">
        <ele>141.7998</ele>
        <time>2024-02-28T14:20:18+01:00</time>
      </trkpt>
      <trkpt lat="50.03646" lon="2.33707">
        <ele>141.7998</ele>
        <time>2024-02-28T14:20:22+01:00</time>
      </trkpt>
      <trkpt lat="50.03647" lon="2.33705">
        <ele>141.7998</ele>
        <time>2024-02-28T14:20:23+01:00</time>
      </trkpt>
      <trkpt lat="50.03649" lon="2.337">
        <ele>141.90039</ele>
        <time>2024-02-28T14:20:27+01:00</time>
      </trkpt>
      <trkpt lat="50.0365" lon="2.33698">
        <ele>141.90039</ele>
        <time>2024-02-28T14:20:28+01:00</time>
      </trkpt>
      <trkpt lat="50.03652" lon="2.33693">
        <ele>141.90039</ele>
        <time>2024-02-28T14:20:32+01:00</time>
      </trkpt>
      <trkpt lat="50.03653" lon="2.33692">
        <ele>142</ele>
        <time>2024-02-28T14:20:33+01:00</time>
      </trkpt>
      <trkpt lat="50.03656" lon="2.33687">
        <ele>142</ele>
        <time>2024-02-28T14:20:37+01:00</time>
      </trkpt>
      <trkpt lat="50.03657" lon="2.33686">
        <ele>142</ele>
        <time>2024-02-28T14:20:38+01:00</time>
      </trkpt>
      <trkpt lat="50.03661" lon="2.33681">
        <ele>142.10059</ele>
        <time>2024-02-28T14:20:42+01:00</time>
      </trkpt>
      <trkpt lat="50.03662" lon="2.3368">
        <ele>142.10059</ele>
        <time>2024-02-28T14:20:43+01:00</time>
      </trkpt>
      <trkpt lat="50.03665" lon="2.33675">
        <ele>142.2002</ele>
        <time>2024-02-28T14:20:47+01:00</time>
      </trkpt>
      <trkpt lat="50.03666" lon="2.33674">
        <ele>142.2002</ele>
        <time>2024-02-28T14:20:48+01:00</time>
      </trkpt>
      <trkpt lat="50.03669" lon="2.33668">
        <ele>142.2998</ele>
        <time>2024-02-28T14:20:52+01:00</time>
      </trkpt>
      <trkpt lat="50.0367" lon="2.33667">
        <ele>142.2998</ele>
        <time>2024-02-28T14:20:53+01:00</time>
      </trkpt>
      <trkpt lat="50.03674" lon="2.33662">
        <ele>142.2998</ele>
        <time>2024-02-28T14:20:57+01:00</time>
      </trkpt>
      <trkpt lat="50.03675" lon="2.3366">
        <ele>142.40039</ele>
        <time>2024-02-28T14:20:58+01:00</time>
      </trkpt>
      <trkpt lat="50.03677" lon="2.33654">
        <ele>142.5</ele>
        <time>2024-02-28T14:21:02+01:00</time>
      </trkpt>
      <trkpt lat="50.03678" lon="2.33653">
        <ele>142.5</ele>
        <time>2024-02-28T14:21:03+01:00</time>
      </trkpt>
      <trkpt lat="50.03682" lon="2.33648">
        <ele>142.60059</ele>
        <time>2024-02-28T14:21:07+01:00</time>
      </trkpt>
      <trkpt lat="50.03682" lon="2.33646">
        <ele>142.60059</ele>
        <time>2024-02-28T14:21:08+01:00</time>
      </trkpt>
      <trkpt lat="50.03685" lon="2.3364">
        <ele>142.60059</ele>
        <time>2024-02-28T14:21:12+01:00</time>
      </trkpt>
      <trkpt lat="50.03686" lon="2.33639">
        <ele>142.7002</ele>
        <time>2024-02-28T14:21:13+01:00</time>
      </trkpt>
      <trkpt lat="50.0369" lon="2.33633">
        <ele>142.7002</ele>
        <time>2024-02-28T14:21:17+01:00</time>
      </trkpt>
      <trkpt lat="50.03691" lon="2.33632">
        <ele>142.7002</ele>
        <time>2024-02-28T14:21:18+01:00</time>
      </trkpt>
      <trkpt lat="50.03694" lon="2.33627">
        <ele>142.90039</ele>
        <time>2024-02-28T14:21:22+01:00</time>
      </trkpt>
      <trkpt lat="50.03694" lon="2.33625">
        <ele>142.90039</ele>
        <time>2024-02-28T14:21:23+01:00</time>
      </trkpt>
      <trkpt lat="50.03698" lon="2.3362">
        <ele>142.90039</ele>
        <time>2024-02-28T14:21:27+01:00</time>
      </trkpt>
      <trkpt lat="50.03698" lon="2.33619">
        <ele>142.90039</ele>
        <time>2024-02-28T14:21:28+01:00</time>
      </trkpt>
      <trkpt lat="50.03701" lon="2.33615">
        <ele>142.90039</ele>
        <time>2024-02-28T14:21:32+01:00</time>
      </trkpt>
      <trkpt lat="50.03702" lon="2.33614">
        <ele>142.90039</ele>
        <time>2024-02-28T14:21:33+01:00</time>
      </trkpt>
      <trkpt lat="50.03705" lon="2.33608">
        <ele>143</ele>
        <time>2024-02-28T14:21:37+01:00</time>
      </trkpt>
      <trkpt lat="50.03706" lon="2.33607">
        <ele>143</ele>
        <time>2024-02-28T14:21:38+01:00</time>
      </trkpt>
      <trkpt lat="50.03709" lon="2.33603">
        <ele>143</ele>
        <time>2024-02-28T14:21:42+01:00</time>
      </trkpt>
      <trkpt lat="50.0371" lon="2.33601">
        <ele>143</ele>
        <time>2024-02-28T14:21:43+01:00</time>
      </trkpt>
      <trkpt lat="50.03713" lon="2.33597">
        <ele>143</ele>
        <time>2024-02-28T14:21:47+01:00</time>
      </trkpt>
      <trkpt lat="50.03714" lon="2.33595">
        <ele>143</ele>
        <time>2024-02-28T14:21:48+01:00</time>
      </trkpt>
      <trkpt lat="50.03717" lon="2.33591">
        <ele>143</ele>
        <time>2024-02-28T14:21:52+01:00</time>
      </trkpt>
      <trkpt lat="50.03717" lon="2.33589">
        <ele>143</ele>
        <time>2024-02-28T14:21:53+01:00</time>
      </trkpt>
      <trkpt lat="50.0372" lon="2.33584">
        <ele>143</ele>
        <time>2024-02-28T14:21:57+01:00</time>
      </trkpt>
      <trkpt lat="50.03721" lon="2.33583">
        <ele>143</ele>
        <time>2024-02-28T14:21:58+01:00</time>
      </trkpt>
      <trkpt lat="50.03724" lon="2.33578">
        <ele>142.90039</ele>
        <time>2024-02-28T14:22:02+01:00</time>
      </trkpt>
      <trkpt lat="50.03724" lon="2.33577">
        <ele>142.90039</ele>
        <time>2024-02-28T14:22:03+01:00</time>
      </trkpt>
      <trkpt lat="50.03728" lon="2.33571">
        <ele>142.90039</ele>
        <time>2024-02-28T14:22:07+01:00</time>
      </trkpt>
      <trkpt lat="50.03729" lon="2.3357">
        <ele>142.90039</ele>
        <time>2024-02-28T14:22:08+01:00</time>
      </trkpt>
      <trkpt lat="50.03732" lon="2.33564">
        <ele>142.90039</ele>
        <time>2024-02-28T14:22:12+01:00</time>
      </trkpt>
      <trkpt lat="50.03733" lon="2.33563">
        <ele>142.90039</ele>
        <time>2024-02-28T14:22:13+01:00</time>
      </trkpt>
      <trkpt lat="50.03736" lon="2.33557">
        <ele>142.7998</ele>
        <time>2024-02-28T14:22:17+01:00</time>
      </trkpt>
      <trkpt lat="50.03737" lon="2.33555">
        <ele>142.7998</ele>
        <time>2024-02-28T14:22:18+01:00</time>
      </trkpt>
      <trkpt lat="50.03739" lon="2.33549">
        <ele>142.7002</ele>
        <time>2024-02-28T14:22:22+01:00</time>
      </trkpt>
      <trkpt lat="50.0374" lon="2.33548">
        <ele>142.7002</ele>
        <time>2024-02-28T14:22:23+01:00</time>
      </trkpt>
      <trkpt lat="50.03743" lon="2.33543">
        <ele>142.60059</ele>
        <time>2024-02-28T14:22:27+01:00</time>
      </trkpt>
      <trkpt lat="50.03744" lon="2.33542">
        <ele>142.60059</ele>
        <time>2024-02-28T14:22:28+01:00</time>
      </trkpt>
      <trkpt lat="50.03747" lon="2.33536">
        <ele>142.5</ele>
        <time>2024-02-28T14:22:32+01:00</time>
      </trkpt>
      <trkpt lat="50.03748" lon="2.33535">
        <ele>142.5</ele>
        <time>2024-02-28T14:22:33+01:00</time>
      </trkpt>
      <trkpt lat="50.03752" lon="2.3353">
        <ele>142.5</ele>
        <time>2024-02-28T14:22:37+01:00</time>
      </trkpt>
      <trkpt lat="50.03752" lon="2.33529">
        <ele>142.5</ele>
        <time>2024-02-28T14:22:38+01:00</time>
      </trkpt>
      <trkpt lat="50.03756" lon="2.33524">
        <ele>142.5</ele>
        <time>2024-02-28T14:22:42+01:00</time>
      </trkpt>
      <trkpt lat="50.03756" lon="2.33522">
        <ele>142.5</ele>
        <time>2024-02-28T14:22:43+01:00</time>
      </trkpt>
      <trkpt lat="50.03759" lon="2.33517">
        <ele>142.40039</ele>
        <time>2024-02-28T14:22:47+01:00</time>
      </trkpt>
      <trkpt lat="50.0376" lon="2.33516">
        <ele>142.40039</ele>
        <time>2024-02-28T14:22:48+01:00</time>
      </trkpt>
      <trkpt lat="50.03763" lon="2.33511">
        <ele>142.40039</ele>
        <time>2024-02-28T14:22:52+01:00</time>
      </trkpt>
      <trkpt lat="50.03764" lon="2.3351">
        <ele>142.2998</ele>
        <time>2024-02-28T14:22:53+01:00</time>
      </trkpt>
      <trkpt lat="50.03767" lon="2.33504">
        <ele>142.2998</ele>
        <time>2024-02-28T14:22:57+01:00</time>
      </trkpt>
      <trkpt lat="50.03768" lon="2.33503">
        <ele>142.2998</ele>
        <time>2024-02-28T14:22:58+01:00</time>
      </trkpt>
      <trkpt lat="50.03771" lon="2.33498">
        <ele>142.2998</ele>
        <time>2024-02-28T14:23:02+01:00</time>
      </trkpt>
      <trkpt lat="50.03772" lon="2.33497">
        <ele>142.2998</ele>
        <time>2024-02-28T14:23:03+01:00</time>
      </trkpt>
      <trkpt lat="50.03775" lon="2.33492">
        <ele>142.2998</ele>
        <time>2024-02-28T14:23:07+01:00</time>
      </trkpt>
      <trkpt lat="50.03776" lon="2.3349">
        <ele>142.2998</ele>
        <time>2024-02-28T14:23:08+01:00</time>
      </trkpt>
      <trkpt lat="50.03779" lon="2.33485">
        <ele>142.2002</ele>
        <time>2024-02-28T14:23:12+01:00</time>
      </trkpt>
      <trkpt lat="50.03779" lon="2.33484">
        <ele>142.2002</ele>
        <time>2024-02-28T14:23:13+01:00</time>
      </trkpt>
      <trkpt lat="50.03783" lon="2.33478">
        <ele>142.2002</ele>
        <time>2024-02-28T14:23:17+01:00</time>
      </trkpt>
      <trkpt lat="50.03784" lon="2.33476">
        <ele>142.10059</ele>
        <time>2024-02-28T14:23:18+01:00</time>
      </trkpt>
      <trkpt lat="50.03787" lon="2.3347">
        <ele>142.2002</ele>
        <time>2024-02-28T14:23:22+01:00</time>
      </trkpt>
      <trkpt lat="50.03788" lon="2.33469">
        <ele>142.2002</ele>
        <time>2024-02-28T14:23:23+01:00</time>
      </trkpt>
      <trkpt lat="50.03791" lon="2.33463">
        <ele>142.2002</ele>
        <time>2024-02-28T14:23:27+01:00</time>
      </trkpt>
      <trkpt lat="50.03791" lon="2.33461">
        <ele>142.2002</ele>
        <time>2024-02-28T14:23:28+01:00</time>
      </trkpt>
      <trkpt lat="50.03795" lon="2.33455">
        <ele>142.10059</ele>
        <time>2024-02-28T14:23:32+01:00</time>
      </trkpt>
      <trkpt lat="50.03796" lon="2.33454">
        <ele>142.10059</ele>
        <time>2024-02-28T14:23:33+01:00</time>
      </trkpt>
      <trkpt lat="50.03799" lon="2.33449">
        <ele>142</ele>
        <time>2024-02-28T14:23:37+01:00</time>
      </trkpt>
      <trkpt lat="50.038" lon="2.33448">
        <ele>142</ele>
        <time>2024-02-28T14:23:38+01:00</time>
      </trkpt>
      <trkpt lat="50.03804" lon="2.33443">
        <ele>142.10059</ele>
        <time>2024-02-28T14:23:42+01:00</time>
      </trkpt>
      <trkpt lat="50.03805" lon="2.33442">
        <ele>142</ele>
        <time>2024-02-28T14:23:43+01:00</time>
      </trkpt>
      <trkpt lat="50.03808" lon="2.33438">
        <ele>142.10059</ele>
        <time>2024-02-28T14:23:47+01:00</time>
      </trkpt>
      <trkpt lat="50.03809" lon="2.33436">
        <ele>142.10059</ele>
        <time>2024-02-28T14:23:48+01:00</time>
      </trkpt>
      <trkpt lat="50.03812" lon="2.33431">
        <ele>142</ele>
        <time>2024-02-28T14:23:52+01:00</time>
      </trkpt>
      <trkpt lat="50.03812" lon="2.3343">
        <ele>142</ele>
        <time>2024-02-28T14:23:53+01:00</time>
      </trkpt>
      <trkpt lat="50.03816" lon="2.33424">
        <ele>142</ele>
        <time>2024-02-28T14:23:57+01:00</time>
      </trkpt>
      <trkpt lat="50.03816" lon="2.33423">
        <ele>142</ele>
        <time>2024-02-28T14:23:58+01:00</time>
      </trkpt>
      <trkpt lat="50.03819" lon="2.33417">
        <ele>142</ele>
        <time>2024-02-28T14:24:02+01:00</time>
      </trkpt>
      <trkpt lat="50.0382" lon="2.33416">
        <ele>141.90039</ele>
        <time>2024-02-28T14:24:03+01:00</time>
      </trkpt>
      <trkpt lat="50.03824" lon="2.33411">
        <ele>142</ele>
        <time>2024-02-28T14:24:07+01:00</time>
      </trkpt>
      <trkpt lat="50.03826" lon="2.3341">
        <ele>142</ele>
        <time>2024-02-28T14:24:08+01:00</time>
      </trkpt>
      <trkpt lat="50.0383" lon="2.3341">
        <ele>142</ele>
        <time>2024-02-28T14:24:12+01:00</time>
      </trkpt>
      <trkpt lat="50.03831" lon="2.3341">
        <ele>142</ele>
        <time>2024-02-28T14:24:13+01:00</time>
      </trkpt>
      <trkpt lat="50.03835" lon="2.33413">
        <ele>142</ele>
        <time>2024-02-28T14:24:17+01:00</time>
      </trkpt>
      <trkpt lat="50.03836" lon="2.33413">
        <ele>142</ele>
        <time>2024-02-28T14:24:18+01:00</time>
      </trkpt>
      <trkpt lat="50.0384" lon="2.33416">
        <ele>142</ele>
        <time>2024-02-28T14:24:22+01:00</time>
      </trkpt>
      <trkpt lat="50.03841" lon="2.33417">
        <ele>142.10059</ele>
        <time>2024-02-28T14:24:23+01:00</time>
      </trkpt>
      <trkpt lat="50.03845" lon="2.3342">
        <ele>142.10059</ele>
        <time>2024-02-28T14:24:27+01:00</time>
      </trkpt>
      <trkpt lat="50.03845" lon="2.33421">
        <ele>142.10059</ele>
        <time>2024-02-28T14:24:28+01:00</time>
      </trkpt>
      <trkpt lat="50.03849" lon="2.33426">
        <ele>142.10059</ele>
        <time>2024-02-28T14:24:32+01:00</time>
      </trkpt>
      <trkpt lat="50.03851" lon="2.33427">
        <ele>142.10059</ele>
        <time>2024-02-28T14:24:33+01:00</time>
      </trkpt>
      <trkpt lat="50.03855" lon="2.33431">
        <ele>142.10059</ele>
        <time>2024-02-28T14:24:37+01:00</time>
      </trkpt>
      <trkpt lat="50.03856" lon="2.33432">
        <ele>142.10059</ele>
        <time>2024-02-28T14:24:38+01:00</time>
      </trkpt>
      <trkpt lat="50.03861" lon="2.33435">
        <ele>142.2002</ele>
        <time>2024-02-28T14:24:42+01:00</time>
      </trkpt>
      <trkpt lat="50.03862" lon="2.33436">
        <ele>142.2002</ele>
        <time>2024-02-28T14:24:43+01:00</time>
      </trkpt>
      <trkpt lat="50.03867" lon="2.33438">
        <ele>142.2002</ele>
        <time>2024-02-28T14:24:47+01:00</time>
      </trkpt>
      <trkpt lat="50.03868" lon="2.33439">
        <ele>142.10059</ele>
        <time>2024-02-28T14:24:48+01:00</time>
      </trkpt>
      <trkpt lat="50.03872" lon="2.33442">
        <ele>142.10059</ele>
        <time>2024-02-28T14:24:52+01:00</time>
      </trkpt>
      <trkpt lat="50.03873" lon="2.33443">
        <ele>142.2002</ele>
        <time>2024-02-28T14:24:53+01:00</time>
      </trkpt>
      <trkpt lat="50.03877" lon="2.33445">
        <ele>142.2002</ele>
        <time>2024-02-28T14:24:57+01:00</time>
      </trkpt>
      <trkpt lat="50.03878" lon="2.33446">
        <ele>142.2002</ele>
        <time>2024-02-28T14:24:58+01:00</time>
      </trkpt>
      <trkpt lat="50.03883" lon="2.33448">
        <ele>142.10059</ele>
        <time>2024-02-28T14:25:02+01:00</time>
      </trkpt>
      <trkpt lat="50.03884" lon="2.33448">
        <ele>142.10059</ele>
        <time>2024-02-28T14:25:03+01:00</time>
      </trkpt>
      <trkpt lat="50.03888" lon="2.3345">
        <ele>142.10059</ele>
        <time>2024-02-28T14:25:07+01:00</time>
      </trkpt>
      <trkpt lat="50.03889" lon="2.3345">
        <ele>142.10059</ele>
        <time>2024-02-28T14:25:08+01:00</time>
      </trkpt>
      <trkpt lat="50.03894" lon="2.33452">
        <ele>142.10059</ele>
        <time>2024-02-28T14:25:12+01:00</time>
      </trkpt>
      <trkpt lat="50.03895" lon="2.33452">
        <ele>142.10059</ele>
        <time>2024-02-28T14:25:13+01:00</time>
      </trkpt>
      <trkpt lat="50.03899" lon="2.33454">
        <ele>142.10059</ele>
        <time>2024-02-28T14:25:17+01:00</time>
      </trkpt>
      <trkpt lat="50.039" lon="2.33454">
        <ele>142.10059</ele>
        <time>2024-02-28T14:25:18+01:00</time>
      </trkpt>
      <trkpt lat="50.03905" lon="2.33456">
        <ele>142</ele>
        <time>2024-02-28T14:25:22+01:00</time>
      </trkpt>
      <trkpt lat="50.03906" lon="2.33456">
        <ele>142</ele>
        <time>2024-02-28T14:25:23+01:00</time>
      </trkpt>
      <trkpt lat="50.0391" lon="2.33458">
        <ele>142</ele>
        <time>2024-02-28T14:25:27+01:00</time>
      </trkpt>
      <trkpt lat="50.03911" lon="2.33459">
        <ele>142</ele>
        <time>2024-02-28T14:25:28+01:00</time>
      </trkpt>
      <trkpt lat="50.03915" lon="2.33459">
        <ele>142</ele>
        <time>2024-02-28T14:25:32+01:00</time>
      </trkpt>
      <trkpt lat="50.03915" lon="2.33459">
        <ele>142</ele>
        <time>2024-02-28T14:25:33+01:00</time>
      </trkpt>
      <trkpt lat="50.0392" lon="2.33459">
        <ele>141.90039</ele>
        <time>2024-02-28T14:25:37+01:00</time>
      </trkpt>
      <trkpt lat="50.03921" lon="2.3346">
        <ele>142</ele>
        <time>2024-02-28T14:25:38+01:00</time>
      </trkpt>
      <trkpt lat="50.03924" lon="2.33461">
        <ele>141.90039</ele>
        <time>2024-02-28T14:25:42+01:00</time>
      </trkpt>
      <trkpt lat="50.03925" lon="2.33461">
        <ele>141.90039</ele>
        <time>2024-02-28T14:25:43+01:00</time>
      </trkpt>
      <trkpt lat="50.03931" lon="2.33463">
        <ele>141.90039</ele>
        <time>2024-02-28T14:25:47+01:00</time>
      </trkpt>
      <trkpt lat="50.03933" lon="2.33464">
        <ele>141.90039</ele>
        <time>2024-02-28T14:25:48+01:00</time>
      </trkpt>
      <trkpt lat="50.03939" lon="2.33466">
        <ele>141.7998</ele>
        <time>2024-02-28T14:25:52+01:00</time>
      </trkpt>
      <trkpt lat="50.0394" lon="2.33466">
        <ele>141.7998</ele>
        <time>2024-02-28T14:25:53+01:00</time>
      </trkpt>
      <trkpt lat="50.03946" lon="2.33468">
        <ele>141.7998</ele>
        <time>2024-02-28T14:25:57+01:00</time>
      </trkpt>
      <trkpt lat="50.03947" lon="2.33468">
        <ele>141.7998</ele>
        <time>2024-02-28T14:25:58+01:00</time>
      </trkpt>
      <trkpt lat="50.03952" lon="2.33468">
        <ele>141.7998</ele>
        <time>2024-02-28T14:26:02+01:00</time>
      </trkpt>
      <trkpt lat="50.03954" lon="2.33468">
        <ele>141.7998</ele>
        <time>2024-02-28T14:26:03+01:00</time>
      </trkpt>
      <trkpt lat="50.03958" lon="2.33468">
        <ele>141.7998</ele>
        <time>2024-02-28T14:26:07+01:00</time>
      </trkpt>
      <trkpt lat="50.03959" lon="2.33468">
        <ele>141.7998</ele>
        <time>2024-02-28T14:26:08+01:00</time>
      </trkpt>
      <trkpt lat="50.03963" lon="2.33465">
        <ele>141.7002</ele>
        <time>2024-02-28T14:26:12+01:00</time>
      </trkpt>
      <trkpt lat="50.03964" lon="2.33463">
        <ele>141.7002</ele>
        <time>2024-02-28T14:26:13+01:00</time>
      </trkpt>
      <trkpt lat="50.03967" lon="2.33458">
        <ele>141.60059</ele>
        <time>2024-02-28T14:26:17+01:00</time>
      </trkpt>
      <trkpt lat="50.03968" lon="2.33457">
        <ele>141.60059</ele>
        <time>2024-02-28T14:26:18+01:00</time>
      </trkpt>
      <trkpt lat="50.0397" lon="2.33451">
        <ele>141.60059</ele>
        <time>2024-02-28T14:26:22+01:00</time>
      </trkpt>
      <trkpt lat="50.03971" lon="2.3345">
        <ele>141.60059</ele>
        <time>2024-02-28T14:26:23+01:00</time>
      </trkpt>
      <trkpt lat="50.03973" lon="2.33444">
        <ele>141.5</ele>
        <time>2024-02-28T14:26:27+01:00</time>
      </trkpt>
      <trkpt lat="50.03973" lon="2.33442">
        <ele>141.5</ele>
        <time>2024-02-28T14:26:28+01:00</time>
      </trkpt>
      <trkpt lat="50.03975" lon="2.33437">
        <ele>141.5</ele>
        <time>2024-02-28T14:26:32+01:00</time>
      </trkpt>
      <trkpt lat="50.03976" lon="2.33436">
        <ele>141.5</ele>
        <time>2024-02-28T14:26:33+01:00</time>
      </trkpt>
      <trkpt lat="50.03978" lon="2.33431">
        <ele>141.2998</ele>
        <time>2024-02-28T14:26:37+01:00</time>
      </trkpt>
      <trkpt lat="50.03978" lon="2.33429">
        <ele>141.2998</ele>
        <time>2024-02-28T14:26:38+01:00</time>
      </trkpt>
      <trkpt lat="50.0398" lon="2.33424">
        <ele>141.2998</ele>
        <time>2024-02-28T14:26:42+01:00</time>
      </trkpt>
      <trkpt lat="50.03981" lon="2.33423">
        <ele>141.2998</ele>
        <time>2024-02-28T14:26:43+01:00</time>
      </trkpt>
      <trkpt lat="50.03982" lon="2.33417">
        <ele>141.2998</ele>
        <time>2024-02-28T14:26:47+01:00</time>
      </trkpt>
      <trkpt lat="50.03983" lon="2.33415">
        <ele>141.2002</ele>
        <time>2024-02-28T14:26:48+01:00</time>
      </trkpt>
      <trkpt lat="50.03984" lon="2.33409">
        <ele>141.2002</ele>
        <time>2024-02-28T14:26:52+01:00</time>
      </trkpt>
      <trkpt lat="50.03985" lon="2.33408">
        <ele>141.10059</ele>
        <time>2024-02-28T14:26:53+01:00</time>
      </trkpt>
      <trkpt lat="50.03987" lon="2.33403">
        <ele>141.10059</ele>
        <time>2024-02-28T14:26:57+01:00</time>
      </trkpt>
      <trkpt lat="50.03988" lon="2.33401">
        <ele>141.10059</ele>
        <time>2024-02-28T14:26:58+01:00</time>
      </trkpt>
      <trkpt lat="50.0399" lon="2.33396">
        <ele>141</ele>
        <time>2024-02-28T14:27:02+01:00</time>
      </trkpt>
      <trkpt lat="50.03991" lon="2.33394">
        <ele>141</ele>
        <time>2024-02-28T14:27:03+01:00</time>
      </trkpt>
      <trkpt lat="50.03993" lon="2.33389">
        <ele>141</ele>
        <time>2024-02-28T14:27:07+01:00</time>
      </trkpt>
      <trkpt lat="50.03994" lon="2.33388">
        <ele>141</ele>
        <time>2024-02-28T14:27:08+01:00</time>
      </trkpt>
      <trkpt lat="50.03998" lon="2.33383">
        <ele>140.90039</ele>
        <time>2024-02-28T14:27:12+01:00</time>
      </trkpt>
      <trkpt lat="50.03999" lon="2.33382">
        <ele>140.90039</ele>
        <time>2024-02-28T14:27:13+01:00</time>
      </trkpt>
      <trkpt lat="50.04002" lon="2.33376">
        <ele>140.90039</ele>
        <time>2024-02-28T14:27:17+01:00</time>
      </trkpt>
      <trkpt lat="50.04002" lon="2.33375">
        <ele>140.90039</ele>
        <time>2024-02-28T14:27:18+01:00</time>
      </trkpt>
      <trkpt lat="50.04005" lon="2.33369">
        <ele>140.7998</ele>
        <time>2024-02-28T14:27:22+01:00</time>
      </trkpt>
      <trkpt lat="50.04006" lon="2.33368">
        <ele>140.7002</ele>
        <time>2024-02-28T14:27:23+01:00</time>
      </trkpt>
      <trkpt lat="50.04009" lon="2.33363">
        <ele>140.7002</ele>
        <time>2024-02-28T14:27:27+01:00</time>
      </trkpt>
      <trkpt lat="50.04009" lon="2.33362">
        <ele>140.7002</ele>
        <time>2024-02-28T14:27:28+01:00</time>
      </trkpt>
      <trkpt lat="50.04012" lon="2.33356">
        <ele>140.60059</ele>
        <time>2024-02-28T14:27:32+01:00</time>
      </trkpt>
      <trkpt lat="50.04013" lon="2.33355">
        <ele>140.60059</ele>
        <time>2024-02-28T14:27:33+01:00</time>
      </trkpt>
      <trkpt lat="50.04016" lon="2.3335">
        <ele>140.5</ele>
        <time>2024-02-28T14:27:37+01:00</time>
      </trkpt>
      <trkpt lat="50.04017" lon="2.33348">
        <ele>140.5</ele>
        <time>2024-02-28T14:27:38+01:00</time>
      </trkpt>
      <trkpt lat="50.0402" lon="2.33343">
        <ele>140.40039</ele>
        <time>2024-02-28T14:27:42+01:00</time>
      </trkpt>
      <trkpt lat="50.04021" lon="2.33341">
        <ele>140.40039</ele>
        <time>2024-02-28T14:27:43+01:00</time>
      </trkpt>
      <trkpt lat="50.04024" lon="2.33334">
        <ele>140.2998</ele>
        <time>2024-02-28T14:27:47+01:00</time>
      </trkpt>
      <trkpt lat="50.04024" lon="2.33332">
        <ele>140.2998</ele>
        <time>2024-02-28T14:27:48+01:00</time>
      </trkpt>
      <trkpt lat="50.04026" lon="2.33326">
        <ele>140.2002</ele>
        <time>2024-02-28T14:27:52+01:00</time>
      </trkpt>
      <trkpt lat="50.04027" lon="2.33324">
        <ele>140.2002</ele>
        <time>2024-02-28T14:27:53+01:00</time>
      </trkpt>
      <trkpt lat="50.0403" lon="2.33318">
        <ele>140</ele>
        <time>2024-02-28T14:27:57+01:00</time>
      </trkpt>
      <trkpt lat="50.0403" lon="2.33317">
        <ele>140</ele>
        <time>2024-02-28T14:27:58+01:00</time>
      </trkpt>
      <trkpt lat="50.04033" lon="2.3331">
        <ele>139.7998</ele>
        <time>2024-02-28T14:28:02+01:00</time>
      </trkpt>
      <trkpt lat="50.04034" lon="2.33309">
        <ele>139.7998</ele>
        <time>2024-02-28T14:28:03+01:00</time>
      </trkpt>
      <trkpt lat="50.04037" lon="2.33302">
        <ele>139.7002</ele>
        <time>2024-02-28T14:28:07+01:00</time>
      </trkpt>
      <trkpt lat="50.04038" lon="2.333">
        <ele>139.7002</ele>
        <time>2024-02-28T14:28:08+01:00</time>
      </trkpt>
      <trkpt lat="50.04041" lon="2.33294">
        <ele>139.5</ele>
        <time>2024-02-28T14:28:12+01:00</time>
      </trkpt>
      <trkpt lat="50.04042" lon="2.33292">
        <ele>139.5</ele>
        <time>2024-02-28T14:28:13+01:00</time>
      </trkpt>
      <trkpt lat="50.04045" lon="2.33287">
        <ele>139.2002</ele>
        <time>2024-02-28T14:28:17+01:00</time>
      </trkpt>
      <trkpt lat="50.04046" lon="2.33285">
        <ele>139.2002</ele>
        <time>2024-02-28T14:28:18+01:00</time>
      </trkpt>
      <trkpt lat="50.04049" lon="2.33279">
        <ele>139.2002</ele>
        <time>2024-02-28T14:28:22+01:00</time>
      </trkpt>
      <trkpt lat="50.0405" lon="2.33278">
        <ele>139</ele>
        <time>2024-02-28T14:28:23+01:00</time>
      </trkpt>
      <trkpt lat="50.04053" lon="2.33272">
        <ele>139</ele>
        <time>2024-02-28T14:28:27+01:00</time>
      </trkpt>
      <trkpt lat="50.04054" lon="2.33271">
        <ele>139</ele>
        <time>2024-02-28T14:28:28+01:00</time>
      </trkpt>
      <trkpt lat="50.04057" lon="2.33266">
        <ele>138.7998</ele>
        <time>2024-02-28T14:28:32+01:00</time>
      </trkpt>
      <trkpt lat="50.04058" lon="2.33264">
        <ele>138.7998</ele>
        <time>2024-02-28T14:28:33+01:00</time>
      </trkpt>
      <trkpt lat="50.0406" lon="2.33257">
        <ele>138.7002</ele>
        <time>2024-02-28T14:28:37+01:00</time>
      </trkpt>
      <trkpt lat="50.04061" lon="2.33256">
        <ele>138.60059</ele>
        <time>2024-02-28T14:28:38+01:00</time>
      </trkpt>
      <trkpt lat="50.04063" lon="2.3325">
        <ele>138.40039</ele>
        <time>2024-02-28T14:28:42+01:00</time>
      </trkpt>
      <trkpt lat="50.04064" lon="2.33248">
        <ele>138.40039</ele>
        <time>2024-02-28T14:28:43+01:00</time>
      </trkpt>
      <trkpt lat="50.04066" lon="2.33241">
        <ele>138.2002</ele>
        <time>2024-02-28T14:28:47+01:00</time>
      </trkpt>
      <trkpt lat="50.04067" lon="2.3324">
        <ele>138.2002</ele>
        <time>2024-02-28T14:28:48+01:00</time>
      </trkpt>
      <trkpt lat="50.04069" lon="2.33233">
        <ele>138.10059</ele>
        <time>2024-02-28T14:28:52+01:00</time>
      </trkpt>
      <trkpt lat="50.04069" lon="2.33232">
        <ele>138.10059</ele>
        <time>2024-02-28T14:28:53+01:00</time>
      </trkpt>
      <trkpt lat="50.04072" lon="2.33226">
        <ele>137.90039</ele>
        <time>2024-02-28T14:28:57+01:00</time>
      </trkpt>
      <trkpt lat="50.04073" lon="2.33225">
        <ele>137.90039</ele>
        <time>2024-02-28T14:28:58+01:00</time>
      </trkpt>
      <trkpt lat="50.04075" lon="2.33219">
        <ele>137.7998</ele>
        <time>2024-02-28T14:29:02+01:00</time>
      </trkpt>
      <trkpt lat="50.04076" lon="2.33217">
        <ele>137.7998</ele>
        <time>2024-02-28T14:29:03+01:00</time>
      </trkpt>
      <trkpt lat="50.04079" lon="2.33211">
        <ele>137.7002</ele>
        <time>2024-02-28T14:29:07+01:00</time>
      </trkpt>
      <trkpt lat="50.0408" lon="2.3321">
        <ele>137.60059</ele>
        <time>2024-02-28T14:29:08+01:00</time>
      </trkpt>
      <trkpt lat="50.04083" lon="2.33205">
        <ele>137.5</ele>
        <time>2024-02-28T14:29:12+01:00</time>
      </trkpt>
      <trkpt lat="50.04084" lon="2.33203">
        <ele>137.5</ele>
        <time>2024-02-28T14:29:13+01:00</time>
      </trkpt>
      <trkpt lat="50.04087" lon="2.33198">
        <ele>137.40039</ele>
        <time>2024-02-28T14:29:17+01:00</time>
      </trkpt>
      <trkpt lat="50.04088" lon="2.33197">
        <ele>137.40039</ele>
        <time>2024-02-28T14:29:18+01:00</time>
      </trkpt>
      <trkpt lat="50.04091" lon="2.33192">
        <ele>137.2002</ele>
        <time>2024-02-28T14:29:22+01:00</time>
      </trkpt>
      <trkpt lat="50.04091" lon="2.3319">
        <ele>137.2002</ele>
        <time>2024-02-28T14:29:23+01:00</time>
      </trkpt>
      <trkpt lat="50.04095" lon="2.33185">
        <ele>137.10059</ele>
        <time>2024-02-28T14:29:27+01:00</time>
      </trkpt>
      <trkpt lat="50.04095" lon="2.33184">
        <ele>137</ele>
        <time>2024-02-28T14:29:28+01:00</time>
      </trkpt>
      <trkpt lat="50.04098" lon="2.33179">
        <ele>137</ele>
        <time>2024-02-28T14:29:32+01:00</time>
      </trkpt>
      <trkpt lat="50.04099" lon="2.33177">
        <ele>137</ele>
        <time>2024-02-28T14:29:33+01:00</time>
      </trkpt>
      <trkpt lat="50.04102" lon="2.33172">
        <ele>136.7998</ele>
        <time>2024-02-28T14:29:37+01:00</time>
      </trkpt>
      <trkpt lat="50.04103" lon="2.3317">
        <ele>136.7998</ele>
        <time>2024-02-28T14:29:38+01:00</time>
      </trkpt>
      <trkpt lat="50.04106" lon="2.33165">
        <ele>136.60059</ele>
        <time>2024-02-28T14:29:42+01:00</time>
      </trkpt>
      <trkpt lat="50.04106" lon="2.33163">
        <ele>136.60059</ele>
        <time>2024-02-28T14:29:43+01:00</time>
      </trkpt>
      <trkpt lat="50.04109" lon="2.33157">
        <ele>136.5</ele>
        <time>2024-02-28T14:29:47+01:00</time>
      </trkpt>
      <trkpt lat="50.04109" lon="2.33156">
        <ele>136.5</ele>
        <time>2024-02-28T14:29:48+01:00</time>
      </trkpt>
      <trkpt lat="50.04112" lon="2.3315">
        <ele>136.2998</ele>
        <time>2024-02-28T14:29:52+01:00</time>
      </trkpt>
      <trkpt lat="50.04112" lon="2.33148">
        <ele>136.2998</ele>
        <time>2024-02-28T14:29:53+01:00</time>
      </trkpt>
      <trkpt lat="50.04114" lon="2.33142">
        <ele>136.10059</ele>
        <time>2024-02-28T14:29:57+01:00</time>
      </trkpt>
      <trkpt lat="50.04115" lon="2.3314">
        <ele>136.10059</ele>
        <time>2024-02-28T14:29:58+01:00</time>
      </trkpt>
      <trkpt lat="50.04117" lon="2.33134">
        <ele>136.10059</ele>
        <time>2024-02-28T14:30:02+01:00</time>
      </trkpt>
      <trkpt lat="50.04118" lon="2.33133">
        <ele>135.90039</ele>
        <time>2024-02-28T14:30:03+01:00</time>
      </trkpt>
      <trkpt lat="50.0412" lon="2.33127">
        <ele>135.90039</ele>
        <time>2024-02-28T14:30:07+01:00</time>
      </trkpt>
      <trkpt lat="50.0412" lon="2.33125">
        <ele>135.90039</ele>
        <time>2024-02-28T14:30:08+01:00</time>
      </trkpt>
      <trkpt lat="50.04123" lon="2.33119">
        <ele>135.7002</ele>
        <time>2024-02-28T14:30:12+01:00</time>
      </trkpt>
      <trkpt lat="50.04123" lon="2.33118">
        <ele>135.7002</ele>
        <time>2024-02-28T14:30:13+01:00</time>
      </trkpt>
      <trkpt lat="50.04125" lon="2.33112">
        <ele>135.60059</ele>
        <time>2024-02-28T14:30:17+01:00</time>
      </trkpt>
      <trkpt lat="50.04126" lon="2.33111">
        <ele>135.60059</ele>
        <time>2024-02-28T14:30:18+01:00</time>
      </trkpt>
      <trkpt lat="50.04129" lon="2.33106">
        <ele>135.40039</ele>
        <time>2024-02-28T14:30:22+01:00</time>
      </trkpt>
      <trkpt lat="50.04129" lon="2.33105">
        <ele>135.40039</ele>
        <time>2024-02-28T14:30:23+01:00</time>
      </trkpt>
      <trkpt lat="50.04132" lon="2.33101">
        <ele>135.40039</ele>
        <time>2024-02-28T14:30:27+01:00</time>
      </trkpt>
      <trkpt lat="50.04132" lon="2.33101">
        <ele>135.40039</ele>
        <time>2024-02-28T14:30:28+01:00</time>
      </trkpt>
      <trkpt lat="50.04135" lon="2.33098">
        <ele>135.2998</ele>
        <time>2024-02-28T14:30:32+01:00</time>
      </trkpt>
      <trkpt lat="50.04135" lon="2.33097">
        <ele>135.2998</ele>
        <time>2024-02-28T14:30:33+01:00</time>
      </trkpt>
      <trkpt lat="50.04138" lon="2.33095">
        <ele>135.2998</ele>
        <time>2024-02-28T14:30:37+01:00</time>
      </trkpt>
      <trkpt lat="50.04139" lon="2.33095">
        <ele>135.2998</ele>
        <time>2024-02-28T14:30:38+01:00</time>
      </trkpt>
      <trkpt lat="50.04141" lon="2.33091">
        <ele>135.2998</ele>
        <time>2024-02-28T14:30:42+01:00</time>
      </trkpt>
      <trkpt lat="50.04142" lon="2.3309">
        <ele>135.10059</ele>
        <time>2024-02-28T14:30:43+01:00</time>
      </trkpt>
      <trkpt lat="50.04144" lon="2.33088">
        <ele>135.10059</ele>
        <time>2024-02-28T14:30:47+01:00</time>
      </trkpt>
      <trkpt lat="50.04145" lon="2.33088">
        <ele>135.10059</ele>
        <time>2024-02-28T14:30:48+01:00</time>
      </trkpt>
      <trkpt lat="50.04149" lon="2.33087">
        <ele>135.10059</ele>
        <time>2024-02-28T14:30:52+01:00</time>
      </trkpt>
      <trkpt lat="50.0415" lon="2.33087">
        <ele>135.10059</ele>
        <time>2024-02-28T14:30:53+01:00</time>
      </trkpt>
      <trkpt lat="50.04155" lon="2.33087">
        <ele>135.10059</ele>
        <time>2024-02-28T14:30:57+01:00</time>
      </trkpt>
      <trkpt lat="50.04156" lon="2.33087">
        <ele>135.10059</ele>
        <time>2024-02-28T14:30:58+01:00</time>
      </trkpt>
      <trkpt lat="50.0416" lon="2.33086">
        <ele>135</ele>
        <time>2024-02-28T14:31:02+01:00</time>
      </trkpt>
      <trkpt lat="50.04161" lon="2.33086">
        <ele>135</ele>
        <time>2024-02-28T14:31:03+01:00</time>
      </trkpt>
      <trkpt lat="50.04164" lon="2.33087">
        <ele>135</ele>
        <time>2024-02-28T14:31:07+01:00</time>
      </trkpt>
      <trkpt lat="50.04165" lon="2.33088">
        <ele>135</ele>
        <time>2024-02-28T14:31:08+01:00</time>
      </trkpt>
      <trkpt lat="50.04168" lon="2.33088">
        <ele>135</ele>
        <time>2024-02-28T14:31:12+01:00</time>
      </trkpt>
      <trkpt lat="50.04169" lon="2.33087">
        <ele>135</ele>
        <time>2024-02-28T14:31:13+01:00</time>
      </trkpt>
      <trkpt lat="50.04173" lon="2.33088">
        <ele>134.90039</ele>
        <time>2024-02-28T14:31:17+01:00</time>
      </trkpt>
      <trkpt lat="50.04174" lon="2.33089">
        <ele>134.90039</ele>
        <time>2024-02-28T14:31:18+01:00</time>
      </trkpt>
      <trkpt lat="50.04178" lon="2.33089">
        <ele>134.90039</ele>
        <time>2024-02-28T14:31:22+01:00</time>
      </trkpt>
      <trkpt lat="50.04179" lon="2.33089">
        <ele>134.90039</ele>
        <time>2024-02-28T14:31:23+01:00</time>
      </trkpt>
      <trkpt lat="50.04184" lon="2.33089">
        <ele>134.7998</ele>
        <time>2024-02-28T14:31:27+01:00</time>
      </trkpt>
      <trkpt lat="50.04185" lon="2.3309">
        <ele>134.7998</ele>
        <time>2024-02-28T14:31:28+01:00</time>
      </trkpt>
      <trkpt lat="50.0419" lon="2.3309">
        <ele>134.7998</ele>
        <time>2024-02-28T14:31:32+01:00</time>
      </trkpt>
      <trkpt lat="50.04191" lon="2.3309">
        <ele>134.7998</ele>
        <time>2024-02-28T14:31:33+01:00</time>
      </trkpt>
      <trkpt lat="50.04196" lon="2.3309">
        <ele>134.7002</ele>
        <time>2024-02-28T14:31:37+01:00</time>
      </trkpt>
      <trkpt lat="50.04197" lon="2.3309">
        <ele>134.7002</ele>
        <time>2024-02-28T14:31:38+01:00</time>
      </trkpt>
      <trkpt lat="50.04202" lon="2.33089">
        <ele>134.7002</ele>
        <time>2024-02-28T14:31:42+01:00</time>
      </trkpt>
      <trkpt lat="50.04203" lon="2.33089">
        <ele>134.7002</ele>
        <time>2024-02-28T14:31:43+01:00</time>
      </trkpt>
      <trkpt lat="50.04208" lon="2.33089">
        <ele>134.60059</ele>
        <time>2024-02-28T14:31:47+01:00</time>
      </trkpt>
      <trkpt lat="50.04209" lon="2.33089">
        <ele>134.60059</ele>
        <time>2024-02-28T14:31:48+01:00</time>
      </trkpt>
      <trkpt lat="50.04215" lon="2.33088">
        <ele>134.5</ele>
        <time>2024-02-28T14:31:52+01:00</time>
      </trkpt>
      <trkpt lat="50.04216" lon="2.33088">
        <ele>134.5</ele>
        <time>2024-02-28T14:31:53+01:00</time>
      </trkpt>
      <trkpt lat="50.04221" lon="2.33089">
        <ele>134.40039</ele>
        <time>2024-02-28T14:31:57+01:00</time>
      </trkpt>
      <trkpt lat="50.04222" lon="2.33089">
        <ele>134.40039</ele>
        <time>2024-02-28T14:31:58+01:00</time>
      </trkpt>
      <trkpt lat="50.04226" lon="2.33089">
        <ele>134.2998</ele>
        <time>2024-02-28T14:32:02+01:00</time>
      </trkpt>
      <trkpt lat="50.04227" lon="2.33089">
        <ele>134.2998</ele>
        <time>2024-02-28T14:32:03+01:00</time>
      </trkpt>
      <trkpt lat="50.04231" lon="2.33088">
        <ele>134.2998</ele>
        <time>2024-02-28T14:32:07+01:00</time>
      </trkpt>
      <trkpt lat="50.04232" lon="2.33088">
        <ele>134.2002</ele>
        <time>2024-02-28T14:32:08+01:00</time>
      </trkpt>
      <trkpt lat="50.04235" lon="2.33087">
        <ele>134.2002</ele>
        <time>2024-02-28T14:32:12+01:00</time>
      </trkpt>
      <trkpt lat="50.04236" lon="2.33087">
        <ele>134.2002</ele>
        <time>2024-02-28T14:32:13+01:00</time>
      </trkpt>
      <trkpt lat="50.04241" lon="2.33085">
        <ele>134.10059</ele>
        <time>2024-02-28T14:32:17+01:00</time>
      </trkpt>
      <trkpt lat="50.04242" lon="2.33085">
        <ele>134.10059</ele>
        <time>2024-02-28T14:32:18+01:00</time>
      </trkpt>
      <trkpt lat="50.04247" lon="2.33084">
        <ele>134.10059</ele>
        <time>2024-02-28T14:32:22+01:00</time>
      </trkpt>
      <trkpt lat="50.04248" lon="2.33084">
        <ele>134</ele>
        <time>2024-02-28T14:32:23+01:00</time>
      </trkpt>
      <trkpt lat="50.04253" lon="2.33084">
        <ele>134</ele>
        <time>2024-02-28T14:32:27+01:00</time>
      </trkpt>
      <trkpt lat="50.04254" lon="2.33083">
        <ele>133.7998</ele>
        <time>2024-02-28T14:32:28+01:00</time>
      </trkpt>
      <trkpt lat="50.04259" lon="2.33082">
        <ele>133.7998</ele>
        <time>2024-02-28T14:32:32+01:00</time>
      </trkpt>
      <trkpt lat="50.0426" lon="2.33082">
        <ele>133.7002</ele>
        <time>2024-02-28T14:32:33+01:00</time>
      </trkpt>
      <trkpt lat="50.04264" lon="2.33081">
        <ele>133.7002</ele>
        <time>2024-02-28T14:32:37+01:00</time>
      </trkpt>
      <trkpt lat="50.04265" lon="2.33081">
        <ele>133.60059</ele>
        <time>2024-02-28T14:32:38+01:00</time>
      </trkpt>
      <trkpt lat="50.04269" lon="2.3308">
        <ele>133.60059</ele>
        <time>2024-02-28T14:32:42+01:00</time>
      </trkpt>
      <trkpt lat="50.0427" lon="2.3308">
        <ele>133.40039</ele>
        <time>2024-02-28T14:32:43+01:00</time>
      </trkpt>
      <trkpt lat="50.04273" lon="2.3308">
        <ele>133.40039</ele>
        <time>2024-02-28T14:32:47+01:00</time>
      </trkpt>
      <trkpt lat="50.04274" lon="2.3308">
        <ele>133.40039</ele>
        <time>2024-02-28T14:32:48+01:00</time>
      </trkpt>
      <trkpt lat="50.04278" lon="2.3308">
        <ele>133.2998</ele>
        <time>2024-02-28T14:32:52+01:00</time>
      </trkpt>
      <trkpt lat="50.04279" lon="2.3308">
        <ele>133.2998</ele>
        <time>2024-02-28T14:32:53+01:00</time>
      </trkpt>
      <trkpt lat="50.04283" lon="2.33079">
        <ele>133.2002</ele>
        <time>2024-02-28T14:32:57+01:00</time>
      </trkpt>
      <trkpt lat="50.04284" lon="2.33079">
        <ele>133.2002</ele>
        <time>2024-02-28T14:32:58+01:00</time>
      </trkpt>
      <trkpt lat="50.04288" lon="2.3308">
        <ele>133</ele>
        <time>2024-02-28T14:33:02+01:00</time>
      </trkpt>
      <trkpt lat="50.04289" lon="2.3308">
        <ele>133</ele>
        <time>2024-02-28T14:33:03+01:00</time>
      </trkpt>
      <trkpt lat="50.04294" lon="2.3308">
        <ele>132.90039</ele>
        <time>2024-02-28T14:33:07+01:00</time>
      </trkpt>
      <trkpt lat="50.04295" lon="2.3308">
        <ele>132.90039</ele>
        <time>2024-02-28T14:33:08+01:00</time>
      </trkpt>
      <trkpt lat="50.043" lon="2.33081">
        <ele>132.7998</ele>
        <time>2024-02-28T14:33:12+01:00</time>
      </trkpt>
      <trkpt lat="50.04301" lon="2.33081">
        <ele>132.7998</ele>
        <time>2024-02-28T14:33:13+01:00</time>
      </trkpt>
      <trkpt lat="50.04305" lon="2.33081">
        <ele>132.60059</ele>
        <time>2024-02-28T14:33:17+01:00</time>
      </trkpt>
      <trkpt lat="50.04306" lon="2.33081">
        <ele>132.60059</ele>
        <time>2024-02-28T14:33:18+01:00</time>
      </trkpt>
      <trkpt lat="50.0431" lon="2.3308">
        <ele>132.5</ele>
        <time>2024-02-28T14:33:22+01:00</time>
      </trkpt>
      <trkpt lat="50.04312" lon="2.3308">
        <ele>132.5</ele>
        <time>2024-02-28T14:33:23+01:00</time>
      </trkpt>
      <trkpt lat="50.04316" lon="2.3308">
        <ele>132.40039</ele>
        <time>2024-02-28T14:33:27+01:00</time>
      </trkpt>
      <trkpt lat="50.04317" lon="2.3308">
        <ele>132.40039</ele>
        <time>2024-02-28T14:33:28+01:00</time>
      </trkpt>
      <trkpt lat="50.04322" lon="2.3308">
        <ele>132.2002</ele>
        <time>2024-02-28T14:33:32+01:00</time>
      </trkpt>
      <trkpt lat="50.04324" lon="2.3308">
        <ele>132.2002</ele>
        <time>2024-02-28T14:33:33+01:00</time>
      </trkpt>
      <trkpt lat="50.04328" lon="2.3308">
        <ele>132.10059</ele>
        <time>2024-02-28T14:33:37+01:00</time>
      </trkpt>
      <trkpt lat="50.04329" lon="2.33079">
        <ele>132.10059</ele>
        <time>2024-02-28T14:33:38+01:00</time>
      </trkpt>
      <trkpt lat="50.04334" lon="2.33078">
        <ele>132</ele>
        <time>2024-02-28T14:33:42+01:00</time>
      </trkpt>
      <trkpt lat="50.04335" lon="2.33078">
        <ele>132</ele>
        <time>2024-02-28T14:33:43+01:00</time>
      </trkpt>
      <trkpt lat="50.04339" lon="2.33077">
        <ele>131.7998</ele>
        <time>2024-02-28T14:33:47+01:00</time>
      </trkpt>
      <trkpt lat="50.04341" lon="2.33077">
        <ele>131.7998</ele>
        <time>2024-02-28T14:33:48+01:00</time>
      </trkpt>
      <trkpt lat="50.04346" lon="2.33076">
        <ele>131.7002</ele>
        <time>2024-02-28T14:33:52+01:00</time>
      </trkpt>
      <trkpt lat="50.04347" lon="2.33076">
        <ele>131.7002</ele>
        <time>2024-02-28T14:33:53+01:00</time>
      </trkpt>
      <trkpt lat="50.04351" lon="2.33075">
        <ele>131.60059</ele>
        <time>2024-02-28T14:33:57+01:00</time>
      </trkpt>
      <trkpt lat="50.04352" lon="2.33075">
        <ele>131.60059</ele>
        <time>2024-02-28T14:33:58+01:00</time>
      </trkpt>
      <trkpt lat="50.04357" lon="2.33075">
        <ele>131.40039</ele>
        <time>2024-02-28T14:34:02+01:00</time>
      </trkpt>
      <trkpt lat="50.04358" lon="2.33075">
        <ele>131.40039</ele>
        <time>2024-02-28T14:34:03+01:00</time>
      </trkpt>
      <trkpt lat="50.04362" lon="2.33075">
        <ele>131.2998</ele>
        <time>2024-02-28T14:34:07+01:00</time>
      </trkpt>
      <trkpt lat="50.04363" lon="2.33075">
        <ele>131.2998</ele>
        <time>2024-02-28T14:34:08+01:00</time>
      </trkpt>
      <trkpt lat="50.04368" lon="2.33074">
        <ele>131.10059</ele>
        <time>2024-02-28T14:34:12+01:00</time>
      </trkpt>
      <trkpt lat="50.04369" lon="2.33074">
        <ele>131.10059</ele>
        <time>2024-02-28T14:34:13+01:00</time>
      </trkpt>
      <trkpt lat="50.04373" lon="2.33073">
        <ele>131</ele>
        <time>2024-02-28T14:34:17+01:00</time>
      </trkpt>
      <trkpt lat="50.04375" lon="2.33073">
        <ele>130.7998</ele>
        <time>2024-02-28T14:34:18+01:00</time>
      </trkpt>
      <trkpt lat="50.04379" lon="2.33072">
        <ele>130.7998</ele>
        <time>2024-02-28T14:34:22+01:00</time>
      </trkpt>
      <trkpt lat="50.0438" lon="2.33072">
        <ele>130.7998</ele>
        <time>2024-02-28T14:34:23+01:00</time>
      </trkpt>
      <trkpt lat="50.04384" lon="2.33071">
        <ele>130.60059</ele>
        <time>2024-02-28T14:34:27+01:00</time>
      </trkpt>
      <trkpt lat="50.04385" lon="2.33071">
        <ele>130.60059</ele>
        <time>2024-02-28T14:34:28+01:00</time>
      </trkpt>
      <trkpt lat="50.0439" lon="2.33071">
        <ele>130.5</ele>
        <time>2024-02-28T14:34:32+01:00</time>
      </trkpt>
      <trkpt lat="50.04391" lon="2.33071">
        <ele>130.5</ele>
        <time>2024-02-28T14:34:33+01:00</time>
      </trkpt>
      <trkpt lat="50.04395" lon="2.33071">
        <ele>130.2998</ele>
        <time>2024-02-28T14:34:37+01:00</time>
      </trkpt>
      <trkpt lat="50.04396" lon="2.3307">
        <ele>130.2998</ele>
        <time>2024-02-28T14:34:38+01:00</time>
      </trkpt>
      <trkpt lat="50.04399" lon="2.3307">
        <ele>130.2002</ele>
        <time>2024-02-28T14:34:42+01:00</time>
      </trkpt>
      <trkpt lat="50.044" lon="2.3307">
        <ele>130.2002</ele>
        <time>2024-02-28T14:34:43+01:00</time>
      </trkpt>
      <trkpt lat="50.04404" lon="2.33069">
        <ele>130</ele>
        <time>2024-02-28T14:34:47+01:00</time>
      </trkpt>
      <trkpt lat="50.04405" lon="2.33069">
        <ele>130</ele>
        <time>2024-02-28T14:34:48+01:00</time>
      </trkpt>
      <trkpt lat="50.04409" lon="2.33069">
        <ele>129.7998</ele>
        <time>2024-02-28T14:34:52+01:00</time>
      </trkpt>
      <trkpt lat="50.0441" lon="2.33069">
        <ele>129.7998</ele>
        <time>2024-02-28T14:34:53+01:00</time>
      </trkpt>
      <trkpt lat="50.04413" lon="2.3307">
        <ele>129.7998</ele>
        <time>2024-02-28T14:34:57+01:00</time>
      </trkpt>
      <trkpt lat="50.04413" lon="2.33071">
        <ele>129.60059</ele>
        <time>2024-02-28T14:34:58+01:00</time>
      </trkpt>
      <trkpt lat="50.04416" lon="2.33071">
        <ele>129.60059</ele>
        <time>2024-02-28T14:35:02+01:00</time>
      </trkpt>
      <trkpt lat="50.04417" lon="2.3307">
        <ele>129.60059</ele>
        <time>2024-02-28T14:35:03+01:00</time>
      </trkpt>
      <trkpt lat="50.04419" lon="2.3307">
        <ele>129.2998</ele>
        <time>2024-02-28T14:35:07+01:00</time>
      </trkpt>
      <trkpt lat="50.0442" lon="2.3307">
        <ele>129.2998</ele>
        <time>2024-02-28T14:35:08+01:00</time>
      </trkpt>
      <trkpt lat="50.04422" lon="2.33072">
        <ele>129.2998</ele>
        <time>2024-02-28T14:35:12+01:00</time>
      </trkpt>
      <trkpt lat="50.04423" lon="2.33073">
        <ele>129.2998</ele>
        <time>2024-02-28T14:35:13+01:00</time>
      </trkpt>
      <trkpt lat="50.04423" lon="2.33077">
        <ele>129.5</ele>
        <time>2024-02-28T14:35:17+01:00</time>
      </trkpt>
      <trkpt lat="50.04423" lon="2.33078">
        <ele>129.5</ele>
        <time>2024-02-28T14:35:18+01:00</time>
      </trkpt>
      <trkpt lat="50.04422" lon="2.33081">
        <ele>129.5</ele>
        <time>2024-02-28T14:35:22+01:00</time>
      </trkpt>
      <trkpt lat="50.04422" lon="2.33081">
        <ele>129.5</ele>
        <time>2024-02-28T14:35:23+01:00</time>
      </trkpt>
      <trkpt lat="50.04421" lon="2.33082">
        <ele>129.60059</ele>
        <time>2024-02-28T14:35:27+01:00</time>
      </trkpt>
      <trkpt lat="50.04421" lon="2.33083">
        <ele>129.60059</ele>
        <time>2024-02-28T14:35:28+01:00</time>
      </trkpt>
      <trkpt lat="50.04421" lon="2.33083">
        <ele>129.60059</ele>
        <time>2024-02-28T14:35:32+01:00</time>
      </trkpt>
      <trkpt lat="50.04423" lon="2.33091">
        <ele>129.7002</ele>
        <time>2024-02-28T14:35:33+01:00</time>
      </trkpt>
      <trkpt lat="50.04424" lon="2.33097">
        <ele>129.7002</ele>
        <time>2024-02-28T14:35:37+01:00</time>
      </trkpt>
      <trkpt lat="50.04424" lon="2.33098">
        <ele>129.5</ele>
        <time>2024-02-28T14:35:38+01:00</time>
      </trkpt>
      <trkpt lat="50.04425" lon="2.33104">
        <ele>129.60059</ele>
        <time>2024-02-28T14:35:42+01:00</time>
      </trkpt>
      <trkpt lat="50.04425" lon="2.33106">
        <ele>129.60059</ele>
        <time>2024-02-28T14:35:43+01:00</time>
      </trkpt>
      <trkpt lat="50.04425" lon="2.33112">
        <ele>129.7002</ele>
        <time>2024-02-28T14:35:47+01:00</time>
      </trkpt>
      <trkpt lat="50.04425" lon="2.33113">
        <ele>129.7002</ele>
        <time>2024-02-28T14:35:48+01:00</time>
      </trkpt>
      <trkpt lat="50.04425" lon="2.3312">
        <ele>129.7998</ele>
        <time>2024-02-28T14:35:52+01:00</time>
      </trkpt>
      <trkpt lat="50.04425" lon="2.33122">
        <ele>129.7998</ele>
        <time>2024-02-28T14:35:53+01:00</time>
      </trkpt>
      <trkpt lat="50.04426" lon="2.3313">
        <ele>130</ele>
        <time>2024-02-28T14:35:58+01:00</time>
      </trkpt>
      <trkpt lat="50.04427" lon="2.33132">
        <ele>130</ele>
        <time>2024-02-28T14:35:59+01:00</time>
      </trkpt>
      <trkpt lat="50.04427" lon="2.33139">
        <ele>130.10059</ele>
        <time>2024-02-28T14:36:03+01:00</time>
      </trkpt>
      <trkpt lat="50.04427" lon="2.33141">
        <ele>130.10059</ele>
        <time>2024-02-28T14:36:04+01:00</time>
      </trkpt>
      <trkpt lat="50.04427" lon="2.33147">
        <ele>130.2002</ele>
        <time>2024-02-28T14:36:08+01:00</time>
      </trkpt>
      <trkpt lat="50.04427" lon="2.33149">
        <ele>130.2002</ele>
        <time>2024-02-28T14:36:09+01:00</time>
      </trkpt>
      <trkpt lat="50.04427" lon="2.33156">
        <ele>130.2998</ele>
        <time>2024-02-28T14:36:13+01:00</time>
      </trkpt>
      <trkpt lat="50.04427" lon="2.33157">
        <ele>130.2998</ele>
        <time>2024-02-28T14:36:14+01:00</time>
      </trkpt>
      <trkpt lat="50.04427" lon="2.33164">
        <ele>130.2998</ele>
        <time>2024-02-28T14:36:18+01:00</time>
      </trkpt>
      <trkpt lat="50.04427" lon="2.33165">
        <ele>130.2998</ele>
        <time>2024-02-28T14:36:19+01:00</time>
      </trkpt>
      <trkpt lat="50.04427" lon="2.33172">
        <ele>130.40039</ele>
        <time>2024-02-28T14:36:23+01:00</time>
      </trkpt>
      <trkpt lat="50.04427" lon="2.33173">
        <ele>130.40039</ele>
        <time>2024-02-28T14:36:24+01:00</time>
      </trkpt>
      <trkpt lat="50.04429" lon="2.33179">
        <ele>130.40039</ele>
        <time>2024-02-28T14:36:28+01:00</time>
      </trkpt>
      <trkpt lat="50.04429" lon="2.33181">
        <ele>130.40039</ele>
        <time>2024-02-28T14:36:29+01:00</time>
      </trkpt>
      <trkpt lat="50.0443" lon="2.33187">
        <ele>130.2998</ele>
        <time>2024-02-28T14:36:33+01:00</time>
      </trkpt>
      <trkpt lat="50.0443" lon="2.33189">
        <ele>130.2998</ele>
        <time>2024-02-28T14:36:34+01:00</time>
      </trkpt>
      <trkpt lat="50.04431" lon="2.33194">
        <ele>130.2998</ele>
        <time>2024-02-28T14:36:38+01:00</time>
      </trkpt>
      <trkpt lat="50.04431" lon="2.33196">
        <ele>130.2998</ele>
        <time>2024-02-28T14:36:39+01:00</time>
      </trkpt>
      <trkpt lat="50.04431" lon="2.33202">
        <ele>130.2998</ele>
        <time>2024-02-28T14:36:43+01:00</time>
      </trkpt>
      <trkpt lat="50.04431" lon="2.33203">
        <ele>130.2998</ele>
        <time>2024-02-28T14:36:44+01:00</time>
      </trkpt>
      <trkpt lat="50.04431" lon="2.33209">
        <ele>130.2998</ele>
        <time>2024-02-28T14:36:48+01:00</time>
      </trkpt>
      <trkpt lat="50.04431" lon="2.33211">
        <ele>130.2998</ele>
        <time>2024-02-28T14:36:49+01:00</time>
      </trkpt>
      <trkpt lat="50.04431" lon="2.33217">
        <ele>130.2998</ele>
        <time>2024-02-28T14:36:53+01:00</time>
      </trkpt>
      <trkpt lat="50.04431" lon="2.33219">
        <ele>130.2998</ele>
        <time>2024-02-28T14:36:54+01:00</time>
      </trkpt>
      <trkpt lat="50.0443" lon="2.33226">
        <ele>130.2998</ele>
        <time>2024-02-28T14:36:58+01:00</time>
      </trkpt>
      <trkpt lat="50.0443" lon="2.33228">
        <ele>130.2002</ele>
        <time>2024-02-28T14:36:59+01:00</time>
      </trkpt>
      <trkpt lat="50.0443" lon="2.33235">
        <ele>130.2002</ele>
        <time>2024-02-28T14:37:03+01:00</time>
      </trkpt>
      <trkpt lat="50.0443" lon="2.33237">
        <ele>130.2002</ele>
        <time>2024-02-28T14:37:04+01:00</time>
      </trkpt>
      <trkpt lat="50.0443" lon="2.33244">
        <ele>130.2002</ele>
        <time>2024-02-28T14:37:08+01:00</time>
      </trkpt>
      <trkpt lat="50.0443" lon="2.33246">
        <ele>130.2002</ele>
        <time>2024-02-28T14:37:09+01:00</time>
      </trkpt>
      <trkpt lat="50.0443" lon="2.33252">
        <ele>130.2002</ele>
        <time>2024-02-28T14:37:13+01:00</time>
      </trkpt>
      <trkpt lat="50.0443" lon="2.33254">
        <ele>130.2002</ele>
        <time>2024-02-28T14:37:14+01:00</time>
      </trkpt>
      <trkpt lat="50.04431" lon="2.33261">
        <ele>130.2002</ele>
        <time>2024-02-28T14:37:18+01:00</time>
      </trkpt>
      <trkpt lat="50.04432" lon="2.33262">
        <ele>130.2002</ele>
        <time>2024-02-28T14:37:19+01:00</time>
      </trkpt>
      <trkpt lat="50.04432" lon="2.33268">
        <ele>130.2002</ele>
        <time>2024-02-28T14:37:23+01:00</time>
      </trkpt>
      <trkpt lat="50.04432" lon="2.33269">
        <ele>130.2002</ele>
        <time>2024-02-28T14:37:24+01:00</time>
      </trkpt>
      <trkpt lat="50.04431" lon="2.33275">
        <ele>130.2002</ele>
        <time>2024-02-28T14:37:28+01:00</time>
      </trkpt>
      <trkpt lat="50.04431" lon="2.33276">
        <ele>130.2002</ele>
        <time>2024-02-28T14:37:29+01:00</time>
      </trkpt>
      <trkpt lat="50.04431" lon="2.33281">
        <ele>130.10059</ele>
        <time>2024-02-28T14:37:33+01:00</time>
      </trkpt>
      <trkpt lat="50.04431" lon="2.33283">
        <ele>130.10059</ele>
        <time>2024-02-28T14:37:34+01:00</time>
      </trkpt>
      <trkpt lat="50.04431" lon="2.33288">
        <ele>130.10059</ele>
        <time>2024-02-28T14:37:38+01:00</time>
      </trkpt>
      <trkpt lat="50.04431" lon="2.3329">
        <ele>130.10059</ele>
        <time>2024-02-28T14:37:39+01:00</time>
      </trkpt>
      <trkpt lat="50.04431" lon="2.33296">
        <ele>130.10059</ele>
        <time>2024-02-28T14:37:43+01:00</time>
      </trkpt>
      <trkpt lat="50.04431" lon="2.33297">
        <ele>130.10059</ele>
        <time>2024-02-28T14:37:44+01:00</time>
      </trkpt>
      <trkpt lat="50.04431" lon="2.33303">
        <ele>130.10059</ele>
        <time>2024-02-28T14:37:48+01:00</time>
      </trkpt>
      <trkpt lat="50.04431" lon="2.33305">
        <ele>130.10059</ele>
        <time>2024-02-28T14:37:49+01:00</time>
      </trkpt>
      <trkpt lat="50.04431" lon="2.33311">
        <ele>130.10059</ele>
        <time>2024-02-28T14:37:53+01:00</time>
      </trkpt>
      <trkpt lat="50.04431" lon="2.33313">
        <ele>130.10059</ele>
        <time>2024-02-28T14:37:54+01:00</time>
      </trkpt>
      <trkpt lat="50.04431" lon="2.33319">
        <ele>130</ele>
        <time>2024-02-28T14:37:58+01:00</time>
      </trkpt>
      <trkpt lat="50.04431" lon="2.33321">
        <ele>130</ele>
        <time>2024-02-28T14:37:59+01:00</time>
      </trkpt>
      <trkpt lat="50.04431" lon="2.33327">
        <ele>130</ele>
        <time>2024-02-28T14:38:03+01:00</time>
      </trkpt>
      <trkpt lat="50.04432" lon="2.33328">
        <ele>130</ele>
        <time>2024-02-28T14:38:04+01:00</time>
      </trkpt>
      <trkpt lat="50.04432" lon="2.33334">
        <ele>130</ele>
        <time>2024-02-28T14:38:08+01:00</time>
      </trkpt>
      <trkpt lat="50.04433" lon="2.33336">
        <ele>130</ele>
        <time>2024-02-28T14:38:09+01:00</time>
      </trkpt>
      <trkpt lat="50.04433" lon="2.33342">
        <ele>130</ele>
        <time>2024-02-28T14:38:13+01:00</time>
      </trkpt>
      <trkpt lat="50.04433" lon="2.33344">
        <ele>130</ele>
        <time>2024-02-28T14:38:14+01:00</time>
      </trkpt>
      <trkpt lat="50.04433" lon="2.3335">
        <ele>130</ele>
        <time>2024-02-28T14:38:18+01:00</time>
      </trkpt>
      <trkpt lat="50.04433" lon="2.33352">
        <ele>130</ele>
        <time>2024-02-28T14:38:19+01:00</time>
      </trkpt>
      <trkpt lat="50.04433" lon="2.33359">
        <ele>130</ele>
        <time>2024-02-28T14:38:23+01:00</time>
      </trkpt>
      <trkpt lat="50.04434" lon="2.3336">
        <ele>130</ele>
        <time>2024-02-28T14:38:24+01:00</time>
      </trkpt>
      <trkpt lat="50.04434" lon="2.33366">
        <ele>130</ele>
        <time>2024-02-28T14:38:28+01:00</time>
      </trkpt>
      <trkpt lat="50.04434" lon="2.33368">
        <ele>130</ele>
        <time>2024-02-28T14:38:29+01:00</time>
      </trkpt>
      <trkpt lat="50.04434" lon="2.33374">
        <ele>130</ele>
        <time>2024-02-28T14:38:33+01:00</time>
      </trkpt>
      <trkpt lat="50.04434" lon="2.33375">
        <ele>130</ele>
        <time>2024-02-28T14:38:34+01:00</time>
      </trkpt>
      <trkpt lat="50.04435" lon="2.33382">
        <ele>130</ele>
        <time>2024-02-28T14:38:38+01:00</time>
      </trkpt>
      <trkpt lat="50.04435" lon="2.33384">
        <ele>130</ele>
        <time>2024-02-28T14:38:39+01:00</time>
      </trkpt>
      <trkpt lat="50.04435" lon="2.3339">
        <ele>130</ele>
        <time>2024-02-28T14:38:43+01:00</time>
      </trkpt>
      <trkpt lat="50.04435" lon="2.33392">
        <ele>130</ele>
        <time>2024-02-28T14:38:44+01:00</time>
      </trkpt>
      <trkpt lat="50.04435" lon="2.33398">
        <ele>130</ele>
        <time>2024-02-28T14:38:48+01:00</time>
      </trkpt>
      <trkpt lat="50.04435" lon="2.334">
        <ele>130</ele>
        <time>2024-02-28T14:38:49+01:00</time>
      </trkpt>
      <trkpt lat="50.04434" lon="2.33406">
        <ele>130</ele>
        <time>2024-02-28T14:38:53+01:00</time>
      </trkpt>
      <trkpt lat="50.04434" lon="2.33408">
        <ele>130</ele>
        <time>2024-02-28T14:38:54+01:00</time>
      </trkpt>
      <trkpt lat="50.04434" lon="2.33414">
        <ele>130.10059</ele>
        <time>2024-02-28T14:38:58+01:00</time>
      </trkpt>
      <trkpt lat="50.04434" lon="2.33416">
        <ele>130.10059</ele>
        <time>2024-02-28T14:38:59+01:00</time>
      </trkpt>
      <trkpt lat="50.04434" lon="2.33422">
        <ele>130.10059</ele>
        <time>2024-02-28T14:39:03+01:00</time>
      </trkpt>
      <trkpt lat="50.04434" lon="2.33424">
        <ele>130.10059</ele>
        <time>2024-02-28T14:39:04+01:00</time>
      </trkpt>
      <trkpt lat="50.04434" lon="2.3343">
        <ele>130.2002</ele>
        <time>2024-02-28T14:39:08+01:00</time>
      </trkpt>
      <trkpt lat="50.04434" lon="2.33432">
        <ele>130.2002</ele>
        <time>2024-02-28T14:39:09+01:00</time>
      </trkpt>
      <trkpt lat="50.04434" lon="2.33438">
        <ele>130.2998</ele>
        <time>2024-02-28T14:39:13+01:00</time>
      </trkpt>
      <trkpt lat="50.04434" lon="2.3344">
        <ele>130.2998</ele>
        <time>2024-02-28T14:39:14+01:00</time>
      </trkpt>
      <trkpt lat="50.04434" lon="2.33447">
        <ele>130.40039</ele>
        <time>2024-02-28T14:39:18+01:00</time>
      </trkpt>
      <trkpt lat="50.04434" lon="2.33448">
        <ele>130.40039</ele>
        <time>2024-02-28T14:39:19+01:00</time>
      </trkpt>
      <trkpt lat="50.04434" lon="2.33455">
        <ele>130.5</ele>
        <time>2024-02-28T14:39:23+01:00</time>
      </trkpt>
      <trkpt lat="50.04434" lon="2.33457">
        <ele>130.5</ele>
        <time>2024-02-28T14:39:24+01:00</time>
      </trkpt>
      <trkpt lat="50.04435" lon="2.33464">
        <ele>130.60059</ele>
        <time>2024-02-28T14:39:28+01:00</time>
      </trkpt>
      <trkpt lat="50.04435" lon="2.33466">
        <ele>130.60059</ele>
        <time>2024-02-28T14:39:29+01:00</time>
      </trkpt>
      <trkpt lat="50.04436" lon="2.33472">
        <ele>130.40039</ele>
        <time>2024-02-28T14:39:33+01:00</time>
      </trkpt>
      <trkpt lat="50.04436" lon="2.33474">
        <ele>130.40039</ele>
        <time>2024-02-28T14:39:34+01:00</time>
      </trkpt>
      <trkpt lat="50.04436" lon="2.33481">
        <ele>130.5</ele>
        <time>2024-02-28T14:39:38+01:00</time>
      </trkpt>
      <trkpt lat="50.04436" lon="2.33483">
        <ele>130.5</ele>
        <time>2024-02-28T14:39:39+01:00</time>
      </trkpt>
      <trkpt lat="50.04436" lon="2.3349">
        <ele>130.60059</ele>
        <time>2024-02-28T14:39:43+01:00</time>
      </trkpt>
      <trkpt lat="50.04436" lon="2.33491">
        <ele>130.60059</ele>
        <time>2024-02-28T14:39:44+01:00</time>
      </trkpt>
      <trkpt lat="50.04436" lon="2.33498">
        <ele>130.7002</ele>
        <time>2024-02-28T14:39:48+01:00</time>
      </trkpt>
      <trkpt lat="50.04436" lon="2.33499">
        <ele>130.7002</ele>
        <time>2024-02-28T14:39:49+01:00</time>
      </trkpt>
      <trkpt lat="50.04436" lon="2.33506">
        <ele>130.7002</ele>
        <time>2024-02-28T14:39:53+01:00</time>
      </trkpt>
      <trkpt lat="50.04436" lon="2.33507">
        <ele>130.7002</ele>
        <time>2024-02-28T14:39:54+01:00</time>
      </trkpt>
      <trkpt lat="50.04437" lon="2.33514">
        <ele>130.7998</ele>
        <time>2024-02-28T14:39:58+01:00</time>
      </trkpt>
      <trkpt lat="50.04437" lon="2.33515">
        <ele>130.7998</ele>
        <time>2024-02-28T14:39:59+01:00</time>
      </trkpt>
      <trkpt lat="50.04437" lon="2.33521">
        <ele>130.7998</ele>
        <time>2024-02-28T14:40:03+01:00</time>
      </trkpt>
      <trkpt lat="50.04437" lon="2.33523">
        <ele>130.7998</ele>
        <time>2024-02-28T14:40:04+01:00</time>
      </trkpt>
      <trkpt lat="50.04436" lon="2.33529">
        <ele>130.90039</ele>
        <time>2024-02-28T14:40:08+01:00</time>
      </trkpt>
      <trkpt lat="50.04436" lon="2.33531">
        <ele>130.90039</ele>
        <time>2024-02-28T14:40:09+01:00</time>
      </trkpt>
      <trkpt lat="50.04437" lon="2.33538">
        <ele>130.90039</ele>
        <time>2024-02-28T14:40:13+01:00</time>
      </trkpt>
      <trkpt lat="50.04437" lon="2.3354">
        <ele>130.90039</ele>
        <time>2024-02-28T14:40:14+01:00</time>
      </trkpt>
      <trkpt lat="50.04437" lon="2.33548">
        <ele>130.90039</ele>
        <time>2024-02-28T14:40:18+01:00</time>
      </trkpt>
      <trkpt lat="50.04437" lon="2.33549">
        <ele>130.90039</ele>
        <time>2024-02-28T14:40:19+01:00</time>
      </trkpt>
      <trkpt lat="50.04438" lon="2.33556">
        <ele>131</ele>
        <time>2024-02-28T14:40:23+01:00</time>
      </trkpt>
      <trkpt lat="50.04438" lon="2.33558">
        <ele>131</ele>
        <time>2024-02-28T14:40:24+01:00</time>
      </trkpt>
      <trkpt lat="50.04438" lon="2.33564">
        <ele>131</ele>
        <time>2024-02-28T14:40:28+01:00</time>
      </trkpt>
      <trkpt lat="50.04438" lon="2.33566">
        <ele>131</ele>
        <time>2024-02-28T14:40:29+01:00</time>
      </trkpt>
      <trkpt lat="50.04438" lon="2.33572">
        <ele>131.10059</ele>
        <time>2024-02-28T14:40:33+01:00</time>
      </trkpt>
      <trkpt lat="50.04438" lon="2.33574">
        <ele>131.10059</ele>
        <time>2024-02-28T14:40:34+01:00</time>
      </trkpt>
      <trkpt lat="50.04437" lon="2.33581">
        <ele>131.10059</ele>
        <time>2024-02-28T14:40:38+01:00</time>
      </trkpt>
      <trkpt lat="50.04437" lon="2.33582">
        <ele>131.10059</ele>
        <time>2024-02-28T14:40:39+01:00</time>
      </trkpt>
      <trkpt lat="50.04437" lon="2.33589">
        <ele>131.2002</ele>
        <time>2024-02-28T14:40:43+01:00</time>
      </trkpt>
      <trkpt lat="50.04437" lon="2.33591">
        <ele>131.2002</ele>
        <time>2024-02-28T14:40:44+01:00</time>
      </trkpt>
      <trkpt lat="50.04437" lon="2.33597">
        <ele>131.2002</ele>
        <time>2024-02-28T14:40:48+01:00</time>
      </trkpt>
      <trkpt lat="50.04437" lon="2.33599">
        <ele>131.2002</ele>
        <time>2024-02-28T14:40:49+01:00</time>
      </trkpt>
      <trkpt lat="50.04437" lon="2.33604">
        <ele>131.2002</ele>
        <time>2024-02-28T14:40:53+01:00</time>
      </trkpt>
      <trkpt lat="50.04437" lon="2.33606">
        <ele>131.2998</ele>
        <time>2024-02-28T14:40:54+01:00</time>
      </trkpt>
      <trkpt lat="50.04437" lon="2.33611">
        <ele>131.2998</ele>
        <time>2024-02-28T14:40:58+01:00</time>
      </trkpt>
      <trkpt lat="50.04437" lon="2.33613">
        <ele>131.2998</ele>
        <time>2024-02-28T14:40:59+01:00</time>
      </trkpt>
      <trkpt lat="50.04438" lon="2.33617">
        <ele>131.2998</ele>
        <time>2024-02-28T14:41:03+01:00</time>
      </trkpt>
      <trkpt lat="50.04438" lon="2.33618">
        <ele>131.2998</ele>
        <time>2024-02-28T14:41:04+01:00</time>
      </trkpt>
      <trkpt lat="50.04439" lon="2.33622">
        <ele>131.2998</ele>
        <time>2024-02-28T14:41:08+01:00</time>
      </trkpt>
      <trkpt lat="50.04439" lon="2.33623">
        <ele>131.40039</ele>
        <time>2024-02-28T14:41:09+01:00</time>
      </trkpt>
      <trkpt lat="50.04439" lon="2.33626">
        <ele>131.40039</ele>
        <time>2024-02-28T14:41:13+01:00</time>
      </trkpt>
      <trkpt lat="50.04439" lon="2.33627">
        <ele>131.40039</ele>
        <time>2024-02-28T14:41:14+01:00</time>
      </trkpt>
      <trkpt lat="50.0444" lon="2.33629">
        <ele>131.40039</ele>
        <time>2024-02-28T14:41:18+01:00</time>
      </trkpt>
      <trkpt lat="50.0444" lon="2.33629">
        <ele>131.40039</ele>
        <time>2024-02-28T14:41:19+01:00</time>
      </trkpt>
      <trkpt lat="50.0444" lon="2.3363">
        <ele>131.40039</ele>
        <time>2024-02-28T14:41:23+01:00</time>
      </trkpt>
      <trkpt lat="50.04441" lon="2.33619">
        <ele>131.2998</ele>
        <time>2024-02-28T14:41:24+01:00</time>
      </trkpt>
      <trkpt lat="50.04443" lon="2.33618">
        <ele>131.2002</ele>
        <time>2024-02-28T14:41:28+01:00</time>
      </trkpt>
      <trkpt lat="50.04444" lon="2.33617">
        <ele>131.2002</ele>
        <time>2024-02-28T14:41:29+01:00</time>
      </trkpt>
      <trkpt lat="50.04448" lon="2.33618">
        <ele>131.10059</ele>
        <time>2024-02-28T14:41:33+01:00</time>
      </trkpt>
      <trkpt lat="50.04448" lon="2.33619">
        <ele>131.10059</ele>
        <time>2024-02-28T14:41:34+01:00</time>
      </trkpt>
      <trkpt lat="50.04452" lon="2.33621">
        <ele>130.90039</ele>
        <time>2024-02-28T14:41:38+01:00</time>
      </trkpt>
      <trkpt lat="50.04453" lon="2.33621">
        <ele>130.90039</ele>
        <time>2024-02-28T14:41:39+01:00</time>
      </trkpt>
      <trkpt lat="50.04457" lon="2.33625">
        <ele>131</ele>
        <time>2024-02-28T14:41:43+01:00</time>
      </trkpt>
      <trkpt lat="50.04459" lon="2.33627">
        <ele>130.90039</ele>
        <time>2024-02-28T14:41:44+01:00</time>
      </trkpt>
      <trkpt lat="50.04464" lon="2.33632">
        <ele>130.90039</ele>
        <time>2024-02-28T14:41:48+01:00</time>
      </trkpt>
      <trkpt lat="50.04465" lon="2.33633">
        <ele>130.90039</ele>
        <time>2024-02-28T14:41:49+01:00</time>
      </trkpt>
      <trkpt lat="50.04471" lon="2.33635">
        <ele>130.7998</ele>
        <time>2024-02-28T14:41:53+01:00</time>
      </trkpt>
      <trkpt lat="50.04472" lon="2.33636">
        <ele>130.7998</ele>
        <time>2024-02-28T14:41:54+01:00</time>
      </trkpt>
      <trkpt lat="50.04477" lon="2.33636">
        <ele>130.7002</ele>
        <time>2024-02-28T14:41:58+01:00</time>
      </trkpt>
      <trkpt lat="50.04478" lon="2.33636">
        <ele>130.7002</ele>
        <time>2024-02-28T14:41:59+01:00</time>
      </trkpt>
      <trkpt lat="50.04483" lon="2.33636">
        <ele>130.60059</ele>
        <time>2024-02-28T14:42:03+01:00</time>
      </trkpt>
      <trkpt lat="50.04485" lon="2.33636">
        <ele>130.60059</ele>
        <time>2024-02-28T14:42:04+01:00</time>
      </trkpt>
      <trkpt lat="50.04489" lon="2.33637">
        <ele>130.5</ele>
        <time>2024-02-28T14:42:08+01:00</time>
      </trkpt>
      <trkpt lat="50.04491" lon="2.33637">
        <ele>130.40039</ele>
        <time>2024-02-28T14:42:09+01:00</time>
      </trkpt>
      <trkpt lat="50.04495" lon="2.33637">
        <ele>130.40039</ele>
        <time>2024-02-28T14:42:13+01:00</time>
      </trkpt>
      <trkpt lat="50.04496" lon="2.33637">
        <ele>130.40039</ele>
        <time>2024-02-28T14:42:14+01:00</time>
      </trkpt>
      <trkpt lat="50.04501" lon="2.33636">
        <ele>130.40039</ele>
        <time>2024-02-28T14:42:18+01:00</time>
      </trkpt>
      <trkpt lat="50.04502" lon="2.33636">
        <ele>130.2998</ele>
        <time>2024-02-28T14:42:19+01:00</time>
      </trkpt>
      <trkpt lat="50.04505" lon="2.33636">
        <ele>130.2998</ele>
        <time>2024-02-28T14:42:23+01:00</time>
      </trkpt>
      <trkpt lat="50.04506" lon="2.33636">
        <ele>130.2998</ele>
        <time>2024-02-28T14:42:24+01:00</time>
      </trkpt>
      <trkpt lat="50.04511" lon="2.33638">
        <ele>130.2002</ele>
        <time>2024-02-28T14:42:28+01:00</time>
      </trkpt>
      <trkpt lat="50.04512" lon="2.33638">
        <ele>130.2002</ele>
        <time>2024-02-28T14:42:29+01:00</time>
      </trkpt>
      <trkpt lat="50.04516" lon="2.33639">
        <ele>130.10059</ele>
        <time>2024-02-28T14:42:33+01:00</time>
      </trkpt>
      <trkpt lat="50.04517" lon="2.33639">
        <ele>130.10059</ele>
        <time>2024-02-28T14:42:34+01:00</time>
      </trkpt>
      <trkpt lat="50.04522" lon="2.33638">
        <ele>130</ele>
        <time>2024-02-28T14:42:38+01:00</time>
      </trkpt>
      <trkpt lat="50.04523" lon="2.33638">
        <ele>130</ele>
        <time>2024-02-28T14:42:39+01:00</time>
      </trkpt>
      <trkpt lat="50.04526" lon="2.33638">
        <ele>130</ele>
        <time>2024-02-28T14:42:43+01:00</time>
      </trkpt>
      <trkpt lat="50.04527" lon="2.33638">
        <ele>130</ele>
        <time>2024-02-28T14:42:44+01:00</time>
      </trkpt>
      <trkpt lat="50.04532" lon="2.33637">
        <ele>129.90039</ele>
        <time>2024-02-28T14:42:48+01:00</time>
      </trkpt>
      <trkpt lat="50.04533" lon="2.33637">
        <ele>129.90039</ele>
        <time>2024-02-28T14:42:49+01:00</time>
      </trkpt>
      <trkpt lat="50.04537" lon="2.33638">
        <ele>129.7998</ele>
        <time>2024-02-28T14:42:53+01:00</time>
      </trkpt>
      <trkpt lat="50.04538" lon="2.33639">
        <ele>129.7998</ele>
        <time>2024-02-28T14:42:54+01:00</time>
      </trkpt>
      <trkpt lat="50.04542" lon="2.3364">
        <ele>129.7998</ele>
        <time>2024-02-28T14:42:58+01:00</time>
      </trkpt>
      <trkpt lat="50.04543" lon="2.3364">
        <ele>129.90039</ele>
        <time>2024-02-28T14:42:59+01:00</time>
      </trkpt>
      <trkpt lat="50.04548" lon="2.33641">
        <ele>129.90039</ele>
        <time>2024-02-28T14:43:03+01:00</time>
      </trkpt>
      <trkpt lat="50.04549" lon="2.33641">
        <ele>129.90039</ele>
        <time>2024-02-28T14:43:04+01:00</time>
      </trkpt>
      <trkpt lat="50.04554" lon="2.33642">
        <ele>129.7998</ele>
        <time>2024-02-28T14:43:08+01:00</time>
      </trkpt>
      <trkpt lat="50.04555" lon="2.33642">
        <ele>129.7998</ele>
        <time>2024-02-28T14:43:09+01:00</time>
      </trkpt>
      <trkpt lat="50.0456" lon="2.33642">
        <ele>129.7998</ele>
        <time>2024-02-28T14:43:13+01:00</time>
      </trkpt>
      <trkpt lat="50.04562" lon="2.33643">
        <ele>129.7998</ele>
        <time>2024-02-28T14:43:14+01:00</time>
      </trkpt>
      <trkpt lat="50.04566" lon="2.33644">
        <ele>129.7998</ele>
        <time>2024-02-28T14:43:18+01:00</time>
      </trkpt>
      <trkpt lat="50.04567" lon="2.33644">
        <ele>129.7998</ele>
        <time>2024-02-28T14:43:19+01:00</time>
      </trkpt>
      <trkpt lat="50.04572" lon="2.33644">
        <ele>129.7002</ele>
        <time>2024-02-28T14:43:23+01:00</time>
      </trkpt>
      <trkpt lat="50.04573" lon="2.33644">
        <ele>129.7002</ele>
        <time>2024-02-28T14:43:24+01:00</time>
      </trkpt>
      <trkpt lat="50.04578" lon="2.33643">
        <ele>129.7002</ele>
        <time>2024-02-28T14:43:28+01:00</time>
      </trkpt>
      <trkpt lat="50.04579" lon="2.33643">
        <ele>129.7002</ele>
        <time>2024-02-28T14:43:29+01:00</time>
      </trkpt>
      <trkpt lat="50.04583" lon="2.33644">
        <ele>129.7002</ele>
        <time>2024-02-28T14:43:33+01:00</time>
      </trkpt>
      <trkpt lat="50.04584" lon="2.33644">
        <ele>129.7002</ele>
        <time>2024-02-28T14:43:34+01:00</time>
      </trkpt>
      <trkpt lat="50.04588" lon="2.33644">
        <ele>129.7998</ele>
        <time>2024-02-28T14:43:38+01:00</time>
      </trkpt>
      <trkpt lat="50.04589" lon="2.33644">
        <ele>129.7998</ele>
        <time>2024-02-28T14:43:39+01:00</time>
      </trkpt>
      <trkpt lat="50.04594" lon="2.33644">
        <ele>129.7998</ele>
        <time>2024-02-28T14:43:43+01:00</time>
      </trkpt>
      <trkpt lat="50.04595" lon="2.33644">
        <ele>129.7998</ele>
        <time>2024-02-28T14:43:44+01:00</time>
      </trkpt>
      <trkpt lat="50.046" lon="2.33645">
        <ele>129.7998</ele>
        <time>2024-02-28T14:43:48+01:00</time>
      </trkpt>
      <trkpt lat="50.04601" lon="2.33645">
        <ele>129.90039</ele>
        <time>2024-02-28T14:43:49+01:00</time>
      </trkpt>
      <trkpt lat="50.04606" lon="2.33646">
        <ele>129.90039</ele>
        <time>2024-02-28T14:43:53+01:00</time>
      </trkpt>
      <trkpt lat="50.04607" lon="2.33646">
        <ele>130</ele>
        <time>2024-02-28T14:43:54+01:00</time>
      </trkpt>
      <trkpt lat="50.04611" lon="2.33647">
        <ele>130</ele>
        <time>2024-02-28T14:43:58+01:00</time>
      </trkpt>
      <trkpt lat="50.04612" lon="2.33647">
        <ele>130</ele>
        <time>2024-02-28T14:43:59+01:00</time>
      </trkpt>
      <trkpt lat="50.04617" lon="2.33648">
        <ele>130</ele>
        <time>2024-02-28T14:44:03+01:00</time>
      </trkpt>
      <trkpt lat="50.04618" lon="2.33648">
        <ele>130.10059</ele>
        <time>2024-02-28T14:44:04+01:00</time>
      </trkpt>
      <trkpt lat="50.04623" lon="2.33648">
        <ele>130.2002</ele>
        <time>2024-02-28T14:44:08+01:00</time>
      </trkpt>
      <trkpt lat="50.04624" lon="2.33648">
        <ele>130.2002</ele>
        <time>2024-02-28T14:44:09+01:00</time>
      </trkpt>
      <trkpt lat="50.04629" lon="2.33649">
        <ele>130.40039</ele>
        <time>2024-02-28T14:44:13+01:00</time>
      </trkpt>
      <trkpt lat="50.0463" lon="2.3365">
        <ele>130.40039</ele>
        <time>2024-02-28T14:44:14+01:00</time>
      </trkpt>
      <trkpt lat="50.04634" lon="2.3365">
        <ele>130.5</ele>
        <time>2024-02-28T14:44:18+01:00</time>
      </trkpt>
      <trkpt lat="50.04636" lon="2.33651">
        <ele>130.5</ele>
        <time>2024-02-28T14:44:19+01:00</time>
      </trkpt>
      <trkpt lat="50.04639" lon="2.33654">
        <ele>130.5</ele>
        <time>2024-02-28T14:44:23+01:00</time>
      </trkpt>
      <trkpt lat="50.04639" lon="2.33656">
        <ele>130.60059</ele>
        <time>2024-02-28T14:44:24+01:00</time>
      </trkpt>
      <trkpt lat="50.0464" lon="2.33664">
        <ele>130.60059</ele>
        <time>2024-02-28T14:44:28+01:00</time>
      </trkpt>
      <trkpt lat="50.0464" lon="2.33666">
        <ele>130.7002</ele>
        <time>2024-02-28T14:44:29+01:00</time>
      </trkpt>
      <trkpt lat="50.04638" lon="2.33673">
        <ele>130.7002</ele>
        <time>2024-02-28T14:44:33+01:00</time>
      </trkpt>
      <trkpt lat="50.04638" lon="2.33675">
        <ele>130.7002</ele>
        <time>2024-02-28T14:44:34+01:00</time>
      </trkpt>
      <trkpt lat="50.04636" lon="2.33683">
        <ele>130.7998</ele>
        <time>2024-02-28T14:44:38+01:00</time>
      </trkpt>
      <trkpt lat="50.04636" lon="2.33685">
        <ele>130.7998</ele>
        <time>2024-02-28T14:44:39+01:00</time>
      </trkpt>
      <trkpt lat="50.04634" lon="2.33692">
        <ele>130.7998</ele>
        <time>2024-02-28T14:44:43+01:00</time>
      </trkpt>
      <trkpt lat="50.04634" lon="2.33693">
        <ele>130.7998</ele>
        <time>2024-02-28T14:44:44+01:00</time>
      </trkpt>
      <trkpt lat="50.04632" lon="2.337">
        <ele>130.7998</ele>
        <time>2024-02-28T14:44:48+01:00</time>
      </trkpt>
      <trkpt lat="50.04631" lon="2.33701">
        <ele>130.7998</ele>
        <time>2024-02-28T14:44:49+01:00</time>
      </trkpt>
      <trkpt lat="50.04629" lon="2.33708">
        <ele>130.7998</ele>
        <time>2024-02-28T14:44:53+01:00</time>
      </trkpt>
      <trkpt lat="50.04628" lon="2.3371">
        <ele>130.7998</ele>
        <time>2024-02-28T14:44:54+01:00</time>
      </trkpt>
      <trkpt lat="50.04626" lon="2.33717">
        <ele>130.7998</ele>
        <time>2024-02-28T14:44:58+01:00</time>
      </trkpt>
      <trkpt lat="50.04625" lon="2.33718">
        <ele>130.90039</ele>
        <time>2024-02-28T14:44:59+01:00</time>
      </trkpt>
      <trkpt lat="50.04623" lon="2.33725">
        <ele>130.90039</ele>
        <time>2024-02-28T14:45:03+01:00</time>
      </trkpt>
      <trkpt lat="50.04623" lon="2.33726">
        <ele>130.90039</ele>
        <time>2024-02-28T14:45:04+01:00</time>
      </trkpt>
      <trkpt lat="50.04621" lon="2.33732">
        <ele>130.90039</ele>
        <time>2024-02-28T14:45:08+01:00</time>
      </trkpt>
      <trkpt lat="50.04621" lon="2.33734">
        <ele>130.90039</ele>
        <time>2024-02-28T14:45:09+01:00</time>
      </trkpt>
      <trkpt lat="50.04619" lon="2.33741">
        <ele>131</ele>
        <time>2024-02-28T14:45:13+01:00</time>
      </trkpt>
      <trkpt lat="50.04618" lon="2.33743">
        <ele>131.10059</ele>
        <time>2024-02-28T14:45:14+01:00</time>
      </trkpt>
      <trkpt lat="50.04616" lon="2.3375">
        <ele>131.10059</ele>
        <time>2024-02-28T14:45:18+01:00</time>
      </trkpt>
      <trkpt lat="50.04616" lon="2.33751">
        <ele>131.10059</ele>
        <time>2024-02-28T14:45:19+01:00</time>
      </trkpt>
      <trkpt lat="50.04613" lon="2.33757">
        <ele>131.2002</ele>
        <time>2024-02-28T14:45:23+01:00</time>
      </trkpt>
      <trkpt lat="50.04612" lon="2.33759">
        <ele>131.2002</ele>
        <time>2024-02-28T14:45:24+01:00</time>
      </trkpt>
      <trkpt lat="50.0461" lon="2.33765">
        <ele>131.40039</ele>
        <time>2024-02-28T14:45:28+01:00</time>
      </trkpt>
      <trkpt lat="50.04609" lon="2.33767">
        <ele>131.40039</ele>
        <time>2024-02-28T14:45:29+01:00</time>
      </trkpt>
      <trkpt lat="50.04607" lon="2.33773">
        <ele>131.5</ele>
        <time>2024-02-28T14:45:33+01:00</time>
      </trkpt>
      <trkpt lat="50.04607" lon="2.33775">
        <ele>131.5</ele>
        <time>2024-02-28T14:45:34+01:00</time>
      </trkpt>
      <trkpt lat="50.04605" lon="2.33782">
        <ele>131.7002</ele>
        <time>2024-02-28T14:45:38+01:00</time>
      </trkpt>
      <trkpt lat="50.04604" lon="2.33784">
        <ele>131.7002</ele>
        <time>2024-02-28T14:45:39+01:00</time>
      </trkpt>
      <trkpt lat="50.04603" lon="2.3379">
        <ele>131.90039</ele>
        <time>2024-02-28T14:45:43+01:00</time>
      </trkpt>
      <trkpt lat="50.04603" lon="2.33792">
        <ele>131.90039</ele>
        <time>2024-02-28T14:45:44+01:00</time>
      </trkpt>
      <trkpt lat="50.04601" lon="2.33798">
        <ele>132.10059</ele>
        <time>2024-02-28T14:45:48+01:00</time>
      </trkpt>
      <trkpt lat="50.04601" lon="2.338">
        <ele>132.10059</ele>
        <time>2024-02-28T14:45:49+01:00</time>
      </trkpt>
      <trkpt lat="50.04599" lon="2.33806">
        <ele>132.2998</ele>
        <time>2024-02-28T14:45:53+01:00</time>
      </trkpt>
      <trkpt lat="50.04599" lon="2.33808">
        <ele>132.2998</ele>
        <time>2024-02-28T14:45:54+01:00</time>
      </trkpt>
      <trkpt lat="50.04597" lon="2.33815">
        <ele>132.40039</ele>
        <time>2024-02-28T14:45:58+01:00</time>
      </trkpt>
      <trkpt lat="50.04597" lon="2.33817">
        <ele>132.40039</ele>
        <time>2024-02-28T14:45:59+01:00</time>
      </trkpt>
      <trkpt lat="50.04595" lon="2.33824">
        <ele>132.60059</ele>
        <time>2024-02-28T14:46:03+01:00</time>
      </trkpt>
      <trkpt lat="50.04594" lon="2.33826">
        <ele>132.60059</ele>
        <time>2024-02-28T14:46:04+01:00</time>
      </trkpt>
      <trkpt lat="50.04592" lon="2.33833">
        <ele>132.7002</ele>
        <time>2024-02-28T14:46:08+01:00</time>
      </trkpt>
      <trkpt lat="50.04591" lon="2.33835">
        <ele>132.7002</ele>
        <time>2024-02-28T14:46:09+01:00</time>
      </trkpt>
      <trkpt lat="50.04589" lon="2.33841">
        <ele>132.7998</ele>
        <time>2024-02-28T14:46:13+01:00</time>
      </trkpt>
      <trkpt lat="50.04588" lon="2.33842">
        <ele>132.7998</ele>
        <time>2024-02-28T14:46:14+01:00</time>
      </trkpt>
      <trkpt lat="50.04586" lon="2.33849">
        <ele>132.90039</ele>
        <time>2024-02-28T14:46:18+01:00</time>
      </trkpt>
      <trkpt lat="50.04585" lon="2.3385">
        <ele>132.90039</ele>
        <time>2024-02-28T14:46:19+01:00</time>
      </trkpt>
      <trkpt lat="50.04583" lon="2.33857">
        <ele>132.90039</ele>
        <time>2024-02-28T14:46:23+01:00</time>
      </trkpt>
      <trkpt lat="50.04582" lon="2.33859">
        <ele>132.90039</ele>
        <time>2024-02-28T14:46:24+01:00</time>
      </trkpt>
      <trkpt lat="50.04581" lon="2.33865">
        <ele>133</ele>
        <time>2024-02-28T14:46:28+01:00</time>
      </trkpt>
      <trkpt lat="50.0458" lon="2.33866">
        <ele>133</ele>
        <time>2024-02-28T14:46:29+01:00</time>
      </trkpt>
      <trkpt lat="50.04578" lon="2.33873">
        <ele>133</ele>
        <time>2024-02-28T14:46:33+01:00</time>
      </trkpt>
      <trkpt lat="50.04577" lon="2.33875">
        <ele>133</ele>
        <time>2024-02-28T14:46:34+01:00</time>
      </trkpt>
      <trkpt lat="50.04575" lon="2.33881">
        <ele>133</ele>
        <time>2024-02-28T14:46:38+01:00</time>
      </trkpt>
      <trkpt lat="50.04575" lon="2.33883">
        <ele>133</ele>
        <time>2024-02-28T14:46:39+01:00</time>
      </trkpt>
      <trkpt lat="50.04572" lon="2.33888">
        <ele>133.10059</ele>
        <time>2024-02-28T14:46:43+01:00</time>
      </trkpt>
      <trkpt lat="50.04571" lon="2.33889">
        <ele>133.10059</ele>
        <time>2024-02-28T14:46:44+01:00</time>
      </trkpt>
      <trkpt lat="50.04568" lon="2.33895">
        <ele>133.10059</ele>
        <time>2024-02-28T14:46:48+01:00</time>
      </trkpt>
      <trkpt lat="50.04568" lon="2.33896">
        <ele>133.10059</ele>
        <time>2024-02-28T14:46:49+01:00</time>
      </trkpt>
      <trkpt lat="50.04565" lon="2.33903">
        <ele>133.10059</ele>
        <time>2024-02-28T14:46:53+01:00</time>
      </trkpt>
      <trkpt lat="50.04565" lon="2.33904">
        <ele>133.10059</ele>
        <time>2024-02-28T14:46:54+01:00</time>
      </trkpt>
      <trkpt lat="50.04563" lon="2.33911">
        <ele>133.10059</ele>
        <time>2024-02-28T14:46:58+01:00</time>
      </trkpt>
      <trkpt lat="50.04562" lon="2.33913">
        <ele>133.2002</ele>
        <time>2024-02-28T14:46:59+01:00</time>
      </trkpt>
      <trkpt lat="50.0456" lon="2.33919">
        <ele>133.2002</ele>
        <time>2024-02-28T14:47:03+01:00</time>
      </trkpt>
      <trkpt lat="50.0456" lon="2.3392">
        <ele>133.2002</ele>
        <time>2024-02-28T14:47:04+01:00</time>
      </trkpt>
      <trkpt lat="50.04558" lon="2.33926">
        <ele>133.2002</ele>
        <time>2024-02-28T14:47:08+01:00</time>
      </trkpt>
      <trkpt lat="50.04557" lon="2.33928">
        <ele>133.2002</ele>
        <time>2024-02-28T14:47:09+01:00</time>
      </trkpt>
      <trkpt lat="50.04555" lon="2.33934">
        <ele>133.2998</ele>
        <time>2024-02-28T14:47:13+01:00</time>
      </trkpt>
      <trkpt lat="50.04555" lon="2.33936">
        <ele>133.2998</ele>
        <time>2024-02-28T14:47:14+01:00</time>
      </trkpt>
      <trkpt lat="50.04553" lon="2.33942">
        <ele>133.2998</ele>
        <time>2024-02-28T14:47:18+01:00</time>
      </trkpt>
      <trkpt lat="50.04552" lon="2.33944">
        <ele>133.2998</ele>
        <time>2024-02-28T14:47:19+01:00</time>
      </trkpt>
      <trkpt lat="50.0455" lon="2.33951">
        <ele>133.2998</ele>
        <time>2024-02-28T14:47:23+01:00</time>
      </trkpt>
      <trkpt lat="50.0455" lon="2.33953">
        <ele>133.2998</ele>
        <time>2024-02-28T14:47:24+01:00</time>
      </trkpt>
      <trkpt lat="50.04548" lon="2.3396">
        <ele>133.2998</ele>
        <time>2024-02-28T14:47:28+01:00</time>
      </trkpt>
      <trkpt lat="50.04547" lon="2.33962">
        <ele>133.2998</ele>
        <time>2024-02-28T14:47:29+01:00</time>
      </trkpt>
      <trkpt lat="50.04545" lon="2.33968">
        <ele>133.40039</ele>
        <time>2024-02-28T14:47:33+01:00</time>
      </trkpt>
      <trkpt lat="50.04544" lon="2.33969">
        <ele>133.40039</ele>
        <time>2024-02-28T14:47:34+01:00</time>
      </trkpt>
      <trkpt lat="50.04543" lon="2.33976">
        <ele>133.40039</ele>
        <time>2024-02-28T14:47:38+01:00</time>
      </trkpt>
      <trkpt lat="50.04542" lon="2.33978">
        <ele>133.40039</ele>
        <time>2024-02-28T14:47:39+01:00</time>
      </trkpt>
      <trkpt lat="50.04539" lon="2.33984">
        <ele>133.5</ele>
        <time>2024-02-28T14:47:43+01:00</time>
      </trkpt>
      <trkpt lat="50.04539" lon="2.33986">
        <ele>133.5</ele>
        <time>2024-02-28T14:47:44+01:00</time>
      </trkpt>
      <trkpt lat="50.04536" lon="2.33992">
        <ele>133.5</ele>
        <time>2024-02-28T14:47:48+01:00</time>
      </trkpt>
      <trkpt lat="50.04536" lon="2.33994">
        <ele>133.5</ele>
        <time>2024-02-28T14:47:49+01:00</time>
      </trkpt>
      <trkpt lat="50.04533" lon="2.34001">
        <ele>133.60059</ele>
        <time>2024-02-28T14:47:53+01:00</time>
      </trkpt>
      <trkpt lat="50.04533" lon="2.34002">
        <ele>133.60059</ele>
        <time>2024-02-28T14:47:54+01:00</time>
      </trkpt>
      <trkpt lat="50.04531" lon="2.34008">
        <ele>133.60059</ele>
        <time>2024-02-28T14:47:58+01:00</time>
      </trkpt>
      <trkpt lat="50.0453" lon="2.3401">
        <ele>133.60059</ele>
        <time>2024-02-28T14:47:59+01:00</time>
      </trkpt>
      <trkpt lat="50.04528" lon="2.34016">
        <ele>133.60059</ele>
        <time>2024-02-28T14:48:03+01:00</time>
      </trkpt>
      <trkpt lat="50.04528" lon="2.34018">
        <ele>133.60059</ele>
        <time>2024-02-28T14:48:04+01:00</time>
      </trkpt>
      <trkpt lat="50.04526" lon="2.34024">
        <ele>133.60059</ele>
        <time>2024-02-28T14:48:08+01:00</time>
      </trkpt>
      <trkpt lat="50.04525" lon="2.34025">
        <ele>133.60059</ele>
        <time>2024-02-28T14:48:09+01:00</time>
      </trkpt>
      <trkpt lat="50.04523" lon="2.34031">
        <ele>133.7002</ele>
        <time>2024-02-28T14:48:13+01:00</time>
      </trkpt>
      <trkpt lat="50.04522" lon="2.34033">
        <ele>133.7002</ele>
        <time>2024-02-28T14:48:14+01:00</time>
      </trkpt>
      <trkpt lat="50.04518" lon="2.34038">
        <ele>133.7002</ele>
        <time>2024-02-28T14:48:18+01:00</time>
      </trkpt>
      <trkpt lat="50.04517" lon="2.34039">
        <ele>133.7998</ele>
        <time>2024-02-28T14:48:19+01:00</time>
      </trkpt>
      <trkpt lat="50.04513" lon="2.34043">
        <ele>133.7002</ele>
        <time>2024-02-28T14:48:23+01:00</time>
      </trkpt>
      <trkpt lat="50.04512" lon="2.34044">
        <ele>133.7998</ele>
        <time>2024-02-28T14:48:24+01:00</time>
      </trkpt>
      <trkpt lat="50.04508" lon="2.34048">
        <ele>133.7998</ele>
        <time>2024-02-28T14:48:28+01:00</time>
      </trkpt>
      <trkpt lat="50.04507" lon="2.34049">
        <ele>133.90039</ele>
        <time>2024-02-28T14:48:29+01:00</time>
      </trkpt>
      <trkpt lat="50.04503" lon="2.34054">
        <ele>133.90039</ele>
        <time>2024-02-28T14:48:33+01:00</time>
      </trkpt>
      <trkpt lat="50.04502" lon="2.34055">
        <ele>133.90039</ele>
        <time>2024-02-28T14:48:34+01:00</time>
      </trkpt>
      <trkpt lat="50.04498" lon="2.3406">
        <ele>134</ele>
        <time>2024-02-28T14:48:38+01:00</time>
      </trkpt>
      <trkpt lat="50.04497" lon="2.34062">
        <ele>134</ele>
        <time>2024-02-28T14:48:39+01:00</time>
      </trkpt>
      <trkpt lat="50.04494" lon="2.34067">
        <ele>134</ele>
        <time>2024-02-28T14:48:43+01:00</time>
      </trkpt>
      <trkpt lat="50.04493" lon="2.34068">
        <ele>134</ele>
        <time>2024-02-28T14:48:44+01:00</time>
      </trkpt>
      <trkpt lat="50.0449" lon="2.34073">
        <ele>134.10059</ele>
        <time>2024-02-28T14:48:48+01:00</time>
      </trkpt>
      <trkpt lat="50.04489" lon="2.34074">
        <ele>134.10059</ele>
        <time>2024-02-28T14:48:49+01:00</time>
      </trkpt>
      <trkpt lat="50.04486" lon="2.34079">
        <ele>134.2002</ele>
        <time>2024-02-28T14:48:53+01:00</time>
      </trkpt>
      <trkpt lat="50.04485" lon="2.3408">
        <ele>134.2002</ele>
        <time>2024-02-28T14:48:54+01:00</time>
      </trkpt>
      <trkpt lat="50.04482" lon="2.34084">
        <ele>134.2998</ele>
        <time>2024-02-28T14:48:58+01:00</time>
      </trkpt>
      <trkpt lat="50.04482" lon="2.34086">
        <ele>134.2998</ele>
        <time>2024-02-28T14:48:59+01:00</time>
      </trkpt>
      <trkpt lat="50.04479" lon="2.34091">
        <ele>134.40039</ele>
        <time>2024-02-28T14:49:03+01:00</time>
      </trkpt>
      <trkpt lat="50.04478" lon="2.34092">
        <ele>134.40039</ele>
        <time>2024-02-28T14:49:04+01:00</time>
      </trkpt>
      <trkpt lat="50.04475" lon="2.34097">
        <ele>134.5</ele>
        <time>2024-02-28T14:49:08+01:00</time>
      </trkpt>
      <trkpt lat="50.04474" lon="2.34098">
        <ele>134.5</ele>
        <time>2024-02-28T14:49:09+01:00</time>
      </trkpt>
      <trkpt lat="50.0447" lon="2.34103">
        <ele>134.5</ele>
        <time>2024-02-28T14:49:13+01:00</time>
      </trkpt>
      <trkpt lat="50.04469" lon="2.34104">
        <ele>134.60059</ele>
        <time>2024-02-28T14:49:14+01:00</time>
      </trkpt>
      <trkpt lat="50.04466" lon="2.34108">
        <ele>134.7002</ele>
        <time>2024-02-28T14:49:18+01:00</time>
      </trkpt>
      <trkpt lat="50.04465" lon="2.3411">
        <ele>134.7002</ele>
        <time>2024-02-28T14:49:19+01:00</time>
      </trkpt>
      <trkpt lat="50.04461" lon="2.34114">
        <ele>134.90039</ele>
        <time>2024-02-28T14:49:23+01:00</time>
      </trkpt>
      <trkpt lat="50.0446" lon="2.34115">
        <ele>134.90039</ele>
        <time>2024-02-28T14:49:24+01:00</time>
      </trkpt>
      <trkpt lat="50.04456" lon="2.3412">
        <ele>134.90039</ele>
        <time>2024-02-28T14:49:28+01:00</time>
      </trkpt>
      <trkpt lat="50.04455" lon="2.34121">
        <ele>135</ele>
        <time>2024-02-28T14:49:29+01:00</time>
      </trkpt>
      <trkpt lat="50.04452" lon="2.34125">
        <ele>135.10059</ele>
        <time>2024-02-28T14:49:33+01:00</time>
      </trkpt>
      <trkpt lat="50.04451" lon="2.34126">
        <ele>135.10059</ele>
        <time>2024-02-28T14:49:34+01:00</time>
      </trkpt>
      <trkpt lat="50.04447" lon="2.34131">
        <ele>135.2002</ele>
        <time>2024-02-28T14:49:38+01:00</time>
      </trkpt>
      <trkpt lat="50.04446" lon="2.34132">
        <ele>135.2998</ele>
        <time>2024-02-28T14:49:39+01:00</time>
      </trkpt>
      <trkpt lat="50.04442" lon="2.34138">
        <ele>135.2998</ele>
        <time>2024-02-28T14:49:43+01:00</time>
      </trkpt>
      <trkpt lat="50.04441" lon="2.34139">
        <ele>135.40039</ele>
        <time>2024-02-28T14:49:44+01:00</time>
      </trkpt>
      <trkpt lat="50.04437" lon="2.34144">
        <ele>135.40039</ele>
        <time>2024-02-28T14:49:48+01:00</time>
      </trkpt>
      <trkpt lat="50.04437" lon="2.34145">
        <ele>135.40039</ele>
        <time>2024-02-28T14:49:49+01:00</time>
      </trkpt>
      <trkpt lat="50.04433" lon="2.3415">
        <ele>135.60059</ele>
        <time>2024-02-28T14:49:53+01:00</time>
      </trkpt>
      <trkpt lat="50.04432" lon="2.34151">
        <ele>135.60059</ele>
        <time>2024-02-28T14:49:54+01:00</time>
      </trkpt>
      <trkpt lat="50.04428" lon="2.34157">
        <ele>135.7002</ele>
        <time>2024-02-28T14:49:58+01:00</time>
      </trkpt>
      <trkpt lat="50.04427" lon="2.34158">
        <ele>135.7002</ele>
        <time>2024-02-28T14:49:59+01:00</time>
      </trkpt>
      <trkpt lat="50.04424" lon="2.34164">
        <ele>135.7998</ele>
        <time>2024-02-28T14:50:03+01:00</time>
      </trkpt>
      <trkpt lat="50.04423" lon="2.34165">
        <ele>135.7998</ele>
        <time>2024-02-28T14:50:04+01:00</time>
      </trkpt>
      <trkpt lat="50.0442" lon="2.3417">
        <ele>135.7998</ele>
        <time>2024-02-28T14:50:08+01:00</time>
      </trkpt>
      <trkpt lat="50.04419" lon="2.34171">
        <ele>135.7998</ele>
        <time>2024-02-28T14:50:09+01:00</time>
      </trkpt>
      <trkpt lat="50.04416" lon="2.34176">
        <ele>135.90039</ele>
        <time>2024-02-28T14:50:13+01:00</time>
      </trkpt>
      <trkpt lat="50.04415" lon="2.34177">
        <ele>135.90039</ele>
        <time>2024-02-28T14:50:14+01:00</time>
      </trkpt>
      <trkpt lat="50.04412" lon="2.34182">
        <ele>135.90039</ele>
        <time>2024-02-28T14:50:18+01:00</time>
      </trkpt>
      <trkpt lat="50.04412" lon="2.34183">
        <ele>135.90039</ele>
        <time>2024-02-28T14:50:19+01:00</time>
      </trkpt>
      <trkpt lat="50.04409" lon="2.34188">
        <ele>135.90039</ele>
        <time>2024-02-28T14:50:23+01:00</time>
      </trkpt>
      <trkpt lat="50.04408" lon="2.34189">
        <ele>135.90039</ele>
        <time>2024-02-28T14:50:24+01:00</time>
      </trkpt>
      <trkpt lat="50.04405" lon="2.34194">
        <ele>136</ele>
        <time>2024-02-28T14:50:28+01:00</time>
      </trkpt>
      <trkpt lat="50.04404" lon="2.34195">
        <ele>136</ele>
        <time>2024-02-28T14:50:29+01:00</time>
      </trkpt>
      <trkpt lat="50.04401" lon="2.34199">
        <ele>136</ele>
        <time>2024-02-28T14:50:33+01:00</time>
      </trkpt>
      <trkpt lat="50.04401" lon="2.34201">
        <ele>136</ele>
        <time>2024-02-28T14:50:34+01:00</time>
      </trkpt>
      <trkpt lat="50.04397" lon="2.34205">
        <ele>136</ele>
        <time>2024-02-28T14:50:38+01:00</time>
      </trkpt>
      <trkpt lat="50.04397" lon="2.34207">
        <ele>136.10059</ele>
        <time>2024-02-28T14:50:39+01:00</time>
      </trkpt>
      <trkpt lat="50.04394" lon="2.34211">
        <ele>136.10059</ele>
        <time>2024-02-28T14:50:43+01:00</time>
      </trkpt>
      <trkpt lat="50.04393" lon="2.34212">
        <ele>136.10059</ele>
        <time>2024-02-28T14:50:44+01:00</time>
      </trkpt>
      <trkpt lat="50.0439" lon="2.34217">
        <ele>136.2002</ele>
        <time>2024-02-28T14:50:48+01:00</time>
      </trkpt>
      <trkpt lat="50.04389" lon="2.34218">
        <ele>136.2002</ele>
        <time>2024-02-28T14:50:49+01:00</time>
      </trkpt>
      <trkpt lat="50.04386" lon="2.34223">
        <ele>136.2002</ele>
        <time>2024-02-28T14:50:53+01:00</time>
      </trkpt>
      <trkpt lat="50.04385" lon="2.34225">
        <ele>136.2998</ele>
        <time>2024-02-28T14:50:55+01:00</time>
      </trkpt>
      <trkpt lat="50.04382" lon="2.34231">
        <ele>136.2998</ele>
        <time>2024-02-28T14:50:59+01:00</time>
      </trkpt>
      <trkpt lat="50.04381" lon="2.34232">
        <ele>136.2998</ele>
        <time>2024-02-28T14:51:00+01:00</time>
      </trkpt>
      <trkpt lat="50.04377" lon="2.34236">
        <ele>136.40039</ele>
        <time>2024-02-28T14:51:04+01:00</time>
      </trkpt>
      <trkpt lat="50.04377" lon="2.34237">
        <ele>136.40039</ele>
        <time>2024-02-28T14:51:05+01:00</time>
      </trkpt>
      <trkpt lat="50.04373" lon="2.34241">
        <ele>136.5</ele>
        <time>2024-02-28T14:51:09+01:00</time>
      </trkpt>
      <trkpt lat="50.04372" lon="2.34242">
        <ele>136.5</ele>
        <time>2024-02-28T14:51:10+01:00</time>
      </trkpt>
      <trkpt lat="50.04368" lon="2.34246">
        <ele>136.60059</ele>
        <time>2024-02-28T14:51:14+01:00</time>
      </trkpt>
      <trkpt lat="50.04368" lon="2.34247">
        <ele>136.60059</ele>
        <time>2024-02-28T14:51:15+01:00</time>
      </trkpt>
      <trkpt lat="50.04364" lon="2.34251">
        <ele>136.7002</ele>
        <time>2024-02-28T14:51:19+01:00</time>
      </trkpt>
      <trkpt lat="50.04364" lon="2.34252">
        <ele>136.7002</ele>
        <time>2024-02-28T14:51:20+01:00</time>
      </trkpt>
      <trkpt lat="50.04361" lon="2.34256">
        <ele>136.7002</ele>
        <time>2024-02-28T14:51:24+01:00</time>
      </trkpt>
      <trkpt lat="50.0436" lon="2.34257">
        <ele>136.7002</ele>
        <time>2024-02-28T14:51:25+01:00</time>
      </trkpt>
      <trkpt lat="50.04357" lon="2.34262">
        <ele>136.90039</ele>
        <time>2024-02-28T14:51:29+01:00</time>
      </trkpt>
      <trkpt lat="50.04356" lon="2.34263">
        <ele>136.90039</ele>
        <time>2024-02-28T14:51:30+01:00</time>
      </trkpt>
      <trkpt lat="50.04353" lon="2.34268">
        <ele>137.10059</ele>
        <time>2024-02-28T14:51:34+01:00</time>
      </trkpt>
      <trkpt lat="50.04352" lon="2.34269">
        <ele>137.10059</ele>
        <time>2024-02-28T14:51:35+01:00</time>
      </trkpt>
      <trkpt lat="50.04348" lon="2.34274">
        <ele>137.10059</ele>
        <time>2024-02-28T14:51:39+01:00</time>
      </trkpt>
      <trkpt lat="50.04347" lon="2.34275">
        <ele>137.10059</ele>
        <time>2024-02-28T14:51:40+01:00</time>
      </trkpt>
      <trkpt lat="50.04344" lon="2.34279">
        <ele>137.2002</ele>
        <time>2024-02-28T14:51:44+01:00</time>
      </trkpt>
      <trkpt lat="50.04343" lon="2.3428">
        <ele>137.2002</ele>
        <time>2024-02-28T14:51:45+01:00</time>
      </trkpt>
      <trkpt lat="50.0434" lon="2.34284">
        <ele>137.40039</ele>
        <time>2024-02-28T14:51:49+01:00</time>
      </trkpt>
      <trkpt lat="50.04339" lon="2.34285">
        <ele>137.40039</ele>
        <time>2024-02-28T14:51:50+01:00</time>
      </trkpt>
      <trkpt lat="50.04336" lon="2.34291">
        <ele>137.5</ele>
        <time>2024-02-28T14:51:54+01:00</time>
      </trkpt>
      <trkpt lat="50.04335" lon="2.34292">
        <ele>137.5</ele>
        <time>2024-02-28T14:51:55+01:00</time>
      </trkpt>
      <trkpt lat="50.04332" lon="2.34296">
        <ele>137.60059</ele>
        <time>2024-02-28T14:51:59+01:00</time>
      </trkpt>
      <trkpt lat="50.04331" lon="2.34298">
        <ele>137.60059</ele>
        <time>2024-02-28T14:52:00+01:00</time>
      </trkpt>
      <trkpt lat="50.04327" lon="2.34303">
        <ele>137.7998</ele>
        <time>2024-02-28T14:52:04+01:00</time>
      </trkpt>
      <trkpt lat="50.04326" lon="2.34304">
        <ele>137.7998</ele>
        <time>2024-02-28T14:52:05+01:00</time>
      </trkpt>
      <trkpt lat="50.04323" lon="2.34308">
        <ele>137.90039</ele>
        <time>2024-02-28T14:52:09+01:00</time>
      </trkpt>
      <trkpt lat="50.04322" lon="2.3431">
        <ele>138</ele>
        <time>2024-02-28T14:52:10+01:00</time>
      </trkpt>
      <trkpt lat="50.04318" lon="2.34315">
        <ele>138.10059</ele>
        <time>2024-02-28T14:52:14+01:00</time>
      </trkpt>
      <trkpt lat="50.04317" lon="2.34316">
        <ele>138.10059</ele>
        <time>2024-02-28T14:52:15+01:00</time>
      </trkpt>
      <trkpt lat="50.04314" lon="2.3432">
        <ele>138.2998</ele>
        <time>2024-02-28T14:52:19+01:00</time>
      </trkpt>
      <trkpt lat="50.04313" lon="2.34321">
        <ele>138.2998</ele>
        <time>2024-02-28T14:52:20+01:00</time>
      </trkpt>
      <trkpt lat="50.0431" lon="2.34325">
        <ele>138.2998</ele>
        <time>2024-02-28T14:52:24+01:00</time>
      </trkpt>
      <trkpt lat="50.04309" lon="2.34326">
        <ele>138.2998</ele>
        <time>2024-02-28T14:52:25+01:00</time>
      </trkpt>
      <trkpt lat="50.04306" lon="2.34331">
        <ele>138.5</ele>
        <time>2024-02-28T14:52:29+01:00</time>
      </trkpt>
      <trkpt lat="50.04305" lon="2.34332">
        <ele>138.5</ele>
        <time>2024-02-28T14:52:30+01:00</time>
      </trkpt>
      <trkpt lat="50.04302" lon="2.34337">
        <ele>138.60059</ele>
        <time>2024-02-28T14:52:34+01:00</time>
      </trkpt>
      <trkpt lat="50.04301" lon="2.34339">
        <ele>138.60059</ele>
        <time>2024-02-28T14:52:35+01:00</time>
      </trkpt>
      <trkpt lat="50.04298" lon="2.34343">
        <ele>138.60059</ele>
        <time>2024-02-28T14:52:39+01:00</time>
      </trkpt>
      <trkpt lat="50.04297" lon="2.34344">
        <ele>138.7998</ele>
        <time>2024-02-28T14:52:40+01:00</time>
      </trkpt>
      <trkpt lat="50.04294" lon="2.34348">
        <ele>138.7998</ele>
        <time>2024-02-28T14:52:44+01:00</time>
      </trkpt>
      <trkpt lat="50.04293" lon="2.34349">
        <ele>138.7998</ele>
        <time>2024-02-28T14:52:45+01:00</time>
      </trkpt>
      <trkpt lat="50.0429" lon="2.34354">
        <ele>138.90039</ele>
        <time>2024-02-28T14:52:49+01:00</time>
      </trkpt>
      <trkpt lat="50.04289" lon="2.34355">
        <ele>138.90039</ele>
        <time>2024-02-28T14:52:50+01:00</time>
      </trkpt>
      <trkpt lat="50.04286" lon="2.3436">
        <ele>139.10059</ele>
        <time>2024-02-28T14:52:54+01:00</time>
      </trkpt>
      <trkpt lat="50.04285" lon="2.34361">
        <ele>139.10059</ele>
        <time>2024-02-28T14:52:55+01:00</time>
      </trkpt>
      <trkpt lat="50.04282" lon="2.34366">
        <ele>139.10059</ele>
        <time>2024-02-28T14:52:59+01:00</time>
      </trkpt>
      <trkpt lat="50.04281" lon="2.34367">
        <ele>139.10059</ele>
        <time>2024-02-28T14:53:00+01:00</time>
      </trkpt>
      <trkpt lat="50.04278" lon="2.34372">
        <ele>139.2002</ele>
        <time>2024-02-28T14:53:04+01:00</time>
      </trkpt>
      <trkpt lat="50.04277" lon="2.34373">
        <ele>139.2002</ele>
        <time>2024-02-28T14:53:05+01:00</time>
      </trkpt>
      <trkpt lat="50.04274" lon="2.34378">
        <ele>139.2998</ele>
        <time>2024-02-28T14:53:09+01:00</time>
      </trkpt>
      <trkpt lat="50.04273" lon="2.34379">
        <ele>139.2998</ele>
        <time>2024-02-28T14:53:10+01:00</time>
      </trkpt>
      <trkpt lat="50.0427" lon="2.34383">
        <ele>139.2998</ele>
        <time>2024-02-28T14:53:14+01:00</time>
      </trkpt>
      <trkpt lat="50.04269" lon="2.34384">
        <ele>139.5</ele>
        <time>2024-02-28T14:53:15+01:00</time>
      </trkpt>
      <trkpt lat="50.04266" lon="2.34388">
        <ele>139.5</ele>
        <time>2024-02-28T14:53:19+01:00</time>
      </trkpt>
      <trkpt lat="50.04265" lon="2.34389">
        <ele>139.5</ele>
        <time>2024-02-28T14:53:20+01:00</time>
      </trkpt>
      <trkpt lat="50.04263" lon="2.34393">
        <ele>139.60059</ele>
        <time>2024-02-28T14:53:24+01:00</time>
      </trkpt>
      <trkpt lat="50.04262" lon="2.34394">
        <ele>139.60059</ele>
        <time>2024-02-28T14:53:25+01:00</time>
      </trkpt>
      <trkpt lat="50.04259" lon="2.34398">
        <ele>139.60059</ele>
        <time>2024-02-28T14:53:29+01:00</time>
      </trkpt>
      <trkpt lat="50.04258" lon="2.34399">
        <ele>139.7002</ele>
        <time>2024-02-28T14:53:30+01:00</time>
      </trkpt>
      <trkpt lat="50.04255" lon="2.34402">
        <ele>139.7002</ele>
        <time>2024-02-28T14:53:34+01:00</time>
      </trkpt>
      <trkpt lat="50.04254" lon="2.34403">
        <ele>139.7002</ele>
        <time>2024-02-28T14:53:35+01:00</time>
      </trkpt>
      <trkpt lat="50.04251" lon="2.34408">
        <ele>139.7998</ele>
        <time>2024-02-28T14:53:39+01:00</time>
      </trkpt>
      <trkpt lat="50.0425" lon="2.3441">
        <ele>139.7998</ele>
        <time>2024-02-28T14:53:40+01:00</time>
      </trkpt>
      <trkpt lat="50.04246" lon="2.34414">
        <ele>139.90039</ele>
        <time>2024-02-28T14:53:44+01:00</time>
      </trkpt>
      <trkpt lat="50.04245" lon="2.34415">
        <ele>139.90039</ele>
        <time>2024-02-28T14:53:45+01:00</time>
      </trkpt>
      <trkpt lat="50.04242" lon="2.3442">
        <ele>140</ele>
        <time>2024-02-28T14:53:49+01:00</time>
      </trkpt>
      <trkpt lat="50.04241" lon="2.34421">
        <ele>140</ele>
        <time>2024-02-28T14:53:50+01:00</time>
      </trkpt>
      <trkpt lat="50.04238" lon="2.34426">
        <ele>140</ele>
        <time>2024-02-28T14:53:54+01:00</time>
      </trkpt>
      <trkpt lat="50.04237" lon="2.34428">
        <ele>140</ele>
        <time>2024-02-28T14:53:55+01:00</time>
      </trkpt>
      <trkpt lat="50.04234" lon="2.34433">
        <ele>140.10059</ele>
        <time>2024-02-28T14:53:59+01:00</time>
      </trkpt>
      <trkpt lat="50.04233" lon="2.34434">
        <ele>140.10059</ele>
        <time>2024-02-28T14:54:00+01:00</time>
      </trkpt>
      <trkpt lat="50.0423" lon="2.34439">
        <ele>140.2002</ele>
        <time>2024-02-28T14:54:04+01:00</time>
      </trkpt>
      <trkpt lat="50.04229" lon="2.34441">
        <ele>140.2002</ele>
        <time>2024-02-28T14:54:05+01:00</time>
      </trkpt>
      <trkpt lat="50.04226" lon="2.34446">
        <ele>140.2002</ele>
        <time>2024-02-28T14:54:09+01:00</time>
      </trkpt>
      <trkpt lat="50.04225" lon="2.34447">
        <ele>140.2998</ele>
        <time>2024-02-28T14:54:10+01:00</time>
      </trkpt>
      <trkpt lat="50.04222" lon="2.34452">
        <ele>140.2998</ele>
        <time>2024-02-28T14:54:14+01:00</time>
      </trkpt>
      <trkpt lat="50.04221" lon="2.34453">
        <ele>140.2998</ele>
        <time>2024-02-28T14:54:15+01:00</time>
      </trkpt>
      <trkpt lat="50.04218" lon="2.34458">
        <ele>140.2998</ele>
        <time>2024-02-28T14:54:19+01:00</time>
      </trkpt>
      <trkpt lat="50.04217" lon="2.34459">
        <ele>140.2998</ele>
        <time>2024-02-28T14:54:20+01:00</time>
      </trkpt>
      <trkpt lat="50.04214" lon="2.34463">
        <ele>140.40039</ele>
        <time>2024-02-28T14:54:24+01:00</time>
      </trkpt>
      <trkpt lat="50.04213" lon="2.34464">
        <ele>140.40039</ele>
        <time>2024-02-28T14:54:25+01:00</time>
      </trkpt>
      <trkpt lat="50.04209" lon="2.34469">
        <ele>140.5</ele>
        <time>2024-02-28T14:54:29+01:00</time>
      </trkpt>
      <trkpt lat="50.04209" lon="2.3447">
        <ele>140.5</ele>
        <time>2024-02-28T14:54:30+01:00</time>
      </trkpt>
      <trkpt lat="50.04206" lon="2.34475">
        <ele>140.5</ele>
        <time>2024-02-28T14:54:34+01:00</time>
      </trkpt>
      <trkpt lat="50.04205" lon="2.34477">
        <ele>140.5</ele>
        <time>2024-02-28T14:54:35+01:00</time>
      </trkpt>
      <trkpt lat="50.04201" lon="2.34481">
        <ele>140.5</ele>
        <time>2024-02-28T14:54:39+01:00</time>
      </trkpt>
      <trkpt lat="50.042" lon="2.34482">
        <ele>140.5</ele>
        <time>2024-02-28T14:54:40+01:00</time>
      </trkpt>
      <trkpt lat="50.04198" lon="2.34487">
        <ele>140.60059</ele>
        <time>2024-02-28T14:54:44+01:00</time>
      </trkpt>
      <trkpt lat="50.04197" lon="2.34488">
        <ele>140.60059</ele>
        <time>2024-02-28T14:54:45+01:00</time>
      </trkpt>
      <trkpt lat="50.04194" lon="2.34493">
        <ele>140.60059</ele>
        <time>2024-02-28T14:54:49+01:00</time>
      </trkpt>
      <trkpt lat="50.04193" lon="2.34494">
        <ele>140.60059</ele>
        <time>2024-02-28T14:54:50+01:00</time>
      </trkpt>
      <trkpt lat="50.0419" lon="2.34498">
        <ele>140.7002</ele>
        <time>2024-02-28T14:54:54+01:00</time>
      </trkpt>
      <trkpt lat="50.04189" lon="2.34499">
        <ele>140.7002</ele>
        <time>2024-02-28T14:54:55+01:00</time>
      </trkpt>
      <trkpt lat="50.04185" lon="2.34504">
        <ele>140.7998</ele>
        <time>2024-02-28T14:54:59+01:00</time>
      </trkpt>
      <trkpt lat="50.04184" lon="2.34505">
        <ele>140.7998</ele>
        <time>2024-02-28T14:55:00+01:00</time>
      </trkpt>
      <trkpt lat="50.04181" lon="2.34509">
        <ele>140.7998</ele>
        <time>2024-02-28T14:55:04+01:00</time>
      </trkpt>
      <trkpt lat="50.0418" lon="2.3451">
        <ele>140.7998</ele>
        <time>2024-02-28T14:55:05+01:00</time>
      </trkpt>
      <trkpt lat="50.04177" lon="2.34514">
        <ele>140.7998</ele>
        <time>2024-02-28T14:55:09+01:00</time>
      </trkpt>
      <trkpt lat="50.04176" lon="2.34515">
        <ele>140.7998</ele>
        <time>2024-02-28T14:55:10+01:00</time>
      </trkpt>
      <trkpt lat="50.04173" lon="2.34521">
        <ele>140.90039</ele>
        <time>2024-02-28T14:55:14+01:00</time>
      </trkpt>
      <trkpt lat="50.04173" lon="2.34522">
        <ele>140.90039</ele>
        <time>2024-02-28T14:55:15+01:00</time>
      </trkpt>
      <trkpt lat="50.04169" lon="2.34525">
        <ele>141</ele>
        <time>2024-02-28T14:55:19+01:00</time>
      </trkpt>
      <trkpt lat="50.04168" lon="2.34526">
        <ele>141</ele>
        <time>2024-02-28T14:55:20+01:00</time>
      </trkpt>
      <trkpt lat="50.04165" lon="2.34531">
        <ele>141</ele>
        <time>2024-02-28T14:55:24+01:00</time>
      </trkpt>
      <trkpt lat="50.04164" lon="2.34532">
        <ele>141</ele>
        <time>2024-02-28T14:55:25+01:00</time>
      </trkpt>
      <trkpt lat="50.0416" lon="2.34536">
        <ele>141</ele>
        <time>2024-02-28T14:55:29+01:00</time>
      </trkpt>
      <trkpt lat="50.04159" lon="2.34537">
        <ele>141.10059</ele>
        <time>2024-02-28T14:55:30+01:00</time>
      </trkpt>
      <trkpt lat="50.04156" lon="2.34543">
        <ele>141.10059</ele>
        <time>2024-02-28T14:55:34+01:00</time>
      </trkpt>
      <trkpt lat="50.04155" lon="2.34544">
        <ele>141.10059</ele>
        <time>2024-02-28T14:55:35+01:00</time>
      </trkpt>
      <trkpt lat="50.04151" lon="2.34549">
        <ele>141.10059</ele>
        <time>2024-02-28T14:55:39+01:00</time>
      </trkpt>
      <trkpt lat="50.0415" lon="2.3455">
        <ele>141.10059</ele>
        <time>2024-02-28T14:55:40+01:00</time>
      </trkpt>
      <trkpt lat="50.04148" lon="2.34555">
        <ele>141.2002</ele>
        <time>2024-02-28T14:55:44+01:00</time>
      </trkpt>
      <trkpt lat="50.04147" lon="2.34557">
        <ele>141.2002</ele>
        <time>2024-02-28T14:55:45+01:00</time>
      </trkpt>
      <trkpt lat="50.04143" lon="2.34562">
        <ele>141.2002</ele>
        <time>2024-02-28T14:55:49+01:00</time>
      </trkpt>
      <trkpt lat="50.04143" lon="2.34563">
        <ele>141.2998</ele>
        <time>2024-02-28T14:55:50+01:00</time>
      </trkpt>
      <trkpt lat="50.04139" lon="2.34567">
        <ele>141.2998</ele>
        <time>2024-02-28T14:55:54+01:00</time>
      </trkpt>
      <trkpt lat="50.04138" lon="2.34568">
        <ele>141.2998</ele>
        <time>2024-02-28T14:55:55+01:00</time>
      </trkpt>
      <trkpt lat="50.04135" lon="2.34571">
        <ele>141.2998</ele>
        <time>2024-02-28T14:55:59+01:00</time>
      </trkpt>
      <trkpt lat="50.04135" lon="2.34572">
        <ele>141.2998</ele>
        <time>2024-02-28T14:56:00+01:00</time>
      </trkpt>
      <trkpt lat="50.04134" lon="2.34576">
        <ele>141.2998</ele>
        <time>2024-02-28T14:56:04+01:00</time>
      </trkpt>
      <trkpt lat="50.04134" lon="2.34576">
        <ele>141.2998</ele>
        <time>2024-02-28T14:56:05+01:00</time>
      </trkpt>
      <trkpt lat="50.04135" lon="2.34577">
        <ele>141.2998</ele>
        <time>2024-02-28T14:56:09+01:00</time>
      </trkpt>
      <trkpt lat="50.04133" lon="2.34573">
        <ele>141.2998</ele>
        <time>2024-02-28T14:56:10+01:00</time>
      </trkpt>
      <trkpt lat="50.0413" lon="2.34577">
        <ele>141.40039</ele>
        <time>2024-02-28T14:56:14+01:00</time>
      </trkpt>
      <trkpt lat="50.0413" lon="2.34578">
        <ele>141.40039</ele>
        <time>2024-02-28T14:56:15+01:00</time>
      </trkpt>
      <trkpt lat="50.04127" lon="2.34583">
        <ele>141.40039</ele>
        <time>2024-02-28T14:56:19+01:00</time>
      </trkpt>
      <trkpt lat="50.04126" lon="2.34584">
        <ele>141.5</ele>
        <time>2024-02-28T14:56:20+01:00</time>
      </trkpt>
      <trkpt lat="50.04124" lon="2.34588">
        <ele>141.5</ele>
        <time>2024-02-28T14:56:24+01:00</time>
      </trkpt>
      <trkpt lat="50.04123" lon="2.34589">
        <ele>141.5</ele>
        <time>2024-02-28T14:56:25+01:00</time>
      </trkpt>
      <trkpt lat="50.0412" lon="2.34592">
        <ele>141.60059</ele>
        <time>2024-02-28T14:56:29+01:00</time>
      </trkpt>
      <trkpt lat="50.04119" lon="2.34593">
        <ele>141.60059</ele>
        <time>2024-02-28T14:56:30+01:00</time>
      </trkpt>
      <trkpt lat="50.04114" lon="2.34596">
        <ele>141.7002</ele>
        <time>2024-02-28T14:56:34+01:00</time>
      </trkpt>
      <trkpt lat="50.04113" lon="2.34597">
        <ele>141.7002</ele>
        <time>2024-02-28T14:56:35+01:00</time>
      </trkpt>
      <trkpt lat="50.04109" lon="2.346">
        <ele>141.7998</ele>
        <time>2024-02-28T14:56:39+01:00</time>
      </trkpt>
      <trkpt lat="50.04108" lon="2.34601">
        <ele>141.7998</ele>
        <time>2024-02-28T14:56:40+01:00</time>
      </trkpt>
      <trkpt lat="50.04105" lon="2.34604">
        <ele>141.7998</ele>
        <time>2024-02-28T14:56:44+01:00</time>
      </trkpt>
      <trkpt lat="50.04104" lon="2.34605">
        <ele>141.90039</ele>
        <time>2024-02-28T14:56:45+01:00</time>
      </trkpt>
      <trkpt lat="50.041" lon="2.34608">
        <ele>141.90039</ele>
        <time>2024-02-28T14:56:49+01:00</time>
      </trkpt>
      <trkpt lat="50.04099" lon="2.34609">
        <ele>142</ele>
        <time>2024-02-28T14:56:50+01:00</time>
      </trkpt>
      <trkpt lat="50.04095" lon="2.34613">
        <ele>142</ele>
        <time>2024-02-28T14:56:54+01:00</time>
      </trkpt>
      <trkpt lat="50.04094" lon="2.34614">
        <ele>142</ele>
        <time>2024-02-28T14:56:55+01:00</time>
      </trkpt>
      <trkpt lat="50.0409" lon="2.34618">
        <ele>142.2002</ele>
        <time>2024-02-28T14:56:59+01:00</time>
      </trkpt>
      <trkpt lat="50.04089" lon="2.34619">
        <ele>142.2002</ele>
        <time>2024-02-28T14:57:00+01:00</time>
      </trkpt>
      <trkpt lat="50.04085" lon="2.34623">
        <ele>142.2998</ele>
        <time>2024-02-28T14:57:04+01:00</time>
      </trkpt>
      <trkpt lat="50.04084" lon="2.34624">
        <ele>142.2998</ele>
        <time>2024-02-28T14:57:05+01:00</time>
      </trkpt>
      <trkpt lat="50.0408" lon="2.34627">
        <ele>142.5</ele>
        <time>2024-02-28T14:57:09+01:00</time>
      </trkpt>
      <trkpt lat="50.04079" lon="2.34628">
        <ele>142.5</ele>
        <time>2024-02-28T14:57:10+01:00</time>
      </trkpt>
      <trkpt lat="50.04076" lon="2.34631">
        <ele>142.60059</ele>
        <time>2024-02-28T14:57:14+01:00</time>
      </trkpt>
      <trkpt lat="50.04075" lon="2.34632">
        <ele>142.60059</ele>
        <time>2024-02-28T14:57:15+01:00</time>
      </trkpt>
      <trkpt lat="50.04071" lon="2.34636">
        <ele>142.7002</ele>
        <time>2024-02-28T14:57:19+01:00</time>
      </trkpt>
      <trkpt lat="50.0407" lon="2.34637">
        <ele>142.7002</ele>
        <time>2024-02-28T14:57:20+01:00</time>
      </trkpt>
      <trkpt lat="50.04067" lon="2.34641">
        <ele>142.7002</ele>
        <time>2024-02-28T14:57:24+01:00</time>
      </trkpt>
      <trkpt lat="50.04066" lon="2.34642">
        <ele>142.7998</ele>
        <time>2024-02-28T14:57:25+01:00</time>
      </trkpt>
      <trkpt lat="50.04062" lon="2.34646">
        <ele>142.90039</ele>
        <time>2024-02-28T14:57:29+01:00</time>
      </trkpt>
      <trkpt lat="50.04061" lon="2.34647">
        <ele>142.90039</ele>
        <time>2024-02-28T14:57:30+01:00</time>
      </trkpt>
      <trkpt lat="50.04058" lon="2.34651">
        <ele>142.90039</ele>
        <time>2024-02-28T14:57:34+01:00</time>
      </trkpt>
      <trkpt lat="50.04057" lon="2.34652">
        <ele>142.90039</ele>
        <time>2024-02-28T14:57:35+01:00</time>
      </trkpt>
      <trkpt lat="50.04054" lon="2.34656">
        <ele>143</ele>
        <time>2024-02-28T14:57:39+01:00</time>
      </trkpt>
      <trkpt lat="50.04053" lon="2.34657">
        <ele>143</ele>
        <time>2024-02-28T14:57:40+01:00</time>
      </trkpt>
      <trkpt lat="50.04049" lon="2.34661">
        <ele>143</ele>
        <time>2024-02-28T14:57:44+01:00</time>
      </trkpt>
      <trkpt lat="50.04048" lon="2.34662">
        <ele>143</ele>
        <time>2024-02-28T14:57:45+01:00</time>
      </trkpt>
      <trkpt lat="50.04044" lon="2.34667">
        <ele>143</ele>
        <time>2024-02-28T14:57:49+01:00</time>
      </trkpt>
      <trkpt lat="50.04043" lon="2.34668">
        <ele>143</ele>
        <time>2024-02-28T14:57:50+01:00</time>
      </trkpt>
      <trkpt lat="50.0404" lon="2.34672">
        <ele>143</ele>
        <time>2024-02-28T14:57:54+01:00</time>
      </trkpt>
      <trkpt lat="50.04039" lon="2.34673">
        <ele>143</ele>
        <time>2024-02-28T14:57:55+01:00</time>
      </trkpt>
      <trkpt lat="50.04035" lon="2.34676">
        <ele>143</ele>
        <time>2024-02-28T14:57:59+01:00</time>
      </trkpt>
      <trkpt lat="50.04034" lon="2.34677">
        <ele>143</ele>
        <time>2024-02-28T14:58:00+01:00</time>
      </trkpt>
      <trkpt lat="50.0403" lon="2.34682">
        <ele>143</ele>
        <time>2024-02-28T14:58:04+01:00</time>
      </trkpt>
      <trkpt lat="50.04029" lon="2.34683">
        <ele>143</ele>
        <time>2024-02-28T14:58:05+01:00</time>
      </trkpt>
      <trkpt lat="50.04025" lon="2.34686">
        <ele>143</ele>
        <time>2024-02-28T14:58:09+01:00</time>
      </trkpt>
      <trkpt lat="50.04024" lon="2.34687">
        <ele>143</ele>
        <time>2024-02-28T14:58:10+01:00</time>
      </trkpt>
      <trkpt lat="50.0402" lon="2.3469">
        <ele>143</ele>
        <time>2024-02-28T14:58:14+01:00</time>
      </trkpt>
      <trkpt lat="50.04019" lon="2.34691">
        <ele>143</ele>
        <time>2024-02-28T14:58:15+01:00</time>
      </trkpt>
      <trkpt lat="50.04016" lon="2.34695">
        <ele>143</ele>
        <time>2024-02-28T14:58:19+01:00</time>
      </trkpt>
      <trkpt lat="50.04015" lon="2.34696">
        <ele>143</ele>
        <time>2024-02-28T14:58:20+01:00</time>
      </trkpt>
      <trkpt lat="50.04012" lon="2.347">
        <ele>143</ele>
        <time>2024-02-28T14:58:24+01:00</time>
      </trkpt>
      <trkpt lat="50.04011" lon="2.347">
        <ele>143.10059</ele>
        <time>2024-02-28T14:58:25+01:00</time>
      </trkpt>
      <trkpt lat="50.04007" lon="2.34705">
        <ele>143.10059</ele>
        <time>2024-02-28T14:58:29+01:00</time>
      </trkpt>
      <trkpt lat="50.04006" lon="2.34706">
        <ele>143.10059</ele>
        <time>2024-02-28T14:58:30+01:00</time>
      </trkpt>
      <trkpt lat="50.04003" lon="2.34709">
        <ele>143.10059</ele>
        <time>2024-02-28T14:58:34+01:00</time>
      </trkpt>
      <trkpt lat="50.04002" lon="2.34709">
        <ele>143.10059</ele>
        <time>2024-02-28T14:58:35+01:00</time>
      </trkpt>
      <trkpt lat="50.03998" lon="2.34712">
        <ele>143.10059</ele>
        <time>2024-02-28T14:58:39+01:00</time>
      </trkpt>
      <trkpt lat="50.03997" lon="2.34712">
        <ele>143.10059</ele>
        <time>2024-02-28T14:58:40+01:00</time>
      </trkpt>
      <trkpt lat="50.03994" lon="2.34716">
        <ele>143.10059</ele>
        <time>2024-02-28T14:58:44+01:00</time>
      </trkpt>
      <trkpt lat="50.03993" lon="2.34718">
        <ele>143.10059</ele>
        <time>2024-02-28T14:58:45+01:00</time>
      </trkpt>
      <trkpt lat="50.0399" lon="2.34722">
        <ele>143.2002</ele>
        <time>2024-02-28T14:58:49+01:00</time>
      </trkpt>
      <trkpt lat="50.03989" lon="2.34723">
        <ele>143.2002</ele>
        <time>2024-02-28T14:58:50+01:00</time>
      </trkpt>
      <trkpt lat="50.03985" lon="2.34726">
        <ele>143.2002</ele>
        <time>2024-02-28T14:58:54+01:00</time>
      </trkpt>
      <trkpt lat="50.03984" lon="2.34726">
        <ele>143.2002</ele>
        <time>2024-02-28T14:58:55+01:00</time>
      </trkpt>
      <trkpt lat="50.0398" lon="2.34729">
        <ele>143.2002</ele>
        <time>2024-02-28T14:58:59+01:00</time>
      </trkpt>
      <trkpt lat="50.03979" lon="2.3473">
        <ele>143.2002</ele>
        <time>2024-02-28T14:59:00+01:00</time>
      </trkpt>
      <trkpt lat="50.03975" lon="2.34735">
        <ele>143.2998</ele>
        <time>2024-02-28T14:59:04+01:00</time>
      </trkpt>
      <trkpt lat="50.03975" lon="2.34736">
        <ele>143.2998</ele>
        <time>2024-02-28T14:59:05+01:00</time>
      </trkpt>
      <trkpt lat="50.03971" lon="2.3474">
        <ele>143.40039</ele>
        <time>2024-02-28T14:59:09+01:00</time>
      </trkpt>
      <trkpt lat="50.0397" lon="2.34741">
        <ele>143.40039</ele>
        <time>2024-02-28T14:59:10+01:00</time>
      </trkpt>
      <trkpt lat="50.03966" lon="2.34745">
        <ele>143.40039</ele>
        <time>2024-02-28T14:59:14+01:00</time>
      </trkpt>
      <trkpt lat="50.03965" lon="2.34745">
        <ele>143.40039</ele>
        <time>2024-02-28T14:59:15+01:00</time>
      </trkpt>
      <trkpt lat="50.03962" lon="2.3475">
        <ele>143.40039</ele>
        <time>2024-02-28T14:59:19+01:00</time>
      </trkpt>
      <trkpt lat="50.03961" lon="2.34751">
        <ele>143.5</ele>
        <time>2024-02-28T14:59:20+01:00</time>
      </trkpt>
      <trkpt lat="50.03958" lon="2.34755">
        <ele>143.5</ele>
        <time>2024-02-28T14:59:24+01:00</time>
      </trkpt>
      <trkpt lat="50.03957" lon="2.34756">
        <ele>143.5</ele>
        <time>2024-02-28T14:59:25+01:00</time>
      </trkpt>
      <trkpt lat="50.03953" lon="2.34759">
        <ele>143.5</ele>
        <time>2024-02-28T14:59:29+01:00</time>
      </trkpt>
      <trkpt lat="50.03952" lon="2.3476">
        <ele>143.5</ele>
        <time>2024-02-28T14:59:30+01:00</time>
      </trkpt>
      <trkpt lat="50.03948" lon="2.34764">
        <ele>143.60059</ele>
        <time>2024-02-28T14:59:34+01:00</time>
      </trkpt>
      <trkpt lat="50.03948" lon="2.34764">
        <ele>143.60059</ele>
        <time>2024-02-28T14:59:35+01:00</time>
      </trkpt>
      <trkpt lat="50.03944" lon="2.34769">
        <ele>143.7002</ele>
        <time>2024-02-28T14:59:39+01:00</time>
      </trkpt>
      <trkpt lat="50.03943" lon="2.3477">
        <ele>143.7002</ele>
        <time>2024-02-28T14:59:40+01:00</time>
      </trkpt>
      <trkpt lat="50.0394" lon="2.34774">
        <ele>143.7002</ele>
        <time>2024-02-28T14:59:44+01:00</time>
      </trkpt>
      <trkpt lat="50.03939" lon="2.34775">
        <ele>143.7002</ele>
        <time>2024-02-28T14:59:45+01:00</time>
      </trkpt>
      <trkpt lat="50.03935" lon="2.34779">
        <ele>143.7002</ele>
        <time>2024-02-28T14:59:49+01:00</time>
      </trkpt>
      <trkpt lat="50.03935" lon="2.34779">
        <ele>143.7002</ele>
        <time>2024-02-28T14:59:50+01:00</time>
      </trkpt>
      <trkpt lat="50.03931" lon="2.34783">
        <ele>143.7998</ele>
        <time>2024-02-28T14:59:54+01:00</time>
      </trkpt>
      <trkpt lat="50.0393" lon="2.34784">
        <ele>143.7998</ele>
        <time>2024-02-28T14:59:55+01:00</time>
      </trkpt>
      <trkpt lat="50.03926" lon="2.34787">
        <ele>143.7998</ele>
        <time>2024-02-28T14:59:59+01:00</time>
      </trkpt>
      <trkpt lat="50.03925" lon="2.34788">
        <ele>143.7998</ele>
        <time>2024-02-28T15:00:00+01:00</time>
      </trkpt>
      <trkpt lat="50.03921" lon="2.34792">
        <ele>143.7998</ele>
        <time>2024-02-28T15:00:04+01:00</time>
      </trkpt>
      <trkpt lat="50.0392" lon="2.34793">
        <ele>143.7998</ele>
        <time>2024-02-28T15:00:05+01:00</time>
      </trkpt>
      <trkpt lat="50.03916" lon="2.34797">
        <ele>143.7998</ele>
        <time>2024-02-28T15:00:09+01:00</time>
      </trkpt>
      <trkpt lat="50.03915" lon="2.34799">
        <ele>143.7998</ele>
        <time>2024-02-28T15:00:10+01:00</time>
      </trkpt>
      <trkpt lat="50.03912" lon="2.34802">
        <ele>143.7998</ele>
        <time>2024-02-28T15:00:14+01:00</time>
      </trkpt>
      <trkpt lat="50.03911" lon="2.34803">
        <ele>143.7998</ele>
        <time>2024-02-28T15:00:15+01:00</time>
      </trkpt>
      <trkpt lat="50.03907" lon="2.34808">
        <ele>143.7998</ele>
        <time>2024-02-28T15:00:19+01:00</time>
      </trkpt>
      <trkpt lat="50.03906" lon="2.34809">
        <ele>143.7998</ele>
        <time>2024-02-28T15:00:20+01:00</time>
      </trkpt>
      <trkpt lat="50.03903" lon="2.34813">
        <ele>143.7998</ele>
        <time>2024-02-28T15:00:24+01:00</time>
      </trkpt>
      <trkpt lat="50.03902" lon="2.34814">
        <ele>143.7998</ele>
        <time>2024-02-28T15:00:25+01:00</time>
      </trkpt>
      <trkpt lat="50.03898" lon="2.34819">
        <ele>143.7998</ele>
        <time>2024-02-28T15:00:29+01:00</time>
      </trkpt>
      <trkpt lat="50.03897" lon="2.3482">
        <ele>143.7998</ele>
        <time>2024-02-28T15:00:30+01:00</time>
      </trkpt>
      <trkpt lat="50.03894" lon="2.34824">
        <ele>143.7002</ele>
        <time>2024-02-28T15:00:34+01:00</time>
      </trkpt>
      <trkpt lat="50.03893" lon="2.34825">
        <ele>143.7002</ele>
        <time>2024-02-28T15:00:35+01:00</time>
      </trkpt>
      <trkpt lat="50.03889" lon="2.34828">
        <ele>143.7002</ele>
        <time>2024-02-28T15:00:39+01:00</time>
      </trkpt>
      <trkpt lat="50.03888" lon="2.34829">
        <ele>143.7002</ele>
        <time>2024-02-28T15:00:40+01:00</time>
      </trkpt>
      <trkpt lat="50.03884" lon="2.34831">
        <ele>143.60059</ele>
        <time>2024-02-28T15:00:44+01:00</time>
      </trkpt>
      <trkpt lat="50.03883" lon="2.34832">
        <ele>143.60059</ele>
        <time>2024-02-28T15:00:45+01:00</time>
      </trkpt>
      <trkpt lat="50.03879" lon="2.34837">
        <ele>143.60059</ele>
        <time>2024-02-28T15:00:49+01:00</time>
      </trkpt>
      <trkpt lat="50.03878" lon="2.34839">
        <ele>143.5</ele>
        <time>2024-02-28T15:00:50+01:00</time>
      </trkpt>
      <trkpt lat="50.03874" lon="2.34843">
        <ele>143.5</ele>
        <time>2024-02-28T15:00:54+01:00</time>
      </trkpt>
      <trkpt lat="50.03873" lon="2.34844">
        <ele>143.5</ele>
        <time>2024-02-28T15:00:55+01:00</time>
      </trkpt>
      <trkpt lat="50.03869" lon="2.34848">
        <ele>143.40039</ele>
        <time>2024-02-28T15:00:59+01:00</time>
      </trkpt>
      <trkpt lat="50.03869" lon="2.34849">
        <ele>143.40039</ele>
        <time>2024-02-28T15:01:00+01:00</time>
      </trkpt>
      <trkpt lat="50.03865" lon="2.34854">
        <ele>143.2998</ele>
        <time>2024-02-28T15:01:04+01:00</time>
      </trkpt>
      <trkpt lat="50.03864" lon="2.34855">
        <ele>143.2998</ele>
        <time>2024-02-28T15:01:05+01:00</time>
      </trkpt>
      <trkpt lat="50.0386" lon="2.34859">
        <ele>143.2998</ele>
        <time>2024-02-28T15:01:09+01:00</time>
      </trkpt>
      <trkpt lat="50.03859" lon="2.3486">
        <ele>143.2998</ele>
        <time>2024-02-28T15:01:10+01:00</time>
      </trkpt>
      <trkpt lat="50.03855" lon="2.34864">
        <ele>143.2002</ele>
        <time>2024-02-28T15:01:14+01:00</time>
      </trkpt>
      <trkpt lat="50.03853" lon="2.34865">
        <ele>143.2002</ele>
        <time>2024-02-28T15:01:15+01:00</time>
      </trkpt>
      <trkpt lat="50.03849" lon="2.3487">
        <ele>143.2002</ele>
        <time>2024-02-28T15:01:19+01:00</time>
      </trkpt>
      <trkpt lat="50.03848" lon="2.34871">
        <ele>143.2002</ele>
        <time>2024-02-28T15:01:20+01:00</time>
      </trkpt>
      <trkpt lat="50.03844" lon="2.34875">
        <ele>143.10059</ele>
        <time>2024-02-28T15:01:24+01:00</time>
      </trkpt>
      <trkpt lat="50.03843" lon="2.34876">
        <ele>143.10059</ele>
        <time>2024-02-28T15:01:25+01:00</time>
      </trkpt>
      <trkpt lat="50.03839" lon="2.34879">
        <ele>143.10059</ele>
        <time>2024-02-28T15:01:29+01:00</time>
      </trkpt>
      <trkpt lat="50.03839" lon="2.3488">
        <ele>143.10059</ele>
        <time>2024-02-28T15:01:30+01:00</time>
      </trkpt>
      <trkpt lat="50.03835" lon="2.34884">
        <ele>143.10059</ele>
        <time>2024-02-28T15:01:34+01:00</time>
      </trkpt>
      <trkpt lat="50.03834" lon="2.34885">
        <ele>143.10059</ele>
        <time>2024-02-28T15:01:35+01:00</time>
      </trkpt>
      <trkpt lat="50.0383" lon="2.34889">
        <ele>143.10059</ele>
        <time>2024-02-28T15:01:39+01:00</time>
      </trkpt>
      <trkpt lat="50.03829" lon="2.3489">
        <ele>143.10059</ele>
        <time>2024-02-28T15:01:40+01:00</time>
      </trkpt>
      <trkpt lat="50.03825" lon="2.34894">
        <ele>143.10059</ele>
        <time>2024-02-28T15:01:44+01:00</time>
      </trkpt>
      <trkpt lat="50.03824" lon="2.34895">
        <ele>143.10059</ele>
        <time>2024-02-28T15:01:45+01:00</time>
      </trkpt>
      <trkpt lat="50.03819" lon="2.34899">
        <ele>143</ele>
        <time>2024-02-28T15:01:49+01:00</time>
      </trkpt>
      <trkpt lat="50.03818" lon="2.349">
        <ele>143</ele>
        <time>2024-02-28T15:01:50+01:00</time>
      </trkpt>
      <trkpt lat="50.03815" lon="2.34903">
        <ele>143</ele>
        <time>2024-02-28T15:01:54+01:00</time>
      </trkpt>
      <trkpt lat="50.03813" lon="2.34903">
        <ele>143</ele>
        <time>2024-02-28T15:01:55+01:00</time>
      </trkpt>
      <trkpt lat="50.0381" lon="2.34908">
        <ele>143</ele>
        <time>2024-02-28T15:01:59+01:00</time>
      </trkpt>
      <trkpt lat="50.03809" lon="2.34909">
        <ele>143</ele>
        <time>2024-02-28T15:02:00+01:00</time>
      </trkpt>
      <trkpt lat="50.03805" lon="2.34913">
        <ele>143</ele>
        <time>2024-02-28T15:02:04+01:00</time>
      </trkpt>
      <trkpt lat="50.03805" lon="2.34914">
        <ele>143</ele>
        <time>2024-02-28T15:02:05+01:00</time>
      </trkpt>
      <trkpt lat="50.03801" lon="2.34918">
        <ele>143</ele>
        <time>2024-02-28T15:02:09+01:00</time>
      </trkpt>
      <trkpt lat="50.038" lon="2.34919">
        <ele>143</ele>
        <time>2024-02-28T15:02:10+01:00</time>
      </trkpt>
      <trkpt lat="50.03796" lon="2.34922">
        <ele>143</ele>
        <time>2024-02-28T15:02:14+01:00</time>
      </trkpt>
      <trkpt lat="50.03795" lon="2.34923">
        <ele>143</ele>
        <time>2024-02-28T15:02:15+01:00</time>
      </trkpt>
      <trkpt lat="50.03792" lon="2.34926">
        <ele>143</ele>
        <time>2024-02-28T15:02:19+01:00</time>
      </trkpt>
      <trkpt lat="50.03791" lon="2.34927">
        <ele>143</ele>
        <time>2024-02-28T15:02:20+01:00</time>
      </trkpt>
      <trkpt lat="50.03788" lon="2.34928">
        <ele>143</ele>
        <time>2024-02-28T15:02:24+01:00</time>
      </trkpt>
      <trkpt lat="50.03787" lon="2.34927">
        <ele>143</ele>
        <time>2024-02-28T15:02:25+01:00</time>
      </trkpt>
      <trkpt lat="50.03784" lon="2.34928">
        <ele>143</ele>
        <time>2024-02-28T15:02:29+01:00</time>
      </trkpt>
      <trkpt lat="50.03783" lon="2.34928">
        <ele>143</ele>
        <time>2024-02-28T15:02:30+01:00</time>
      </trkpt>
      <trkpt lat="50.0378" lon="2.34931">
        <ele>143</ele>
        <time>2024-02-28T15:02:34+01:00</time>
      </trkpt>
      <trkpt lat="50.03779" lon="2.34932">
        <ele>143</ele>
        <time>2024-02-28T15:02:35+01:00</time>
      </trkpt>
      <trkpt lat="50.03776" lon="2.34937">
        <ele>143</ele>
        <time>2024-02-28T15:02:39+01:00</time>
      </trkpt>
      <trkpt lat="50.03775" lon="2.34938">
        <ele>143</ele>
        <time>2024-02-28T15:02:40+01:00</time>
      </trkpt>
      <trkpt lat="50.03773" lon="2.3494">
        <ele>143</ele>
        <time>2024-02-28T15:02:44+01:00</time>
      </trkpt>
      <trkpt lat="50.03772" lon="2.34941">
        <ele>143</ele>
        <time>2024-02-28T15:02:45+01:00</time>
      </trkpt>
      <trkpt lat="50.0377" lon="2.34944">
        <ele>143</ele>
        <time>2024-02-28T15:02:49+01:00</time>
      </trkpt>
      <trkpt lat="50.03769" lon="2.34945">
        <ele>143</ele>
        <time>2024-02-28T15:02:50+01:00</time>
      </trkpt>
      <trkpt lat="50.03766" lon="2.34949">
        <ele>143</ele>
        <time>2024-02-28T15:02:54+01:00</time>
      </trkpt>
      <trkpt lat="50.03766" lon="2.3495">
        <ele>143</ele>
        <time>2024-02-28T15:02:55+01:00</time>
      </trkpt>
      <trkpt lat="50.03763" lon="2.34954">
        <ele>143</ele>
        <time>2024-02-28T15:02:59+01:00</time>
      </trkpt>
      <trkpt lat="50.03762" lon="2.34955">
        <ele>143</ele>
        <time>2024-02-28T15:03:00+01:00</time>
      </trkpt>
      <trkpt lat="50.03759" lon="2.34959">
        <ele>143</ele>
        <time>2024-02-28T15:03:04+01:00</time>
      </trkpt>
      <trkpt lat="50.03758" lon="2.3496">
        <ele>143</ele>
        <time>2024-02-28T15:03:05+01:00</time>
      </trkpt>
      <trkpt lat="50.03754" lon="2.34963">
        <ele>142.90039</ele>
        <time>2024-02-28T15:03:09+01:00</time>
      </trkpt>
      <trkpt lat="50.03753" lon="2.34964">
        <ele>142.90039</ele>
        <time>2024-02-28T15:03:10+01:00</time>
      </trkpt>
      <trkpt lat="50.03749" lon="2.34967">
        <ele>142.90039</ele>
        <time>2024-02-28T15:03:14+01:00</time>
      </trkpt>
      <trkpt lat="50.03748" lon="2.34967">
        <ele>142.90039</ele>
        <time>2024-02-28T15:03:15+01:00</time>
      </trkpt>
      <trkpt lat="50.03745" lon="2.3497">
        <ele>142.7998</ele>
        <time>2024-02-28T15:03:19+01:00</time>
      </trkpt>
      <trkpt lat="50.03744" lon="2.3497">
        <ele>142.7998</ele>
        <time>2024-02-28T15:03:20+01:00</time>
      </trkpt>
      <trkpt lat="50.03741" lon="2.3497">
        <ele>142.7002</ele>
        <time>2024-02-28T15:03:24+01:00</time>
      </trkpt>
      <trkpt lat="50.03741" lon="2.34971">
        <ele>142.7002</ele>
        <time>2024-02-28T15:03:25+01:00</time>
      </trkpt>
      <trkpt lat="50.03741" lon="2.34972">
        <ele>142.7002</ele>
        <time>2024-02-28T15:03:29+01:00</time>
      </trkpt>
      <trkpt lat="50.03742" lon="2.34969">
        <ele>142.7998</ele>
        <time>2024-02-28T15:03:30+01:00</time>
      </trkpt>
      <trkpt lat="50.03741" lon="2.34969">
        <ele>142.7998</ele>
        <time>2024-02-28T15:03:34+01:00</time>
      </trkpt>
      <trkpt lat="50.03741" lon="2.34969">
        <ele>142.7998</ele>
        <time>2024-02-28T15:03:35+01:00</time>
      </trkpt>
      <trkpt lat="50.03741" lon="2.34968">
        <ele>142.7002</ele>
        <time>2024-02-28T15:03:39+01:00</time>
      </trkpt>
      <trkpt lat="50.03742" lon="2.34966">
        <ele>142.7998</ele>
        <time>2024-02-28T15:03:40+01:00</time>
      </trkpt>
      <trkpt lat="50.03743" lon="2.34966">
        <ele>142.7998</ele>
        <time>2024-02-28T15:03:44+01:00</time>
      </trkpt>
      <trkpt lat="50.03743" lon="2.34966">
        <ele>142.7998</ele>
        <time>2024-02-28T15:03:45+01:00</time>
      </trkpt>
      <trkpt lat="50.03744" lon="2.34966">
        <ele>142.7998</ele>
        <time>2024-02-28T15:03:49+01:00</time>
      </trkpt>
      <trkpt lat="50.03744" lon="2.34966">
        <ele>142.7998</ele>
        <time>2024-02-28T15:03:53+01:00</time>
      </trkpt>
      <trkpt lat="50.03738" lon="2.34962">
        <ele>142.7002</ele>
        <time>2024-02-28T15:03:54+01:00</time>
      </trkpt>
      <trkpt lat="50.03736" lon="2.3496">
        <ele>142.7002</ele>
        <time>2024-02-28T15:03:58+01:00</time>
      </trkpt>
      <trkpt lat="50.03736" lon="2.34962">
        <ele>142.7002</ele>
        <time>2024-02-28T15:03:59+01:00</time>
      </trkpt>
      <trkpt lat="50.03735" lon="2.34963">
        <ele>142.5</ele>
        <time>2024-02-28T15:04:03+01:00</time>
      </trkpt>
      <trkpt lat="50.03734" lon="2.34963">
        <ele>142.5</ele>
        <time>2024-02-28T15:04:04+01:00</time>
      </trkpt>
      <trkpt lat="50.03732" lon="2.34959">
        <ele>142.60059</ele>
        <time>2024-02-28T15:04:08+01:00</time>
      </trkpt>
      <trkpt lat="50.03732" lon="2.34959">
        <ele>142.60059</ele>
        <time>2024-02-28T15:04:09+01:00</time>
      </trkpt>
      <trkpt lat="50.03732" lon="2.34957">
        <ele>142.60059</ele>
        <time>2024-02-28T15:04:13+01:00</time>
      </trkpt>
      <trkpt lat="50.03729" lon="2.34948">
        <ele>142.5</ele>
        <time>2024-02-28T15:04:14+01:00</time>
      </trkpt>
      <trkpt lat="50.03726" lon="2.34941">
        <ele>142.5</ele>
        <time>2024-02-28T15:04:18+01:00</time>
      </trkpt>
      <trkpt lat="50.03725" lon="2.3494">
        <ele>142.5</ele>
        <time>2024-02-28T15:04:19+01:00</time>
      </trkpt>
      <trkpt lat="50.03723" lon="2.34932">
        <ele>142.40039</ele>
        <time>2024-02-28T15:04:23+01:00</time>
      </trkpt>
      <trkpt lat="50.03723" lon="2.3493">
        <ele>142.40039</ele>
        <time>2024-02-28T15:04:24+01:00</time>
      </trkpt>
      <trkpt lat="50.03722" lon="2.34922">
        <ele>142.40039</ele>
        <time>2024-02-28T15:04:28+01:00</time>
      </trkpt>
      <trkpt lat="50.03721" lon="2.3492">
        <ele>142.40039</ele>
        <time>2024-02-28T15:04:29+01:00</time>
      </trkpt>
      <trkpt lat="50.03719" lon="2.34911">
        <ele>142.40039</ele>
        <time>2024-02-28T15:04:33+01:00</time>
      </trkpt>
      <trkpt lat="50.03719" lon="2.34909">
        <ele>142.40039</ele>
        <time>2024-02-28T15:04:34+01:00</time>
      </trkpt>
      <trkpt lat="50.03717" lon="2.349">
        <ele>142.2998</ele>
        <time>2024-02-28T15:04:38+01:00</time>
      </trkpt>
      <trkpt lat="50.03717" lon="2.34898">
        <ele>142.2998</ele>
        <time>2024-02-28T15:04:39+01:00</time>
      </trkpt>
      <trkpt lat="50.03715" lon="2.34891">
        <ele>142.2998</ele>
        <time>2024-02-28T15:04:43+01:00</time>
      </trkpt>
      <trkpt lat="50.03715" lon="2.34889">
        <ele>142.2998</ele>
        <time>2024-02-28T15:04:44+01:00</time>
      </trkpt>
      <trkpt lat="50.03714" lon="2.34882">
        <ele>142.2998</ele>
        <time>2024-02-28T15:04:48+01:00</time>
      </trkpt>
      <trkpt lat="50.03713" lon="2.34881">
        <ele>142.2998</ele>
        <time>2024-02-28T15:04:49+01:00</time>
      </trkpt>
      <trkpt lat="50.03712" lon="2.34874">
        <ele>142.2002</ele>
        <time>2024-02-28T15:04:53+01:00</time>
      </trkpt>
      <trkpt lat="50.03711" lon="2.34872">
        <ele>142.2002</ele>
        <time>2024-02-28T15:04:54+01:00</time>
      </trkpt>
      <trkpt lat="50.03709" lon="2.34866">
        <ele>142.2002</ele>
        <time>2024-02-28T15:04:58+01:00</time>
      </trkpt>
      <trkpt lat="50.03709" lon="2.34864">
        <ele>142.2002</ele>
        <time>2024-02-28T15:04:59+01:00</time>
      </trkpt>
      <trkpt lat="50.03706" lon="2.34858">
        <ele>142.10059</ele>
        <time>2024-02-28T15:05:03+01:00</time>
      </trkpt>
      <trkpt lat="50.03706" lon="2.34857">
        <ele>142.10059</ele>
        <time>2024-02-28T15:05:04+01:00</time>
      </trkpt>
      <trkpt lat="50.03704" lon="2.3485">
        <ele>142.10059</ele>
        <time>2024-02-28T15:05:08+01:00</time>
      </trkpt>
      <trkpt lat="50.03703" lon="2.34848">
        <ele>142.10059</ele>
        <time>2024-02-28T15:05:09+01:00</time>
      </trkpt>
      <trkpt lat="50.03702" lon="2.34842">
        <ele>142.10059</ele>
        <time>2024-02-28T15:05:13+01:00</time>
      </trkpt>
      <trkpt lat="50.03702" lon="2.34841">
        <ele>141.90039</ele>
        <time>2024-02-28T15:05:14+01:00</time>
      </trkpt>
      <trkpt lat="50.037" lon="2.34834">
        <ele>141.90039</ele>
        <time>2024-02-28T15:05:18+01:00</time>
      </trkpt>
      <trkpt lat="50.037" lon="2.34833">
        <ele>141.90039</ele>
        <time>2024-02-28T15:05:19+01:00</time>
      </trkpt>
      <trkpt lat="50.03699" lon="2.34827">
        <ele>141.90039</ele>
        <time>2024-02-28T15:05:23+01:00</time>
      </trkpt>
      <trkpt lat="50.03699" lon="2.34825">
        <ele>141.90039</ele>
        <time>2024-02-28T15:05:24+01:00</time>
      </trkpt>
      <trkpt lat="50.03697" lon="2.34819">
        <ele>141.90039</ele>
        <time>2024-02-28T15:05:28+01:00</time>
      </trkpt>
      <trkpt lat="50.03697" lon="2.34817">
        <ele>141.7998</ele>
        <time>2024-02-28T15:05:29+01:00</time>
      </trkpt>
      <trkpt lat="50.03695" lon="2.3481">
        <ele>141.7002</ele>
        <time>2024-02-28T15:05:33+01:00</time>
      </trkpt>
      <trkpt lat="50.03694" lon="2.34809">
        <ele>141.7002</ele>
        <time>2024-02-28T15:05:34+01:00</time>
      </trkpt>
      <trkpt lat="50.03693" lon="2.34802">
        <ele>141.7002</ele>
        <time>2024-02-28T15:05:38+01:00</time>
      </trkpt>
      <trkpt lat="50.03692" lon="2.348">
        <ele>141.7002</ele>
        <time>2024-02-28T15:05:39+01:00</time>
      </trkpt>
      <trkpt lat="50.03691" lon="2.34794">
        <ele>141.5</ele>
        <time>2024-02-28T15:05:43+01:00</time>
      </trkpt>
      <trkpt lat="50.0369" lon="2.34792">
        <ele>141.5</ele>
        <time>2024-02-28T15:05:44+01:00</time>
      </trkpt>
      <trkpt lat="50.03689" lon="2.34786">
        <ele>141.5</ele>
        <time>2024-02-28T15:05:48+01:00</time>
      </trkpt>
      <trkpt lat="50.03688" lon="2.34784">
        <ele>141.5</ele>
        <time>2024-02-28T15:05:49+01:00</time>
      </trkpt>
      <trkpt lat="50.03687" lon="2.34777">
        <ele>141.5</ele>
        <time>2024-02-28T15:05:53+01:00</time>
      </trkpt>
      <trkpt lat="50.03686" lon="2.34776">
        <ele>141.5</ele>
        <time>2024-02-28T15:05:54+01:00</time>
      </trkpt>
      <trkpt lat="50.03685" lon="2.3477">
        <ele>141.2998</ele>
        <time>2024-02-28T15:05:58+01:00</time>
      </trkpt>
      <trkpt lat="50.03685" lon="2.34769">
        <ele>141.2998</ele>
        <time>2024-02-28T15:05:59+01:00</time>
      </trkpt>
      <trkpt lat="50.03684" lon="2.34763">
        <ele>141.2998</ele>
        <time>2024-02-28T15:06:03+01:00</time>
      </trkpt>
      <trkpt lat="50.03683" lon="2.34761">
        <ele>141.2998</ele>
        <time>2024-02-28T15:06:04+01:00</time>
      </trkpt>
      <trkpt lat="50.03682" lon="2.34755">
        <ele>141.2998</ele>
        <time>2024-02-28T15:06:08+01:00</time>
      </trkpt>
      <trkpt lat="50.03682" lon="2.34753">
        <ele>141.2998</ele>
        <time>2024-02-28T15:06:09+01:00</time>
      </trkpt>
      <trkpt lat="50.03681" lon="2.34747">
        <ele>141.2998</ele>
        <time>2024-02-28T15:06:13+01:00</time>
      </trkpt>
      <trkpt lat="50.0368" lon="2.34745">
        <ele>141.2998</ele>
        <time>2024-02-28T15:06:14+01:00</time>
      </trkpt>
      <trkpt lat="50.03679" lon="2.34739">
        <ele>141.2002</ele>
        <time>2024-02-28T15:06:18+01:00</time>
      </trkpt>
      <trkpt lat="50.03679" lon="2.34738">
        <ele>141.2002</ele>
        <time>2024-02-28T15:06:19+01:00</time>
      </trkpt>
      <trkpt lat="50.03678" lon="2.34731">
        <ele>141.2002</ele>
        <time>2024-02-28T15:06:23+01:00</time>
      </trkpt>
      <trkpt lat="50.03677" lon="2.34729">
        <ele>141.2002</ele>
        <time>2024-02-28T15:06:24+01:00</time>
      </trkpt>
      <trkpt lat="50.03675" lon="2.34724">
        <ele>141.2002</ele>
        <time>2024-02-28T15:06:28+01:00</time>
      </trkpt>
      <trkpt lat="50.03675" lon="2.34722">
        <ele>141.2002</ele>
        <time>2024-02-28T15:06:29+01:00</time>
      </trkpt>
      <trkpt lat="50.03673" lon="2.34716">
        <ele>141.10059</ele>
        <time>2024-02-28T15:06:33+01:00</time>
      </trkpt>
      <trkpt lat="50.03673" lon="2.34714">
        <ele>141.10059</ele>
        <time>2024-02-28T15:06:34+01:00</time>
      </trkpt>
      <trkpt lat="50.03671" lon="2.34708">
        <ele>141.10059</ele>
        <time>2024-02-28T15:06:38+01:00</time>
      </trkpt>
      <trkpt lat="50.03671" lon="2.34707">
        <ele>141.10059</ele>
        <time>2024-02-28T15:06:39+01:00</time>
      </trkpt>
      <trkpt lat="50.03669" lon="2.347">
        <ele>141</ele>
        <time>2024-02-28T15:06:43+01:00</time>
      </trkpt>
      <trkpt lat="50.03668" lon="2.34698">
        <ele>141</ele>
        <time>2024-02-28T15:06:44+01:00</time>
      </trkpt>
      <trkpt lat="50.03666" lon="2.34693">
        <ele>141</ele>
        <time>2024-02-28T15:06:48+01:00</time>
      </trkpt>
      <trkpt lat="50.03665" lon="2.34693">
        <ele>141</ele>
        <time>2024-02-28T15:06:49+01:00</time>
      </trkpt>
      <trkpt lat="50.03663" lon="2.34693">
        <ele>140.90039</ele>
        <time>2024-02-28T15:06:53+01:00</time>
      </trkpt>
      <trkpt lat="50.03663" lon="2.34691">
        <ele>140.90039</ele>
        <time>2024-02-28T15:06:54+01:00</time>
      </trkpt>
      <trkpt lat="50.03662" lon="2.34685">
        <ele>140.90039</ele>
        <time>2024-02-28T15:06:58+01:00</time>
      </trkpt>
      <trkpt lat="50.03662" lon="2.34683">
        <ele>140.90039</ele>
        <time>2024-02-28T15:06:59+01:00</time>
      </trkpt>
      <trkpt lat="50.03661" lon="2.34677">
        <ele>140.90039</ele>
        <time>2024-02-28T15:07:03+01:00</time>
      </trkpt>
      <trkpt lat="50.03661" lon="2.34675">
        <ele>140.90039</ele>
        <time>2024-02-28T15:07:04+01:00</time>
      </trkpt>
      <trkpt lat="50.03661" lon="2.34668">
        <ele>140.90039</ele>
        <time>2024-02-28T15:07:08+01:00</time>
      </trkpt>
      <trkpt lat="50.03661" lon="2.34667">
        <ele>140.90039</ele>
        <time>2024-02-28T15:07:09+01:00</time>
      </trkpt>
      <trkpt lat="50.0366" lon="2.3466">
        <ele>140.90039</ele>
        <time>2024-02-28T15:07:13+01:00</time>
      </trkpt>
      <trkpt lat="50.03659" lon="2.34658">
        <ele>140.90039</ele>
        <time>2024-02-28T15:07:14+01:00</time>
      </trkpt>
      <trkpt lat="50.03658" lon="2.34651">
        <ele>140.7998</ele>
        <time>2024-02-28T15:07:18+01:00</time>
      </trkpt>
      <trkpt lat="50.03657" lon="2.34649">
        <ele>140.7998</ele>
        <time>2024-02-28T15:07:19+01:00</time>
      </trkpt>
      <trkpt lat="50.03656" lon="2.34643">
        <ele>140.90039</ele>
        <time>2024-02-28T15:07:23+01:00</time>
      </trkpt>
      <trkpt lat="50.03656" lon="2.34642">
        <ele>140.90039</ele>
        <time>2024-02-28T15:07:24+01:00</time>
      </trkpt>
      <trkpt lat="50.03654" lon="2.34636">
        <ele>140.90039</ele>
        <time>2024-02-28T15:07:28+01:00</time>
      </trkpt>
      <trkpt lat="50.03654" lon="2.34634">
        <ele>140.90039</ele>
        <time>2024-02-28T15:07:29+01:00</time>
      </trkpt>
      <trkpt lat="50.03652" lon="2.34627">
        <ele>140.7998</ele>
        <time>2024-02-28T15:07:33+01:00</time>
      </trkpt>
      <trkpt lat="50.03652" lon="2.34626">
        <ele>140.7998</ele>
        <time>2024-02-28T15:07:34+01:00</time>
      </trkpt>
      <trkpt lat="50.0365" lon="2.3462">
        <ele>140.7998</ele>
        <time>2024-02-28T15:07:38+01:00</time>
      </trkpt>
      <trkpt lat="50.0365" lon="2.34618">
        <ele>140.7998</ele>
        <time>2024-02-28T15:07:39+01:00</time>
      </trkpt>
      <trkpt lat="50.03649" lon="2.34611">
        <ele>140.7998</ele>
        <time>2024-02-28T15:07:43+01:00</time>
      </trkpt>
      <trkpt lat="50.03649" lon="2.3461">
        <ele>140.7998</ele>
        <time>2024-02-28T15:07:44+01:00</time>
      </trkpt>
      <trkpt lat="50.03647" lon="2.34603">
        <ele>140.7002</ele>
        <time>2024-02-28T15:07:48+01:00</time>
      </trkpt>
      <trkpt lat="50.03646" lon="2.34602">
        <ele>140.7002</ele>
        <time>2024-02-28T15:07:49+01:00</time>
      </trkpt>
      <trkpt lat="50.03645" lon="2.34595">
        <ele>140.7998</ele>
        <time>2024-02-28T15:07:53+01:00</time>
      </trkpt>
      <trkpt lat="50.03645" lon="2.34593">
        <ele>140.7998</ele>
        <time>2024-02-28T15:07:54+01:00</time>
      </trkpt>
      <trkpt lat="50.03643" lon="2.34586">
        <ele>140.7998</ele>
        <time>2024-02-28T15:07:58+01:00</time>
      </trkpt>
      <trkpt lat="50.03643" lon="2.34585">
        <ele>140.7998</ele>
        <time>2024-02-28T15:07:59+01:00</time>
      </trkpt>
      <trkpt lat="50.03642" lon="2.34578">
        <ele>140.7998</ele>
        <time>2024-02-28T15:08:03+01:00</time>
      </trkpt>
      <trkpt lat="50.03642" lon="2.34577">
        <ele>140.7998</ele>
        <time>2024-02-28T15:08:04+01:00</time>
      </trkpt>
      <trkpt lat="50.03641" lon="2.3457">
        <ele>140.7002</ele>
        <time>2024-02-28T15:08:08+01:00</time>
      </trkpt>
      <trkpt lat="50.03641" lon="2.34569">
        <ele>140.7002</ele>
        <time>2024-02-28T15:08:09+01:00</time>
      </trkpt>
      <trkpt lat="50.03639" lon="2.34562">
        <ele>140.7002</ele>
        <time>2024-02-28T15:08:13+01:00</time>
      </trkpt>
      <trkpt lat="50.03639" lon="2.3456">
        <ele>140.7002</ele>
        <time>2024-02-28T15:08:14+01:00</time>
      </trkpt>
      <trkpt lat="50.03638" lon="2.34554">
        <ele>140.7998</ele>
        <time>2024-02-28T15:08:18+01:00</time>
      </trkpt>
      <trkpt lat="50.03638" lon="2.34552">
        <ele>140.7998</ele>
        <time>2024-02-28T15:08:19+01:00</time>
      </trkpt>
      <trkpt lat="50.03637" lon="2.34545">
        <ele>140.7998</ele>
        <time>2024-02-28T15:08:23+01:00</time>
      </trkpt>
      <trkpt lat="50.03636" lon="2.34543">
        <ele>140.7998</ele>
        <time>2024-02-28T15:08:24+01:00</time>
      </trkpt>
      <trkpt lat="50.03635" lon="2.34537">
        <ele>140.7002</ele>
        <time>2024-02-28T15:08:28+01:00</time>
      </trkpt>
      <trkpt lat="50.03635" lon="2.34535">
        <ele>140.7002</ele>
        <time>2024-02-28T15:08:29+01:00</time>
      </trkpt>
      <trkpt lat="50.03634" lon="2.34529">
        <ele>140.7002</ele>
        <time>2024-02-28T15:08:33+01:00</time>
      </trkpt>
      <trkpt lat="50.03633" lon="2.34527">
        <ele>140.7002</ele>
        <time>2024-02-28T15:08:34+01:00</time>
      </trkpt>
      <trkpt lat="50.03632" lon="2.34521">
        <ele>140.7002</ele>
        <time>2024-02-28T15:08:38+01:00</time>
      </trkpt>
      <trkpt lat="50.03632" lon="2.3452">
        <ele>140.7002</ele>
        <time>2024-02-28T15:08:39+01:00</time>
      </trkpt>
      <trkpt lat="50.03631" lon="2.34514">
        <ele>140.7002</ele>
        <time>2024-02-28T15:08:43+01:00</time>
      </trkpt>
      <trkpt lat="50.03631" lon="2.34512">
        <ele>140.7002</ele>
        <time>2024-02-28T15:08:44+01:00</time>
      </trkpt>
      <trkpt lat="50.0363" lon="2.34506">
        <ele>140.7002</ele>
        <time>2024-02-28T15:08:48+01:00</time>
      </trkpt>
      <trkpt lat="50.0363" lon="2.34504">
        <ele>140.7002</ele>
        <time>2024-02-28T15:08:49+01:00</time>
      </trkpt>
      <trkpt lat="50.03629" lon="2.34498">
        <ele>140.7002</ele>
        <time>2024-02-28T15:08:53+01:00</time>
      </trkpt>
      <trkpt lat="50.03628" lon="2.34496">
        <ele>140.7002</ele>
        <time>2024-02-28T15:08:54+01:00</time>
      </trkpt>
      <trkpt lat="50.03627" lon="2.34491">
        <ele>140.7002</ele>
        <time>2024-02-28T15:08:58+01:00</time>
      </trkpt>
      <trkpt lat="50.03627" lon="2.34489">
        <ele>140.7998</ele>
        <time>2024-02-28T15:08:59+01:00</time>
      </trkpt>
      <trkpt lat="50.03626" lon="2.34483">
        <ele>140.7998</ele>
        <time>2024-02-28T15:09:03+01:00</time>
      </trkpt>
      <trkpt lat="50.03626" lon="2.34481">
        <ele>140.7998</ele>
        <time>2024-02-28T15:09:04+01:00</time>
      </trkpt>
      <trkpt lat="50.03624" lon="2.34475">
        <ele>140.7998</ele>
        <time>2024-02-28T15:09:08+01:00</time>
      </trkpt>
      <trkpt lat="50.03624" lon="2.34473">
        <ele>140.7998</ele>
        <time>2024-02-28T15:09:09+01:00</time>
      </trkpt>
      <trkpt lat="50.03623" lon="2.34468">
        <ele>140.90039</ele>
        <time>2024-02-28T15:09:13+01:00</time>
      </trkpt>
      <trkpt lat="50.03622" lon="2.34466">
        <ele>140.90039</ele>
        <time>2024-02-28T15:09:14+01:00</time>
      </trkpt>
      <trkpt lat="50.03621" lon="2.3446">
        <ele>141</ele>
        <time>2024-02-28T15:09:18+01:00</time>
      </trkpt>
      <trkpt lat="50.03621" lon="2.34458">
        <ele>141</ele>
        <time>2024-02-28T15:09:19+01:00</time>
      </trkpt>
      <trkpt lat="50.0362" lon="2.34453">
        <ele>141.10059</ele>
        <time>2024-02-28T15:09:23+01:00</time>
      </trkpt>
      <trkpt lat="50.0362" lon="2.34451">
        <ele>141.10059</ele>
        <time>2024-02-28T15:09:24+01:00</time>
      </trkpt>
      <trkpt lat="50.03618" lon="2.34446">
        <ele>141.10059</ele>
        <time>2024-02-28T15:09:28+01:00</time>
      </trkpt>
      <trkpt lat="50.03618" lon="2.34444">
        <ele>141.10059</ele>
        <time>2024-02-28T15:09:29+01:00</time>
      </trkpt>
      <trkpt lat="50.03617" lon="2.34438">
        <ele>141.10059</ele>
        <time>2024-02-28T15:09:33+01:00</time>
      </trkpt>
      <trkpt lat="50.03616" lon="2.34437">
        <ele>141.2002</ele>
        <time>2024-02-28T15:09:34+01:00</time>
      </trkpt>
      <trkpt lat="50.03615" lon="2.34431">
        <ele>141.2002</ele>
        <time>2024-02-28T15:09:38+01:00</time>
      </trkpt>
      <trkpt lat="50.03615" lon="2.34429">
        <ele>141.2998</ele>
        <time>2024-02-28T15:09:39+01:00</time>
      </trkpt>
      <trkpt lat="50.03614" lon="2.34423">
        <ele>141.2998</ele>
        <time>2024-02-28T15:09:43+01:00</time>
      </trkpt>
      <trkpt lat="50.03614" lon="2.34422">
        <ele>141.2998</ele>
        <time>2024-02-28T15:09:44+01:00</time>
      </trkpt>
      <trkpt lat="50.03613" lon="2.34416">
        <ele>141.2998</ele>
        <time>2024-02-28T15:09:48+01:00</time>
      </trkpt>
      <trkpt lat="50.03613" lon="2.34414">
        <ele>141.2998</ele>
        <time>2024-02-28T15:09:49+01:00</time>
      </trkpt>
      <trkpt lat="50.03612" lon="2.34408">
        <ele>141.2998</ele>
        <time>2024-02-28T15:09:53+01:00</time>
      </trkpt>
      <trkpt lat="50.03611" lon="2.34407">
        <ele>141.2998</ele>
        <time>2024-02-28T15:09:54+01:00</time>
      </trkpt>
      <trkpt lat="50.0361" lon="2.344">
        <ele>141.40039</ele>
        <time>2024-02-28T15:09:58+01:00</time>
      </trkpt>
      <trkpt lat="50.0361" lon="2.34398">
        <ele>141.40039</ele>
        <time>2024-02-28T15:09:59+01:00</time>
      </trkpt>
      <trkpt lat="50.03609" lon="2.34392">
        <ele>141.40039</ele>
        <time>2024-02-28T15:10:03+01:00</time>
      </trkpt>
      <trkpt lat="50.03609" lon="2.3439">
        <ele>141.40039</ele>
        <time>2024-02-28T15:10:04+01:00</time>
      </trkpt>
      <trkpt lat="50.03607" lon="2.34384">
        <ele>141.2998</ele>
        <time>2024-02-28T15:10:08+01:00</time>
      </trkpt>
      <trkpt lat="50.03607" lon="2.34383">
        <ele>141.2998</ele>
        <time>2024-02-28T15:10:09+01:00</time>
      </trkpt>
      <trkpt lat="50.03607" lon="2.34377">
        <ele>141.2998</ele>
        <time>2024-02-28T15:10:13+01:00</time>
      </trkpt>
      <trkpt lat="50.03606" lon="2.34376">
        <ele>141.2998</ele>
        <time>2024-02-28T15:10:14+01:00</time>
      </trkpt>
      <trkpt lat="50.03606" lon="2.34369">
        <ele>141.2998</ele>
        <time>2024-02-28T15:10:18+01:00</time>
      </trkpt>
      <trkpt lat="50.03606" lon="2.34368">
        <ele>141.2998</ele>
        <time>2024-02-28T15:10:19+01:00</time>
      </trkpt>
      <trkpt lat="50.03605" lon="2.34361">
        <ele>141.2998</ele>
        <time>2024-02-28T15:10:23+01:00</time>
      </trkpt>
      <trkpt lat="50.03605" lon="2.3436">
        <ele>141.2998</ele>
        <time>2024-02-28T15:10:24+01:00</time>
      </trkpt>
      <trkpt lat="50.03603" lon="2.34353">
        <ele>141.2998</ele>
        <time>2024-02-28T15:10:28+01:00</time>
      </trkpt>
      <trkpt lat="50.03603" lon="2.34351">
        <ele>141.2998</ele>
        <time>2024-02-28T15:10:29+01:00</time>
      </trkpt>
      <trkpt lat="50.03602" lon="2.34344">
        <ele>141.2002</ele>
        <time>2024-02-28T15:10:33+01:00</time>
      </trkpt>
      <trkpt lat="50.03601" lon="2.34343">
        <ele>141.2998</ele>
        <time>2024-02-28T15:10:34+01:00</time>
      </trkpt>
      <trkpt lat="50.036" lon="2.34336">
        <ele>141.2998</ele>
        <time>2024-02-28T15:10:38+01:00</time>
      </trkpt>
      <trkpt lat="50.036" lon="2.34334">
        <ele>141.2998</ele>
        <time>2024-02-28T15:10:39+01:00</time>
      </trkpt>
      <trkpt lat="50.03599" lon="2.34328">
        <ele>141.2998</ele>
        <time>2024-02-28T15:10:43+01:00</time>
      </trkpt>
      <trkpt lat="50.03599" lon="2.34326">
        <ele>141.2998</ele>
        <time>2024-02-28T15:10:44+01:00</time>
      </trkpt>
      <trkpt lat="50.03598" lon="2.3432">
        <ele>141.2998</ele>
        <time>2024-02-28T15:10:48+01:00</time>
      </trkpt>
      <trkpt lat="50.03598" lon="2.34318">
        <ele>141.2998</ele>
        <time>2024-02-28T15:10:49+01:00</time>
      </trkpt>
      <trkpt lat="50.03599" lon="2.34312">
        <ele>141.2998</ele>
        <time>2024-02-28T15:10:53+01:00</time>
      </trkpt>
      <trkpt lat="50.03599" lon="2.34311">
        <ele>141.2998</ele>
        <time>2024-02-28T15:10:54+01:00</time>
      </trkpt>
      <trkpt lat="50.03598" lon="2.34304">
        <ele>141.40039</ele>
        <time>2024-02-28T15:10:58+01:00</time>
      </trkpt>
      <trkpt lat="50.03598" lon="2.34303">
        <ele>141.40039</ele>
        <time>2024-02-28T15:10:59+01:00</time>
      </trkpt>
      <trkpt lat="50.03597" lon="2.34296">
        <ele>141.40039</ele>
        <time>2024-02-28T15:11:03+01:00</time>
      </trkpt>
      <trkpt lat="50.03597" lon="2.34294">
        <ele>141.40039</ele>
        <time>2024-02-28T15:11:04+01:00</time>
      </trkpt>
      <trkpt lat="50.03597" lon="2.34288">
        <ele>141.40039</ele>
        <time>2024-02-28T15:11:08+01:00</time>
      </trkpt>
      <trkpt lat="50.03597" lon="2.34286">
        <ele>141.40039</ele>
        <time>2024-02-28T15:11:09+01:00</time>
      </trkpt>
      <trkpt lat="50.03596" lon="2.34281">
        <ele>141.5</ele>
        <time>2024-02-28T15:11:13+01:00</time>
      </trkpt>
      <trkpt lat="50.03595" lon="2.34281">
        <ele>141.5</ele>
        <time>2024-02-28T15:11:14+01:00</time>
      </trkpt>
      <trkpt lat="50.03595" lon="2.34279">
        <ele>141.5</ele>
        <time>2024-02-28T15:11:18+01:00</time>
      </trkpt>
      <trkpt lat="50.03594" lon="2.34273">
        <ele>141.60059</ele>
        <time>2024-02-28T15:11:19+01:00</time>
      </trkpt>
      <trkpt lat="50.03595" lon="2.34269">
        <ele>141.60059</ele>
        <time>2024-02-28T15:11:23+01:00</time>
      </trkpt>
      <trkpt lat="50.03595" lon="2.34268">
        <ele>141.60059</ele>
        <time>2024-02-28T15:11:24+01:00</time>
      </trkpt>
      <trkpt lat="50.03596" lon="2.34262">
        <ele>141.60059</ele>
        <time>2024-02-28T15:11:28+01:00</time>
      </trkpt>
      <trkpt lat="50.03596" lon="2.34261">
        <ele>141.60059</ele>
        <time>2024-02-28T15:11:29+01:00</time>
      </trkpt>
      <trkpt lat="50.03596" lon="2.34254">
        <ele>141.60059</ele>
        <time>2024-02-28T15:11:33+01:00</time>
      </trkpt>
      <trkpt lat="50.03596" lon="2.34252">
        <ele>141.60059</ele>
        <time>2024-02-28T15:11:34+01:00</time>
      </trkpt>
      <trkpt lat="50.03595" lon="2.34245">
        <ele>141.7002</ele>
        <time>2024-02-28T15:11:38+01:00</time>
      </trkpt>
      <trkpt lat="50.03595" lon="2.34244">
        <ele>141.7002</ele>
        <time>2024-02-28T15:11:39+01:00</time>
      </trkpt>
      <trkpt lat="50.03594" lon="2.34237">
        <ele>141.7002</ele>
        <time>2024-02-28T15:11:43+01:00</time>
      </trkpt>
      <trkpt lat="50.03593" lon="2.34235">
        <ele>141.7002</ele>
        <time>2024-02-28T15:11:44+01:00</time>
      </trkpt>
      <trkpt lat="50.03592" lon="2.34229">
        <ele>141.7002</ele>
        <time>2024-02-28T15:11:48+01:00</time>
      </trkpt>
      <trkpt lat="50.03592" lon="2.34227">
        <ele>141.7002</ele>
        <time>2024-02-28T15:11:49+01:00</time>
      </trkpt>
      <trkpt lat="50.03592" lon="2.3422">
        <ele>141.7002</ele>
        <time>2024-02-28T15:11:53+01:00</time>
      </trkpt>
      <trkpt lat="50.03593" lon="2.34218">
        <ele>141.7002</ele>
        <time>2024-02-28T15:11:54+01:00</time>
      </trkpt>
      <trkpt lat="50.03593" lon="2.34211">
        <ele>141.7002</ele>
        <time>2024-02-28T15:11:58+01:00</time>
      </trkpt>
      <trkpt lat="50.03593" lon="2.34209">
        <ele>141.7002</ele>
        <time>2024-02-28T15:11:59+01:00</time>
      </trkpt>
      <trkpt lat="50.03593" lon="2.34203">
        <ele>141.7002</ele>
        <time>2024-02-28T15:12:03+01:00</time>
      </trkpt>
      <trkpt lat="50.03593" lon="2.34201">
        <ele>141.7002</ele>
        <time>2024-02-28T15:12:04+01:00</time>
      </trkpt>
      <trkpt lat="50.03592" lon="2.34194">
        <ele>141.7002</ele>
        <time>2024-02-28T15:12:08+01:00</time>
      </trkpt>
      <trkpt lat="50.03592" lon="2.34193">
        <ele>141.7002</ele>
        <time>2024-02-28T15:12:09+01:00</time>
      </trkpt>
      <trkpt lat="50.03591" lon="2.34186">
        <ele>141.7002</ele>
        <time>2024-02-28T15:12:13+01:00</time>
      </trkpt>
      <trkpt lat="50.03591" lon="2.34184">
        <ele>141.7002</ele>
        <time>2024-02-28T15:12:14+01:00</time>
      </trkpt>
      <trkpt lat="50.0359" lon="2.34178">
        <ele>141.7002</ele>
        <time>2024-02-28T15:12:18+01:00</time>
      </trkpt>
      <trkpt lat="50.0359" lon="2.34176">
        <ele>141.7002</ele>
        <time>2024-02-28T15:12:19+01:00</time>
      </trkpt>
      <trkpt lat="50.03589" lon="2.3417">
        <ele>141.7002</ele>
        <time>2024-02-28T15:12:23+01:00</time>
      </trkpt>
      <trkpt lat="50.03589" lon="2.34168">
        <ele>141.7002</ele>
        <time>2024-02-28T15:12:24+01:00</time>
      </trkpt>
      <trkpt lat="50.03587" lon="2.34161">
        <ele>141.7002</ele>
        <time>2024-02-28T15:12:28+01:00</time>
      </trkpt>
      <trkpt lat="50.03587" lon="2.3416">
        <ele>141.7002</ele>
        <time>2024-02-28T15:12:29+01:00</time>
      </trkpt>
      <trkpt lat="50.03586" lon="2.34154">
        <ele>141.60059</ele>
        <time>2024-02-28T15:12:33+01:00</time>
      </trkpt>
      <trkpt lat="50.03585" lon="2.34152">
        <ele>141.60059</ele>
        <time>2024-02-28T15:12:34+01:00</time>
      </trkpt>
      <trkpt lat="50.03584" lon="2.34145">
        <ele>141.5</ele>
        <time>2024-02-28T15:12:38+01:00</time>
      </trkpt>
      <trkpt lat="50.03584" lon="2.34144">
        <ele>141.5</ele>
        <time>2024-02-28T15:12:39+01:00</time>
      </trkpt>
      <trkpt lat="50.03583" lon="2.34137">
        <ele>141.5</ele>
        <time>2024-02-28T15:12:43+01:00</time>
      </trkpt>
      <trkpt lat="50.03583" lon="2.34136">
        <ele>141.5</ele>
        <time>2024-02-28T15:12:44+01:00</time>
      </trkpt>
      <trkpt lat="50.03582" lon="2.34128">
        <ele>141.40039</ele>
        <time>2024-02-28T15:12:48+01:00</time>
      </trkpt>
      <trkpt lat="50.03582" lon="2.34126">
        <ele>141.40039</ele>
        <time>2024-02-28T15:12:49+01:00</time>
      </trkpt>
      <trkpt lat="50.03581" lon="2.34119">
        <ele>141.2998</ele>
        <time>2024-02-28T15:12:53+01:00</time>
      </trkpt>
      <trkpt lat="50.03581" lon="2.34118">
        <ele>141.2998</ele>
        <time>2024-02-28T15:12:54+01:00</time>
      </trkpt>
      <trkpt lat="50.03581" lon="2.34111">
        <ele>141.2002</ele>
        <time>2024-02-28T15:12:58+01:00</time>
      </trkpt>
      <trkpt lat="50.03581" lon="2.34109">
        <ele>141.2002</ele>
        <time>2024-02-28T15:12:59+01:00</time>
      </trkpt>
      <trkpt lat="50.0358" lon="2.34102">
        <ele>141.2002</ele>
        <time>2024-02-28T15:13:03+01:00</time>
      </trkpt>
      <trkpt lat="50.0358" lon="2.34101">
        <ele>141.2002</ele>
        <time>2024-02-28T15:13:04+01:00</time>
      </trkpt>
      <trkpt lat="50.0358" lon="2.34095">
        <ele>141.2002</ele>
        <time>2024-02-28T15:13:08+01:00</time>
      </trkpt>
      <trkpt lat="50.0358" lon="2.34093">
        <ele>141.10059</ele>
        <time>2024-02-28T15:13:09+01:00</time>
      </trkpt>
      <trkpt lat="50.0358" lon="2.34087">
        <ele>141.10059</ele>
        <time>2024-02-28T15:13:13+01:00</time>
      </trkpt>
      <trkpt lat="50.0358" lon="2.34085">
        <ele>141.10059</ele>
        <time>2024-02-28T15:13:14+01:00</time>
      </trkpt>
      <trkpt lat="50.03579" lon="2.34079">
        <ele>141.10059</ele>
        <time>2024-02-28T15:13:18+01:00</time>
      </trkpt>
      <trkpt lat="50.03579" lon="2.34077">
        <ele>141</ele>
        <time>2024-02-28T15:13:19+01:00</time>
      </trkpt>
      <trkpt lat="50.03579" lon="2.34071">
        <ele>141</ele>
        <time>2024-02-28T15:13:23+01:00</time>
      </trkpt>
      <trkpt lat="50.03578" lon="2.34069">
        <ele>141</ele>
        <time>2024-02-28T15:13:24+01:00</time>
      </trkpt>
      <trkpt lat="50.03577" lon="2.34063">
        <ele>141</ele>
        <time>2024-02-28T15:13:28+01:00</time>
      </trkpt>
      <trkpt lat="50.03577" lon="2.34061">
        <ele>141</ele>
        <time>2024-02-28T15:13:29+01:00</time>
      </trkpt>
      <trkpt lat="50.03576" lon="2.34054">
        <ele>141</ele>
        <time>2024-02-28T15:13:33+01:00</time>
      </trkpt>
      <trkpt lat="50.03576" lon="2.34052">
        <ele>141</ele>
        <time>2024-02-28T15:13:34+01:00</time>
      </trkpt>
      <trkpt lat="50.03575" lon="2.34045">
        <ele>141</ele>
        <time>2024-02-28T15:13:38+01:00</time>
      </trkpt>
      <trkpt lat="50.03575" lon="2.34043">
        <ele>141</ele>
        <time>2024-02-28T15:13:39+01:00</time>
      </trkpt>
      <trkpt lat="50.03574" lon="2.34036">
        <ele>141</ele>
        <time>2024-02-28T15:13:43+01:00</time>
      </trkpt>
      <trkpt lat="50.03574" lon="2.34035">
        <ele>141</ele>
        <time>2024-02-28T15:13:44+01:00</time>
      </trkpt>
      <trkpt lat="50.03573" lon="2.34028">
        <ele>141</ele>
        <time>2024-02-28T15:13:48+01:00</time>
      </trkpt>
      <trkpt lat="50.03573" lon="2.34026">
        <ele>141</ele>
        <time>2024-02-28T15:13:49+01:00</time>
      </trkpt>
      <trkpt lat="50.03571" lon="2.34019">
        <ele>141</ele>
        <time>2024-02-28T15:13:53+01:00</time>
      </trkpt>
      <trkpt lat="50.03571" lon="2.34018">
        <ele>141</ele>
        <time>2024-02-28T15:13:54+01:00</time>
      </trkpt>
      <trkpt lat="50.03569" lon="2.34011">
        <ele>141</ele>
        <time>2024-02-28T15:13:58+01:00</time>
      </trkpt>
      <trkpt lat="50.03569" lon="2.34009">
        <ele>141</ele>
        <time>2024-02-28T15:13:59+01:00</time>
      </trkpt>
      <trkpt lat="50.03568" lon="2.34003">
        <ele>141</ele>
        <time>2024-02-28T15:14:03+01:00</time>
      </trkpt>
      <trkpt lat="50.03568" lon="2.34001">
        <ele>141</ele>
        <time>2024-02-28T15:14:04+01:00</time>
      </trkpt>
      <trkpt lat="50.03568" lon="2.33994">
        <ele>141</ele>
        <time>2024-02-28T15:14:08+01:00</time>
      </trkpt>
      <trkpt lat="50.03568" lon="2.33992">
        <ele>141</ele>
        <time>2024-02-28T15:14:09+01:00</time>
      </trkpt>
      <trkpt lat="50.03568" lon="2.33986">
        <ele>141</ele>
        <time>2024-02-28T15:14:13+01:00</time>
      </trkpt>
      <trkpt lat="50.03568" lon="2.33984">
        <ele>141</ele>
        <time>2024-02-28T15:14:14+01:00</time>
      </trkpt>
      <trkpt lat="50.03567" lon="2.33978">
        <ele>141</ele>
        <time>2024-02-28T15:14:18+01:00</time>
      </trkpt>
      <trkpt lat="50.03567" lon="2.33976">
        <ele>141</ele>
        <time>2024-02-28T15:14:19+01:00</time>
      </trkpt>
      <trkpt lat="50.03566" lon="2.3397">
        <ele>140.90039</ele>
        <time>2024-02-28T15:14:23+01:00</time>
      </trkpt>
      <trkpt lat="50.03566" lon="2.33968">
        <ele>140.90039</ele>
        <time>2024-02-28T15:14:24+01:00</time>
      </trkpt>
      <trkpt lat="50.03565" lon="2.33963">
        <ele>140.90039</ele>
        <time>2024-02-28T15:14:28+01:00</time>
      </trkpt>
      <trkpt lat="50.03565" lon="2.33961">
        <ele>140.90039</ele>
        <time>2024-02-28T15:14:29+01:00</time>
      </trkpt>
      <trkpt lat="50.03564" lon="2.33958">
        <ele>140.90039</ele>
        <time>2024-02-28T15:14:33+01:00</time>
      </trkpt>
      <trkpt lat="50.03564" lon="2.33959">
        <ele>140.90039</ele>
        <time>2024-02-28T15:14:34+01:00</time>
      </trkpt>
      <trkpt lat="50.03564" lon="2.33959">
        <ele>140.90039</ele>
        <time>2024-02-28T15:14:38+01:00</time>
      </trkpt>
      <trkpt lat="50.03565" lon="2.33963">
        <ele>140.90039</ele>
        <time>2024-02-28T15:14:39+01:00</time>
      </trkpt>
      <trkpt lat="50.03565" lon="2.33963">
        <ele>140.90039</ele>
        <time>2024-02-28T15:14:43+01:00</time>
      </trkpt>
      <trkpt lat="50.03565" lon="2.33963">
        <ele>140.90039</ele>
        <time>2024-02-28T15:14:44+01:00</time>
      </trkpt>
      <trkpt lat="50.03566" lon="2.33963">
        <ele>140.90039</ele>
        <time>2024-02-28T15:14:48+01:00</time>
      </trkpt>
      <trkpt lat="50.03567" lon="2.33951">
        <ele>140.90039</ele>
        <time>2024-02-28T15:14:49+01:00</time>
      </trkpt>
      <trkpt lat="50.03566" lon="2.33948">
        <ele>140.90039</ele>
        <time>2024-02-28T15:14:53+01:00</time>
      </trkpt>
      <trkpt lat="50.03566" lon="2.33947">
        <ele>140.90039</ele>
        <time>2024-02-28T15:14:54+01:00</time>
      </trkpt>
      <trkpt lat="50.03567" lon="2.3394">
        <ele>140.90039</ele>
        <time>2024-02-28T15:14:58+01:00</time>
      </trkpt>
      <trkpt lat="50.03567" lon="2.33939">
        <ele>140.90039</ele>
        <time>2024-02-28T15:14:59+01:00</time>
      </trkpt>
      <trkpt lat="50.03568" lon="2.33935">
        <ele>140.90039</ele>
        <time>2024-02-28T15:15:03+01:00</time>
      </trkpt>
      <trkpt lat="50.03569" lon="2.33933">
        <ele>140.90039</ele>
        <time>2024-02-28T15:15:04+01:00</time>
      </trkpt>
      <trkpt lat="50.0357" lon="2.33924">
        <ele>140.90039</ele>
        <time>2024-02-28T15:15:08+01:00</time>
      </trkpt>
      <trkpt lat="50.03571" lon="2.33922">
        <ele>140.90039</ele>
        <time>2024-02-28T15:15:09+01:00</time>
      </trkpt>
      <trkpt lat="50.03572" lon="2.33913">
        <ele>140.90039</ele>
        <time>2024-02-28T15:15:13+01:00</time>
      </trkpt>
      <trkpt lat="50.03573" lon="2.33911">
        <ele>140.90039</ele>
        <time>2024-02-28T15:15:14+01:00</time>
      </trkpt>
      <trkpt lat="50.03573" lon="2.33903">
        <ele>140.90039</ele>
        <time>2024-02-28T15:15:18+01:00</time>
      </trkpt>
      <trkpt lat="50.03573" lon="2.33901">
        <ele>140.90039</ele>
        <time>2024-02-28T15:15:19+01:00</time>
      </trkpt>
      <trkpt lat="50.03573" lon="2.33894">
        <ele>140.90039</ele>
        <time>2024-02-28T15:15:23+01:00</time>
      </trkpt>
      <trkpt lat="50.03573" lon="2.33893">
        <ele>140.90039</ele>
        <time>2024-02-28T15:15:24+01:00</time>
      </trkpt>
      <trkpt lat="50.03572" lon="2.33886">
        <ele>140.90039</ele>
        <time>2024-02-28T15:15:28+01:00</time>
      </trkpt>
      <trkpt lat="50.03572" lon="2.33884">
        <ele>140.90039</ele>
        <time>2024-02-28T15:15:29+01:00</time>
      </trkpt>
      <trkpt lat="50.03571" lon="2.33877">
        <ele>140.90039</ele>
        <time>2024-02-28T15:15:33+01:00</time>
      </trkpt>
      <trkpt lat="50.03571" lon="2.33875">
        <ele>140.90039</ele>
        <time>2024-02-28T15:15:34+01:00</time>
      </trkpt>
      <trkpt lat="50.03572" lon="2.33868">
        <ele>140.90039</ele>
        <time>2024-02-28T15:15:38+01:00</time>
      </trkpt>
      <trkpt lat="50.03572" lon="2.33866">
        <ele>140.90039</ele>
        <time>2024-02-28T15:15:39+01:00</time>
      </trkpt>
      <trkpt lat="50.03572" lon="2.33859">
        <ele>140.90039</ele>
        <time>2024-02-28T15:15:43+01:00</time>
      </trkpt>
      <trkpt lat="50.03572" lon="2.33858">
        <ele>140.90039</ele>
        <time>2024-02-28T15:15:44+01:00</time>
      </trkpt>
      <trkpt lat="50.03571" lon="2.33852">
        <ele>140.90039</ele>
        <time>2024-02-28T15:15:48+01:00</time>
      </trkpt>
      <trkpt lat="50.03571" lon="2.33851">
        <ele>140.90039</ele>
        <time>2024-02-28T15:15:49+01:00</time>
      </trkpt>
      <trkpt lat="50.0357" lon="2.33846">
        <ele>140.90039</ele>
        <time>2024-02-28T15:15:53+01:00</time>
      </trkpt>
      <trkpt lat="50.0357" lon="2.33844">
        <ele>140.90039</ele>
        <time>2024-02-28T15:15:54+01:00</time>
      </trkpt>
      <trkpt lat="50.0357" lon="2.33839">
        <ele>140.90039</ele>
        <time>2024-02-28T15:15:58+01:00</time>
      </trkpt>
      <trkpt lat="50.0357" lon="2.33837">
        <ele>140.90039</ele>
        <time>2024-02-28T15:15:59+01:00</time>
      </trkpt>
      <trkpt lat="50.0357" lon="2.33831">
        <ele>140.7998</ele>
        <time>2024-02-28T15:16:03+01:00</time>
      </trkpt>
      <trkpt lat="50.0357" lon="2.33829">
        <ele>140.7998</ele>
        <time>2024-02-28T15:16:04+01:00</time>
      </trkpt>
      <trkpt lat="50.0357" lon="2.33823">
        <ele>140.90039</ele>
        <time>2024-02-28T15:16:08+01:00</time>
      </trkpt>
      <trkpt lat="50.0357" lon="2.33821">
        <ele>140.90039</ele>
        <time>2024-02-28T15:16:09+01:00</time>
      </trkpt>
      <trkpt lat="50.0357" lon="2.33815">
        <ele>140.90039</ele>
        <time>2024-02-28T15:16:13+01:00</time>
      </trkpt>
      <trkpt lat="50.0357" lon="2.33813">
        <ele>140.90039</ele>
        <time>2024-02-28T15:16:14+01:00</time>
      </trkpt>
      <trkpt lat="50.0357" lon="2.33807">
        <ele>140.90039</ele>
        <time>2024-02-28T15:16:18+01:00</time>
      </trkpt>
      <trkpt lat="50.0357" lon="2.33805">
        <ele>140.90039</ele>
        <time>2024-02-28T15:16:19+01:00</time>
      </trkpt>
      <trkpt lat="50.0357" lon="2.338">
        <ele>140.90039</ele>
        <time>2024-02-28T15:16:23+01:00</time>
      </trkpt>
      <trkpt lat="50.0357" lon="2.33799">
        <ele>140.90039</ele>
        <time>2024-02-28T15:16:24+01:00</time>
      </trkpt>
      <trkpt lat="50.0357" lon="2.33793">
        <ele>140.7998</ele>
        <time>2024-02-28T15:16:28+01:00</time>
      </trkpt>
      <trkpt lat="50.03569" lon="2.33791">
        <ele>140.7998</ele>
        <time>2024-02-28T15:16:29+01:00</time>
      </trkpt>
      <trkpt lat="50.03568" lon="2.33784">
        <ele>140.7998</ele>
        <time>2024-02-28T15:16:33+01:00</time>
      </trkpt>
      <trkpt lat="50.03568" lon="2.33782">
        <ele>140.7998</ele>
        <time>2024-02-28T15:16:34+01:00</time>
      </trkpt>
      <trkpt lat="50.03568" lon="2.33776">
        <ele>140.7002</ele>
        <time>2024-02-28T15:16:38+01:00</time>
      </trkpt>
      <trkpt lat="50.03568" lon="2.33774">
        <ele>140.7002</ele>
        <time>2024-02-28T15:16:39+01:00</time>
      </trkpt>
      <trkpt lat="50.03567" lon="2.33767">
        <ele>140.7002</ele>
        <time>2024-02-28T15:16:43+01:00</time>
      </trkpt>
      <trkpt lat="50.03567" lon="2.33765">
        <ele>140.7002</ele>
        <time>2024-02-28T15:16:44+01:00</time>
      </trkpt>
      <trkpt lat="50.03567" lon="2.33758">
        <ele>140.7002</ele>
        <time>2024-02-28T15:16:48+01:00</time>
      </trkpt>
      <trkpt lat="50.03566" lon="2.33757">
        <ele>140.7002</ele>
        <time>2024-02-28T15:16:49+01:00</time>
      </trkpt>
      <trkpt lat="50.03566" lon="2.3375">
        <ele>140.7002</ele>
        <time>2024-02-28T15:16:53+01:00</time>
      </trkpt>
      <trkpt lat="50.03565" lon="2.33748">
        <ele>140.7002</ele>
        <time>2024-02-28T15:16:54+01:00</time>
      </trkpt>
      <trkpt lat="50.03564" lon="2.33741">
        <ele>140.7002</ele>
        <time>2024-02-28T15:16:58+01:00</time>
      </trkpt>
      <trkpt lat="50.03564" lon="2.3374">
        <ele>140.60059</ele>
        <time>2024-02-28T15:16:59+01:00</time>
      </trkpt>
      <trkpt lat="50.03563" lon="2.33733">
        <ele>140.60059</ele>
        <time>2024-02-28T15:17:03+01:00</time>
      </trkpt>
      <trkpt lat="50.03563" lon="2.33731">
        <ele>140.60059</ele>
        <time>2024-02-28T15:17:04+01:00</time>
      </trkpt>
      <trkpt lat="50.03562" lon="2.33724">
        <ele>140.60059</ele>
        <time>2024-02-28T15:17:08+01:00</time>
      </trkpt>
      <trkpt lat="50.03561" lon="2.33723">
        <ele>140.60059</ele>
        <time>2024-02-28T15:17:09+01:00</time>
      </trkpt>
      <trkpt lat="50.0356" lon="2.33717">
        <ele>140.60059</ele>
        <time>2024-02-28T15:17:13+01:00</time>
      </trkpt>
      <trkpt lat="50.0356" lon="2.33715">
        <ele>140.60059</ele>
        <time>2024-02-28T15:17:14+01:00</time>
      </trkpt>
      <trkpt lat="50.03559" lon="2.3371">
        <ele>140.40039</ele>
        <time>2024-02-28T15:17:18+01:00</time>
      </trkpt>
      <trkpt lat="50.03558" lon="2.33708">
        <ele>140.40039</ele>
        <time>2024-02-28T15:17:19+01:00</time>
      </trkpt>
      <trkpt lat="50.03558" lon="2.33701">
        <ele>140.40039</ele>
        <time>2024-02-28T15:17:23+01:00</time>
      </trkpt>
      <trkpt lat="50.03557" lon="2.337">
        <ele>140.40039</ele>
        <time>2024-02-28T15:17:24+01:00</time>
      </trkpt>
      <trkpt lat="50.03556" lon="2.33694">
        <ele>140.40039</ele>
        <time>2024-02-28T15:17:28+01:00</time>
      </trkpt>
      <trkpt lat="50.03556" lon="2.33692">
        <ele>140.40039</ele>
        <time>2024-02-28T15:17:29+01:00</time>
      </trkpt>
      <trkpt lat="50.03555" lon="2.33686">
        <ele>140.40039</ele>
        <time>2024-02-28T15:17:33+01:00</time>
      </trkpt>
      <trkpt lat="50.03554" lon="2.33684">
        <ele>140.40039</ele>
        <time>2024-02-28T15:17:34+01:00</time>
      </trkpt>
      <trkpt lat="50.03553" lon="2.33678">
        <ele>140.2998</ele>
        <time>2024-02-28T15:17:38+01:00</time>
      </trkpt>
      <trkpt lat="50.03552" lon="2.33676">
        <ele>140.2998</ele>
        <time>2024-02-28T15:17:39+01:00</time>
      </trkpt>
      <trkpt lat="50.0355" lon="2.3367">
        <ele>140.2998</ele>
        <time>2024-02-28T15:17:43+01:00</time>
      </trkpt>
      <trkpt lat="50.03549" lon="2.33668">
        <ele>140.2998</ele>
        <time>2024-02-28T15:17:44+01:00</time>
      </trkpt>
      <trkpt lat="50.03548" lon="2.33662">
        <ele>140.2998</ele>
        <time>2024-02-28T15:17:48+01:00</time>
      </trkpt>
      <trkpt lat="50.03547" lon="2.33661">
        <ele>140.10059</ele>
        <time>2024-02-28T15:17:49+01:00</time>
      </trkpt>
      <trkpt lat="50.03546" lon="2.33654">
        <ele>140.10059</ele>
        <time>2024-02-28T15:17:53+01:00</time>
      </trkpt>
      <trkpt lat="50.03545" lon="2.33653">
        <ele>140.10059</ele>
        <time>2024-02-28T15:17:54+01:00</time>
      </trkpt>
      <trkpt lat="50.03544" lon="2.33647">
        <ele>140.10059</ele>
        <time>2024-02-28T15:17:58+01:00</time>
      </trkpt>
      <trkpt lat="50.03543" lon="2.33645">
        <ele>140.10059</ele>
        <time>2024-02-28T15:17:59+01:00</time>
      </trkpt>
      <trkpt lat="50.03542" lon="2.33639">
        <ele>140</ele>
        <time>2024-02-28T15:18:03+01:00</time>
      </trkpt>
      <trkpt lat="50.03541" lon="2.33637">
        <ele>140</ele>
        <time>2024-02-28T15:18:04+01:00</time>
      </trkpt>
      <trkpt lat="50.03539" lon="2.3363">
        <ele>140</ele>
        <time>2024-02-28T15:18:08+01:00</time>
      </trkpt>
      <trkpt lat="50.03539" lon="2.33629">
        <ele>140</ele>
        <time>2024-02-28T15:18:09+01:00</time>
      </trkpt>
      <trkpt lat="50.03537" lon="2.33623">
        <ele>139.90039</ele>
        <time>2024-02-28T15:18:13+01:00</time>
      </trkpt>
      <trkpt lat="50.03536" lon="2.33621">
        <ele>139.90039</ele>
        <time>2024-02-28T15:18:14+01:00</time>
      </trkpt>
      <trkpt lat="50.03534" lon="2.33615">
        <ele>139.90039</ele>
        <time>2024-02-28T15:18:18+01:00</time>
      </trkpt>
      <trkpt lat="50.03533" lon="2.33614">
        <ele>139.90039</ele>
        <time>2024-02-28T15:18:19+01:00</time>
      </trkpt>
      <trkpt lat="50.0353" lon="2.33609">
        <ele>139.90039</ele>
        <time>2024-02-28T15:18:23+01:00</time>
      </trkpt>
      <trkpt lat="50.0353" lon="2.33607">
        <ele>139.90039</ele>
        <time>2024-02-28T15:18:24+01:00</time>
      </trkpt>
      <trkpt lat="50.03528" lon="2.33602">
        <ele>139.90039</ele>
        <time>2024-02-28T15:18:28+01:00</time>
      </trkpt>
      <trkpt lat="50.03528" lon="2.336">
        <ele>139.90039</ele>
        <time>2024-02-28T15:18:29+01:00</time>
      </trkpt>
      <trkpt lat="50.03526" lon="2.33594">
        <ele>139.90039</ele>
        <time>2024-02-28T15:18:33+01:00</time>
      </trkpt>
      <trkpt lat="50.03526" lon="2.33592">
        <ele>139.90039</ele>
        <time>2024-02-28T15:18:34+01:00</time>
      </trkpt>
      <trkpt lat="50.03525" lon="2.33586">
        <ele>139.90039</ele>
        <time>2024-02-28T15:18:38+01:00</time>
      </trkpt>
      <trkpt lat="50.03524" lon="2.33585">
        <ele>139.90039</ele>
        <time>2024-02-28T15:18:39+01:00</time>
      </trkpt>
      <trkpt lat="50.03522" lon="2.33579">
        <ele>139.90039</ele>
        <time>2024-02-28T15:18:43+01:00</time>
      </trkpt>
      <trkpt lat="50.03522" lon="2.33578">
        <ele>139.90039</ele>
        <time>2024-02-28T15:18:44+01:00</time>
      </trkpt>
      <trkpt lat="50.0352" lon="2.33572">
        <ele>139.90039</ele>
        <time>2024-02-28T15:18:48+01:00</time>
      </trkpt>
      <trkpt lat="50.0352" lon="2.3357">
        <ele>140</ele>
        <time>2024-02-28T15:18:49+01:00</time>
      </trkpt>
      <trkpt lat="50.03519" lon="2.33564">
        <ele>140</ele>
        <time>2024-02-28T15:18:53+01:00</time>
      </trkpt>
      <trkpt lat="50.03519" lon="2.33562">
        <ele>140</ele>
        <time>2024-02-28T15:18:54+01:00</time>
      </trkpt>
      <trkpt lat="50.03517" lon="2.33557">
        <ele>140</ele>
        <time>2024-02-28T15:18:58+01:00</time>
      </trkpt>
      <trkpt lat="50.03517" lon="2.33555">
        <ele>140</ele>
        <time>2024-02-28T15:18:59+01:00</time>
      </trkpt>
      <trkpt lat="50.03515" lon="2.33548">
        <ele>140</ele>
        <time>2024-02-28T15:19:03+01:00</time>
      </trkpt>
      <trkpt lat="50.03515" lon="2.33547">
        <ele>140</ele>
        <time>2024-02-28T15:19:04+01:00</time>
      </trkpt>
      <trkpt lat="50.03514" lon="2.3354">
        <ele>140</ele>
        <time>2024-02-28T15:19:08+01:00</time>
      </trkpt>
      <trkpt lat="50.03513" lon="2.33539">
        <ele>140</ele>
        <time>2024-02-28T15:19:09+01:00</time>
      </trkpt>
      <trkpt lat="50.03511" lon="2.33533">
        <ele>140</ele>
        <time>2024-02-28T15:19:13+01:00</time>
      </trkpt>
      <trkpt lat="50.0351" lon="2.33532">
        <ele>140</ele>
        <time>2024-02-28T15:19:14+01:00</time>
      </trkpt>
      <trkpt lat="50.03508" lon="2.33526">
        <ele>140</ele>
        <time>2024-02-28T15:19:18+01:00</time>
      </trkpt>
      <trkpt lat="50.03507" lon="2.33524">
        <ele>140</ele>
        <time>2024-02-28T15:19:19+01:00</time>
      </trkpt>
      <trkpt lat="50.03505" lon="2.33519">
        <ele>140</ele>
        <time>2024-02-28T15:19:23+01:00</time>
      </trkpt>
      <trkpt lat="50.03504" lon="2.33517">
        <ele>140</ele>
        <time>2024-02-28T15:19:24+01:00</time>
      </trkpt>
      <trkpt lat="50.03502" lon="2.33512">
        <ele>140</ele>
        <time>2024-02-28T15:19:28+01:00</time>
      </trkpt>
      <trkpt lat="50.03502" lon="2.3351">
        <ele>140</ele>
        <time>2024-02-28T15:19:29+01:00</time>
      </trkpt>
      <trkpt lat="50.035" lon="2.33504">
        <ele>140</ele>
        <time>2024-02-28T15:19:33+01:00</time>
      </trkpt>
      <trkpt lat="50.035" lon="2.33502">
        <ele>140</ele>
        <time>2024-02-28T15:19:34+01:00</time>
      </trkpt>
      <trkpt lat="50.03499" lon="2.33496">
        <ele>140</ele>
        <time>2024-02-28T15:19:38+01:00</time>
      </trkpt>
      <trkpt lat="50.03498" lon="2.33494">
        <ele>140</ele>
        <time>2024-02-28T15:19:39+01:00</time>
      </trkpt>
      <trkpt lat="50.03498" lon="2.33487">
        <ele>140.10059</ele>
        <time>2024-02-28T15:19:43+01:00</time>
      </trkpt>
      <trkpt lat="50.03497" lon="2.33486">
        <ele>140.10059</ele>
        <time>2024-02-28T15:19:44+01:00</time>
      </trkpt>
      <trkpt lat="50.03494" lon="2.33481">
        <ele>140.2002</ele>
        <time>2024-02-28T15:19:48+01:00</time>
      </trkpt>
      <trkpt lat="50.03494" lon="2.3348">
        <ele>140.2002</ele>
        <time>2024-02-28T15:19:49+01:00</time>
      </trkpt>
      <trkpt lat="50.03491" lon="2.33475">
        <ele>140.2002</ele>
        <time>2024-02-28T15:19:53+01:00</time>
      </trkpt>
      <trkpt lat="50.0349" lon="2.33473">
        <ele>140.2002</ele>
        <time>2024-02-28T15:19:54+01:00</time>
      </trkpt>
      <trkpt lat="50.03487" lon="2.33471">
        <ele>140.2002</ele>
        <time>2024-02-28T15:19:58+01:00</time>
      </trkpt>
      <trkpt lat="50.03486" lon="2.3347">
        <ele>140.2002</ele>
        <time>2024-02-28T15:19:59+01:00</time>
      </trkpt>
      <trkpt lat="50.03484" lon="2.33465">
        <ele>140.2002</ele>
        <time>2024-02-28T15:20:03+01:00</time>
      </trkpt>
      <trkpt lat="50.03484" lon="2.33464">
        <ele>140.2002</ele>
        <time>2024-02-28T15:20:04+01:00</time>
      </trkpt>
      <trkpt lat="50.03483" lon="2.33459">
        <ele>140.2998</ele>
        <time>2024-02-28T15:20:08+01:00</time>
      </trkpt>
      <trkpt lat="50.03483" lon="2.33457">
        <ele>140.2998</ele>
        <time>2024-02-28T15:20:09+01:00</time>
      </trkpt>
      <trkpt lat="50.03481" lon="2.33452">
        <ele>140.2998</ele>
        <time>2024-02-28T15:20:13+01:00</time>
      </trkpt>
      <trkpt lat="50.03481" lon="2.33451">
        <ele>140.2998</ele>
        <time>2024-02-28T15:20:14+01:00</time>
      </trkpt>
      <trkpt lat="50.03479" lon="2.33446">
        <ele>140.2998</ele>
        <time>2024-02-28T15:20:18+01:00</time>
      </trkpt>
      <trkpt lat="50.03479" lon="2.33445">
        <ele>140.2998</ele>
        <time>2024-02-28T15:20:19+01:00</time>
      </trkpt>
      <trkpt lat="50.03477" lon="2.3344">
        <ele>140.40039</ele>
        <time>2024-02-28T15:20:23+01:00</time>
      </trkpt>
      <trkpt lat="50.03476" lon="2.33439">
        <ele>140.40039</ele>
        <time>2024-02-28T15:20:24+01:00</time>
      </trkpt>
      <trkpt lat="50.03474" lon="2.33434">
        <ele>140.2998</ele>
        <time>2024-02-28T15:20:28+01:00</time>
      </trkpt>
      <trkpt lat="50.03474" lon="2.33432">
        <ele>140.2998</ele>
        <time>2024-02-28T15:20:29+01:00</time>
      </trkpt>
      <trkpt lat="50.03473" lon="2.33426">
        <ele>140.2998</ele>
        <time>2024-02-28T15:20:33+01:00</time>
      </trkpt>
      <trkpt lat="50.03473" lon="2.33425">
        <ele>140.40039</ele>
        <time>2024-02-28T15:20:34+01:00</time>
      </trkpt>
      <trkpt lat="50.03472" lon="2.33419">
        <ele>140.40039</ele>
        <time>2024-02-28T15:20:38+01:00</time>
      </trkpt>
      <trkpt lat="50.03471" lon="2.33417">
        <ele>140.40039</ele>
        <time>2024-02-28T15:20:39+01:00</time>
      </trkpt>
      <trkpt lat="50.03471" lon="2.33411">
        <ele>140.40039</ele>
        <time>2024-02-28T15:20:43+01:00</time>
      </trkpt>
      <trkpt lat="50.03471" lon="2.33409">
        <ele>140.40039</ele>
        <time>2024-02-28T15:20:44+01:00</time>
      </trkpt>
      <trkpt lat="50.03469" lon="2.33403">
        <ele>140.2998</ele>
        <time>2024-02-28T15:20:48+01:00</time>
      </trkpt>
      <trkpt lat="50.03469" lon="2.33402">
        <ele>140.2998</ele>
        <time>2024-02-28T15:20:49+01:00</time>
      </trkpt>
      <trkpt lat="50.03467" lon="2.33397">
        <ele>140.2998</ele>
        <time>2024-02-28T15:20:53+01:00</time>
      </trkpt>
      <trkpt lat="50.03467" lon="2.33395">
        <ele>140.2998</ele>
        <time>2024-02-28T15:20:54+01:00</time>
      </trkpt>
      <trkpt lat="50.03466" lon="2.33389">
        <ele>140.2998</ele>
        <time>2024-02-28T15:20:58+01:00</time>
      </trkpt>
      <trkpt lat="50.03465" lon="2.33388">
        <ele>140.2998</ele>
        <time>2024-02-28T15:20:59+01:00</time>
      </trkpt>
      <trkpt lat="50.03465" lon="2.33382">
        <ele>140.2002</ele>
        <time>2024-02-28T15:21:03+01:00</time>
      </trkpt>
      <trkpt lat="50.03464" lon="2.33381">
        <ele>140.2002</ele>
        <time>2024-02-28T15:21:04+01:00</time>
      </trkpt>
      <trkpt lat="50.03464" lon="2.33375">
        <ele>140.2002</ele>
        <time>2024-02-28T15:21:08+01:00</time>
      </trkpt>
      <trkpt lat="50.03463" lon="2.33374">
        <ele>140.2002</ele>
        <time>2024-02-28T15:21:09+01:00</time>
      </trkpt>
      <trkpt lat="50.03462" lon="2.33369">
        <ele>140.2002</ele>
        <time>2024-02-28T15:21:13+01:00</time>
      </trkpt>
      <trkpt lat="50.03461" lon="2.33368">
        <ele>140.2002</ele>
        <time>2024-02-28T15:21:14+01:00</time>
      </trkpt>
      <trkpt lat="50.0346" lon="2.33362">
        <ele>140.2002</ele>
        <time>2024-02-28T15:21:18+01:00</time>
      </trkpt>
      <trkpt lat="50.0346" lon="2.33361">
        <ele>140.2002</ele>
        <time>2024-02-28T15:21:19+01:00</time>
      </trkpt>
      <trkpt lat="50.03459" lon="2.33354">
        <ele>140</ele>
        <time>2024-02-28T15:21:23+01:00</time>
      </trkpt>
      <trkpt lat="50.03459" lon="2.33352">
        <ele>140</ele>
        <time>2024-02-28T15:21:24+01:00</time>
      </trkpt>
      <trkpt lat="50.03459" lon="2.33346">
        <ele>140</ele>
        <time>2024-02-28T15:21:28+01:00</time>
      </trkpt>
      <trkpt lat="50.03459" lon="2.33344">
        <ele>140</ele>
        <time>2024-02-28T15:21:29+01:00</time>
      </trkpt>
      <trkpt lat="50.03459" lon="2.33339">
        <ele>140</ele>
        <time>2024-02-28T15:21:33+01:00</time>
      </trkpt>
      <trkpt lat="50.03459" lon="2.33337">
        <ele>140</ele>
        <time>2024-02-28T15:21:34+01:00</time>
      </trkpt>
      <trkpt lat="50.03457" lon="2.33331">
        <ele>140</ele>
        <time>2024-02-28T15:21:39+01:00</time>
      </trkpt>
      <trkpt lat="50.03457" lon="2.33329">
        <ele>139.90039</ele>
        <time>2024-02-28T15:21:40+01:00</time>
      </trkpt>
      <trkpt lat="50.03455" lon="2.33324">
        <ele>139.90039</ele>
        <time>2024-02-28T15:21:44+01:00</time>
      </trkpt>
      <trkpt lat="50.03454" lon="2.33322">
        <ele>139.90039</ele>
        <time>2024-02-28T15:21:45+01:00</time>
      </trkpt>
      <trkpt lat="50.03454" lon="2.33316">
        <ele>139.7002</ele>
        <time>2024-02-28T15:21:49+01:00</time>
      </trkpt>
      <trkpt lat="50.03453" lon="2.33315">
        <ele>139.7002</ele>
        <time>2024-02-28T15:21:50+01:00</time>
      </trkpt>
      <trkpt lat="50.03452" lon="2.33309">
        <ele>139.7002</ele>
        <time>2024-02-28T15:21:54+01:00</time>
      </trkpt>
      <trkpt lat="50.03452" lon="2.33307">
        <ele>139.7002</ele>
        <time>2024-02-28T15:21:55+01:00</time>
      </trkpt>
      <trkpt lat="50.03452" lon="2.33301">
        <ele>139.60059</ele>
        <time>2024-02-28T15:21:59+01:00</time>
      </trkpt>
      <trkpt lat="50.03452" lon="2.333">
        <ele>139.60059</ele>
        <time>2024-02-28T15:22:00+01:00</time>
      </trkpt>
      <trkpt lat="50.03451" lon="2.33293">
        <ele>139.5</ele>
        <time>2024-02-28T15:22:04+01:00</time>
      </trkpt>
      <trkpt lat="50.0345" lon="2.33291">
        <ele>139.5</ele>
        <time>2024-02-28T15:22:05+01:00</time>
      </trkpt>
      <trkpt lat="50.03449" lon="2.33285">
        <ele>139.40039</ele>
        <time>2024-02-28T15:22:09+01:00</time>
      </trkpt>
      <trkpt lat="50.03449" lon="2.33283">
        <ele>139.40039</ele>
        <time>2024-02-28T15:22:10+01:00</time>
      </trkpt>
      <trkpt lat="50.03448" lon="2.33277">
        <ele>139.2002</ele>
        <time>2024-02-28T15:22:14+01:00</time>
      </trkpt>
      <trkpt lat="50.03448" lon="2.33275">
        <ele>139.2002</ele>
        <time>2024-02-28T15:22:15+01:00</time>
      </trkpt>
      <trkpt lat="50.03446" lon="2.3327">
        <ele>139.10059</ele>
        <time>2024-02-28T15:22:19+01:00</time>
      </trkpt>
      <trkpt lat="50.03446" lon="2.33268">
        <ele>139.10059</ele>
        <time>2024-02-28T15:22:20+01:00</time>
      </trkpt>
      <trkpt lat="50.03444" lon="2.33262">
        <ele>139</ele>
        <time>2024-02-28T15:22:24+01:00</time>
      </trkpt>
      <trkpt lat="50.03444" lon="2.3326">
        <ele>139</ele>
        <time>2024-02-28T15:22:25+01:00</time>
      </trkpt>
      <trkpt lat="50.03442" lon="2.33254">
        <ele>138.90039</ele>
        <time>2024-02-28T15:22:29+01:00</time>
      </trkpt>
      <trkpt lat="50.03442" lon="2.33252">
        <ele>138.7998</ele>
        <time>2024-02-28T15:22:30+01:00</time>
      </trkpt>
      <trkpt lat="50.0344" lon="2.33245">
        <ele>138.7998</ele>
        <time>2024-02-28T15:22:34+01:00</time>
      </trkpt>
      <trkpt lat="50.0344" lon="2.33244">
        <ele>138.7998</ele>
        <time>2024-02-28T15:22:35+01:00</time>
      </trkpt>
      <trkpt lat="50.03439" lon="2.33237">
        <ele>138.7998</ele>
        <time>2024-02-28T15:22:39+01:00</time>
      </trkpt>
      <trkpt lat="50.03439" lon="2.33235">
        <ele>138.7002</ele>
        <time>2024-02-28T15:22:40+01:00</time>
      </trkpt>
      <trkpt lat="50.03438" lon="2.33229">
        <ele>138.7002</ele>
        <time>2024-02-28T15:22:44+01:00</time>
      </trkpt>
      <trkpt lat="50.03438" lon="2.33227">
        <ele>138.7002</ele>
        <time>2024-02-28T15:22:45+01:00</time>
      </trkpt>
      <trkpt lat="50.03437" lon="2.33221">
        <ele>138.60059</ele>
        <time>2024-02-28T15:22:49+01:00</time>
      </trkpt>
      <trkpt lat="50.03436" lon="2.3322">
        <ele>138.60059</ele>
        <time>2024-02-28T15:22:50+01:00</time>
      </trkpt>
      <trkpt lat="50.03435" lon="2.33214">
        <ele>138.60059</ele>
        <time>2024-02-28T15:22:54+01:00</time>
      </trkpt>
      <trkpt lat="50.03435" lon="2.33212">
        <ele>138.60059</ele>
        <time>2024-02-28T15:22:55+01:00</time>
      </trkpt>
      <trkpt lat="50.03433" lon="2.33206">
        <ele>138.60059</ele>
        <time>2024-02-28T15:22:59+01:00</time>
      </trkpt>
      <trkpt lat="50.03433" lon="2.33205">
        <ele>138.60059</ele>
        <time>2024-02-28T15:23:00+01:00</time>
      </trkpt>
      <trkpt lat="50.03432" lon="2.33199">
        <ele>138.60059</ele>
        <time>2024-02-28T15:23:04+01:00</time>
      </trkpt>
      <trkpt lat="50.03432" lon="2.33197">
        <ele>138.5</ele>
        <time>2024-02-28T15:23:05+01:00</time>
      </trkpt>
      <trkpt lat="50.03431" lon="2.33192">
        <ele>138.5</ele>
        <time>2024-02-28T15:23:09+01:00</time>
      </trkpt>
      <trkpt lat="50.03431" lon="2.3319">
        <ele>138.5</ele>
        <time>2024-02-28T15:23:10+01:00</time>
      </trkpt>
      <trkpt lat="50.0343" lon="2.33184">
        <ele>138.40039</ele>
        <time>2024-02-28T15:23:14+01:00</time>
      </trkpt>
      <trkpt lat="50.03431" lon="2.33182">
        <ele>138.40039</ele>
        <time>2024-02-28T15:23:15+01:00</time>
      </trkpt>
      <trkpt lat="50.03431" lon="2.33176">
        <ele>138.40039</ele>
        <time>2024-02-28T15:23:19+01:00</time>
      </trkpt>
      <trkpt lat="50.0343" lon="2.33174">
        <ele>138.40039</ele>
        <time>2024-02-28T15:23:20+01:00</time>
      </trkpt>
      <trkpt lat="50.03429" lon="2.33168">
        <ele>138.40039</ele>
        <time>2024-02-28T15:23:24+01:00</time>
      </trkpt>
      <trkpt lat="50.03428" lon="2.33167">
        <ele>138.40039</ele>
        <time>2024-02-28T15:23:25+01:00</time>
      </trkpt>
      <trkpt lat="50.03426" lon="2.33163">
        <ele>138.2998</ele>
        <time>2024-02-28T15:23:29+01:00</time>
      </trkpt>
      <trkpt lat="50.03426" lon="2.33162">
        <ele>138.2998</ele>
        <time>2024-02-28T15:23:30+01:00</time>
      </trkpt>
      <trkpt lat="50.03424" lon="2.33156">
        <ele>138.2002</ele>
        <time>2024-02-28T15:23:34+01:00</time>
      </trkpt>
      <trkpt lat="50.03424" lon="2.33155">
        <ele>138.2002</ele>
        <time>2024-02-28T15:23:35+01:00</time>
      </trkpt>
      <trkpt lat="50.03423" lon="2.33149">
        <ele>138.2002</ele>
        <time>2024-02-28T15:23:39+01:00</time>
      </trkpt>
      <trkpt lat="50.03423" lon="2.33148">
        <ele>138.2002</ele>
        <time>2024-02-28T15:23:40+01:00</time>
      </trkpt>
      <trkpt lat="50.03421" lon="2.33142">
        <ele>138.2002</ele>
        <time>2024-02-28T15:23:44+01:00</time>
      </trkpt>
      <trkpt lat="50.03421" lon="2.33141">
        <ele>138</ele>
        <time>2024-02-28T15:23:45+01:00</time>
      </trkpt>
      <trkpt lat="50.03419" lon="2.33136">
        <ele>138</ele>
        <time>2024-02-28T15:23:49+01:00</time>
      </trkpt>
      <trkpt lat="50.03418" lon="2.33134">
        <ele>138</ele>
        <time>2024-02-28T15:23:50+01:00</time>
      </trkpt>
      <trkpt lat="50.03416" lon="2.33129">
        <ele>137.90039</ele>
        <time>2024-02-28T15:23:54+01:00</time>
      </trkpt>
      <trkpt lat="50.03416" lon="2.33127">
        <ele>137.90039</ele>
        <time>2024-02-28T15:23:55+01:00</time>
      </trkpt>
      <trkpt lat="50.03415" lon="2.33122">
        <ele>137.7002</ele>
        <time>2024-02-28T15:23:59+01:00</time>
      </trkpt>
      <trkpt lat="50.03414" lon="2.3312">
        <ele>137.7002</ele>
        <time>2024-02-28T15:24:00+01:00</time>
      </trkpt>
      <trkpt lat="50.03412" lon="2.33114">
        <ele>137.60059</ele>
        <time>2024-02-28T15:24:04+01:00</time>
      </trkpt>
      <trkpt lat="50.03412" lon="2.33113">
        <ele>137.60059</ele>
        <time>2024-02-28T15:24:05+01:00</time>
      </trkpt>
      <trkpt lat="50.0341" lon="2.33107">
        <ele>137.5</ele>
        <time>2024-02-28T15:24:09+01:00</time>
      </trkpt>
      <trkpt lat="50.0341" lon="2.33105">
        <ele>137.40039</ele>
        <time>2024-02-28T15:24:10+01:00</time>
      </trkpt>
      <trkpt lat="50.03408" lon="2.33099">
        <ele>137.2998</ele>
        <time>2024-02-28T15:24:14+01:00</time>
      </trkpt>
      <trkpt lat="50.03408" lon="2.33097">
        <ele>137.2998</ele>
        <time>2024-02-28T15:24:15+01:00</time>
      </trkpt>
      <trkpt lat="50.03407" lon="2.33091">
        <ele>137.2998</ele>
        <time>2024-02-28T15:24:19+01:00</time>
      </trkpt>
      <trkpt lat="50.03406" lon="2.33089">
        <ele>137.2998</ele>
        <time>2024-02-28T15:24:20+01:00</time>
      </trkpt>
      <trkpt lat="50.03405" lon="2.33083">
        <ele>137.2998</ele>
        <time>2024-02-28T15:24:24+01:00</time>
      </trkpt>
      <trkpt lat="50.03405" lon="2.33081">
        <ele>137.2002</ele>
        <time>2024-02-28T15:24:25+01:00</time>
      </trkpt>
      <trkpt lat="50.03404" lon="2.33076">
        <ele>137.10059</ele>
        <time>2024-02-28T15:24:29+01:00</time>
      </trkpt>
      <trkpt lat="50.03404" lon="2.33074">
        <ele>137.10059</ele>
        <time>2024-02-28T15:24:30+01:00</time>
      </trkpt>
      <trkpt lat="50.03404" lon="2.33068">
        <ele>137.10059</ele>
        <time>2024-02-28T15:24:34+01:00</time>
      </trkpt>
      <trkpt lat="50.03404" lon="2.33066">
        <ele>137.10059</ele>
        <time>2024-02-28T15:24:35+01:00</time>
      </trkpt>
      <trkpt lat="50.03404" lon="2.3306">
        <ele>137</ele>
        <time>2024-02-28T15:24:39+01:00</time>
      </trkpt>
      <trkpt lat="50.03404" lon="2.33059">
        <ele>137</ele>
        <time>2024-02-28T15:24:40+01:00</time>
      </trkpt>
      <trkpt lat="50.03404" lon="2.33052">
        <ele>137</ele>
        <time>2024-02-28T15:24:44+01:00</time>
      </trkpt>
      <trkpt lat="50.03404" lon="2.33051">
        <ele>137</ele>
        <time>2024-02-28T15:24:45+01:00</time>
      </trkpt>
      <trkpt lat="50.03403" lon="2.33045">
        <ele>137</ele>
        <time>2024-02-28T15:24:49+01:00</time>
      </trkpt>
      <trkpt lat="50.03403" lon="2.33043">
        <ele>137</ele>
        <time>2024-02-28T15:24:50+01:00</time>
      </trkpt>
      <trkpt lat="50.03402" lon="2.33037">
        <ele>137</ele>
        <time>2024-02-28T15:24:54+01:00</time>
      </trkpt>
      <trkpt lat="50.03402" lon="2.33036">
        <ele>137</ele>
        <time>2024-02-28T15:24:55+01:00</time>
      </trkpt>
      <trkpt lat="50.03401" lon="2.3303">
        <ele>137</ele>
        <time>2024-02-28T15:24:59+01:00</time>
      </trkpt>
      <trkpt lat="50.03401" lon="2.33028">
        <ele>137</ele>
        <time>2024-02-28T15:25:00+01:00</time>
      </trkpt>
      <trkpt lat="50.034" lon="2.33022">
        <ele>137</ele>
        <time>2024-02-28T15:25:04+01:00</time>
      </trkpt>
      <trkpt lat="50.03401" lon="2.33021">
        <ele>136.90039</ele>
        <time>2024-02-28T15:25:05+01:00</time>
      </trkpt>
      <trkpt lat="50.03401" lon="2.33015">
        <ele>136.90039</ele>
        <time>2024-02-28T15:25:09+01:00</time>
      </trkpt>
      <trkpt lat="50.03401" lon="2.33013">
        <ele>136.90039</ele>
        <time>2024-02-28T15:25:10+01:00</time>
      </trkpt>
      <trkpt lat="50.03401" lon="2.33008">
        <ele>136.90039</ele>
        <time>2024-02-28T15:25:14+01:00</time>
      </trkpt>
      <trkpt lat="50.03401" lon="2.33006">
        <ele>136.90039</ele>
        <time>2024-02-28T15:25:15+01:00</time>
      </trkpt>
      <trkpt lat="50.034" lon="2.33001">
        <ele>136.90039</ele>
        <time>2024-02-28T15:25:19+01:00</time>
      </trkpt>
      <trkpt lat="50.034" lon="2.32999">
        <ele>136.90039</ele>
        <time>2024-02-28T15:25:20+01:00</time>
      </trkpt>
      <trkpt lat="50.03398" lon="2.32993">
        <ele>136.90039</ele>
        <time>2024-02-28T15:25:24+01:00</time>
      </trkpt>
      <trkpt lat="50.03397" lon="2.32992">
        <ele>136.90039</ele>
        <time>2024-02-28T15:25:25+01:00</time>
      </trkpt>
      <trkpt lat="50.03395" lon="2.32986">
        <ele>136.90039</ele>
        <time>2024-02-28T15:25:29+01:00</time>
      </trkpt>
      <trkpt lat="50.03395" lon="2.32985">
        <ele>136.90039</ele>
        <time>2024-02-28T15:25:30+01:00</time>
      </trkpt>
      <trkpt lat="50.03394" lon="2.32979">
        <ele>137</ele>
        <time>2024-02-28T15:25:34+01:00</time>
      </trkpt>
      <trkpt lat="50.03394" lon="2.32977">
        <ele>137</ele>
        <time>2024-02-28T15:25:35+01:00</time>
      </trkpt>
      <trkpt lat="50.03391" lon="2.32973">
        <ele>136.90039</ele>
        <time>2024-02-28T15:25:39+01:00</time>
      </trkpt>
      <trkpt lat="50.0339" lon="2.32972">
        <ele>136.90039</ele>
        <time>2024-02-28T15:25:40+01:00</time>
      </trkpt>
      <trkpt lat="50.03386" lon="2.32972">
        <ele>136.7998</ele>
        <time>2024-02-28T15:25:44+01:00</time>
      </trkpt>
      <trkpt lat="50.03385" lon="2.32972">
        <ele>136.7998</ele>
        <time>2024-02-28T15:25:45+01:00</time>
      </trkpt>
      <trkpt lat="50.03381" lon="2.32974">
        <ele>136.7002</ele>
        <time>2024-02-28T15:25:49+01:00</time>
      </trkpt>
      <trkpt lat="50.0338" lon="2.32974">
        <ele>136.7002</ele>
        <time>2024-02-28T15:25:50+01:00</time>
      </trkpt>
      <trkpt lat="50.03377" lon="2.32976">
        <ele>136.60059</ele>
        <time>2024-02-28T15:25:54+01:00</time>
      </trkpt>
      <trkpt lat="50.03376" lon="2.32977">
        <ele>136.60059</ele>
        <time>2024-02-28T15:25:55+01:00</time>
      </trkpt>
      <trkpt lat="50.03372" lon="2.32978">
        <ele>136.60059</ele>
        <time>2024-02-28T15:25:59+01:00</time>
      </trkpt>
      <trkpt lat="50.03371" lon="2.32978">
        <ele>136.5</ele>
        <time>2024-02-28T15:26:00+01:00</time>
      </trkpt>
      <trkpt lat="50.03368" lon="2.32979">
        <ele>136.5</ele>
        <time>2024-02-28T15:26:04+01:00</time>
      </trkpt>
      <trkpt lat="50.03367" lon="2.32979">
        <ele>136.5</ele>
        <time>2024-02-28T15:26:05+01:00</time>
      </trkpt>
      <trkpt lat="50.03363" lon="2.3298">
        <ele>136.40039</ele>
        <time>2024-02-28T15:26:09+01:00</time>
      </trkpt>
      <trkpt lat="50.03362" lon="2.3298">
        <ele>136.40039</ele>
        <time>2024-02-28T15:26:10+01:00</time>
      </trkpt>
      <trkpt lat="50.03358" lon="2.3298">
        <ele>136.2998</ele>
        <time>2024-02-28T15:26:14+01:00</time>
      </trkpt>
      <trkpt lat="50.03357" lon="2.3298">
        <ele>136.2998</ele>
        <time>2024-02-28T15:26:15+01:00</time>
      </trkpt>
      <trkpt lat="50.03353" lon="2.3298">
        <ele>136.2002</ele>
        <time>2024-02-28T15:26:19+01:00</time>
      </trkpt>
      <trkpt lat="50.03352" lon="2.32981">
        <ele>136.2002</ele>
        <time>2024-02-28T15:26:20+01:00</time>
      </trkpt>
      <trkpt lat="50.03348" lon="2.32984">
        <ele>136.2002</ele>
        <time>2024-02-28T15:26:24+01:00</time>
      </trkpt>
      <trkpt lat="50.03347" lon="2.32984">
        <ele>136.2002</ele>
        <time>2024-02-28T15:26:25+01:00</time>
      </trkpt>
      <trkpt lat="50.03343" lon="2.32987">
        <ele>136.10059</ele>
        <time>2024-02-28T15:26:29+01:00</time>
      </trkpt>
      <trkpt lat="50.03342" lon="2.32987">
        <ele>136.2002</ele>
        <time>2024-02-28T15:26:30+01:00</time>
      </trkpt>
      <trkpt lat="50.03338" lon="2.3299">
        <ele>136.2002</ele>
        <time>2024-02-28T15:26:34+01:00</time>
      </trkpt>
      <trkpt lat="50.03337" lon="2.3299">
        <ele>136.2002</ele>
        <time>2024-02-28T15:26:35+01:00</time>
      </trkpt>
      <trkpt lat="50.03333" lon="2.32992">
        <ele>136.2002</ele>
        <time>2024-02-28T15:26:39+01:00</time>
      </trkpt>
      <trkpt lat="50.03332" lon="2.32992">
        <ele>136.2002</ele>
        <time>2024-02-28T15:26:40+01:00</time>
      </trkpt>
      <trkpt lat="50.03329" lon="2.32993">
        <ele>136.2002</ele>
        <time>2024-02-28T15:26:44+01:00</time>
      </trkpt>
      <trkpt lat="50.03328" lon="2.32992">
        <ele>136.2002</ele>
        <time>2024-02-28T15:26:45+01:00</time>
      </trkpt>
      <trkpt lat="50.03324" lon="2.32993">
        <ele>136.2002</ele>
        <time>2024-02-28T15:26:49+01:00</time>
      </trkpt>
      <trkpt lat="50.03323" lon="2.32993">
        <ele>136.2002</ele>
        <time>2024-02-28T15:26:50+01:00</time>
      </trkpt>
      <trkpt lat="50.03319" lon="2.32994">
        <ele>136.2002</ele>
        <time>2024-02-28T15:26:54+01:00</time>
      </trkpt>
      <trkpt lat="50.03318" lon="2.32995">
        <ele>136.2002</ele>
        <time>2024-02-28T15:26:55+01:00</time>
      </trkpt>
      <trkpt lat="50.03315" lon="2.32996">
        <ele>136.2998</ele>
        <time>2024-02-28T15:26:59+01:00</time>
      </trkpt>
      <trkpt lat="50.03314" lon="2.32997">
        <ele>136.2998</ele>
        <time>2024-02-28T15:27:00+01:00</time>
      </trkpt>
      <trkpt lat="50.0331" lon="2.32999">
        <ele>136.2998</ele>
        <time>2024-02-28T15:27:04+01:00</time>
      </trkpt>
      <trkpt lat="50.03309" lon="2.32999">
        <ele>136.2998</ele>
        <time>2024-02-28T15:27:05+01:00</time>
      </trkpt>
      <trkpt lat="50.03305" lon="2.33001">
        <ele>136.40039</ele>
        <time>2024-02-28T15:27:09+01:00</time>
      </trkpt>
      <trkpt lat="50.03304" lon="2.33001">
        <ele>136.40039</ele>
        <time>2024-02-28T15:27:10+01:00</time>
      </trkpt>
      <trkpt lat="50.033" lon="2.33002">
        <ele>136.40039</ele>
        <time>2024-02-28T15:27:14+01:00</time>
      </trkpt>
      <trkpt lat="50.03299" lon="2.33003">
        <ele>136.40039</ele>
        <time>2024-02-28T15:27:15+01:00</time>
      </trkpt>
      <trkpt lat="50.03295" lon="2.33004">
        <ele>136.40039</ele>
        <time>2024-02-28T15:27:19+01:00</time>
      </trkpt>
      <trkpt lat="50.03294" lon="2.33005">
        <ele>136.60059</ele>
        <time>2024-02-28T15:27:20+01:00</time>
      </trkpt>
      <trkpt lat="50.0329" lon="2.33006">
        <ele>136.60059</ele>
        <time>2024-02-28T15:27:24+01:00</time>
      </trkpt>
      <trkpt lat="50.03289" lon="2.33006">
        <ele>136.60059</ele>
        <time>2024-02-28T15:27:25+01:00</time>
      </trkpt>
      <trkpt lat="50.03285" lon="2.33007">
        <ele>136.7002</ele>
        <time>2024-02-28T15:27:29+01:00</time>
      </trkpt>
      <trkpt lat="50.03284" lon="2.33008">
        <ele>136.7002</ele>
        <time>2024-02-28T15:27:30+01:00</time>
      </trkpt>
      <trkpt lat="50.0328" lon="2.33009">
        <ele>136.7002</ele>
        <time>2024-02-28T15:27:34+01:00</time>
      </trkpt>
      <trkpt lat="50.03279" lon="2.33009">
        <ele>136.7002</ele>
        <time>2024-02-28T15:27:35+01:00</time>
      </trkpt>
      <trkpt lat="50.03275" lon="2.33009">
        <ele>136.7998</ele>
        <time>2024-02-28T15:27:39+01:00</time>
      </trkpt>
      <trkpt lat="50.03274" lon="2.33009">
        <ele>136.7998</ele>
        <time>2024-02-28T15:27:40+01:00</time>
      </trkpt>
      <trkpt lat="50.0327" lon="2.33006">
        <ele>136.90039</ele>
        <time>2024-02-28T15:27:44+01:00</time>
      </trkpt>
      <trkpt lat="50.03269" lon="2.33005">
        <ele>136.90039</ele>
        <time>2024-02-28T15:27:45+01:00</time>
      </trkpt>
      <trkpt lat="50.03266" lon="2.33001">
        <ele>136.7998</ele>
        <time>2024-02-28T15:27:49+01:00</time>
      </trkpt>
      <trkpt lat="50.03265" lon="2.32999">
        <ele>136.7998</ele>
        <time>2024-02-28T15:27:50+01:00</time>
      </trkpt>
      <trkpt lat="50.03262" lon="2.32994">
        <ele>136.7002</ele>
        <time>2024-02-28T15:27:54+01:00</time>
      </trkpt>
      <trkpt lat="50.03262" lon="2.32993">
        <ele>136.7002</ele>
        <time>2024-02-28T15:27:55+01:00</time>
      </trkpt>
      <trkpt lat="50.03258" lon="2.32989">
        <ele>136.7998</ele>
        <time>2024-02-28T15:27:59+01:00</time>
      </trkpt>
      <trkpt lat="50.03257" lon="2.32989">
        <ele>136.7998</ele>
        <time>2024-02-28T15:28:00+01:00</time>
      </trkpt>
      <trkpt lat="50.03254" lon="2.32985">
        <ele>136.7998</ele>
        <time>2024-02-28T15:28:04+01:00</time>
      </trkpt>
      <trkpt lat="50.03253" lon="2.32984">
        <ele>136.7998</ele>
        <time>2024-02-28T15:28:05+01:00</time>
      </trkpt>
      <trkpt lat="50.0325" lon="2.3298">
        <ele>136.7998</ele>
        <time>2024-02-28T15:28:09+01:00</time>
      </trkpt>
      <trkpt lat="50.03249" lon="2.32979">
        <ele>136.7002</ele>
        <time>2024-02-28T15:28:10+01:00</time>
      </trkpt>
      <trkpt lat="50.03246" lon="2.32975">
        <ele>136.7002</ele>
        <time>2024-02-28T15:28:14+01:00</time>
      </trkpt>
      <trkpt lat="50.03245" lon="2.32974">
        <ele>136.7002</ele>
        <time>2024-02-28T15:28:15+01:00</time>
      </trkpt>
      <trkpt lat="50.03242" lon="2.3297">
        <ele>136.7002</ele>
        <time>2024-02-28T15:28:19+01:00</time>
      </trkpt>
      <trkpt lat="50.03241" lon="2.32968">
        <ele>136.7002</ele>
        <time>2024-02-28T15:28:20+01:00</time>
      </trkpt>
      <trkpt lat="50.03238" lon="2.32963">
        <ele>136.7998</ele>
        <time>2024-02-28T15:28:24+01:00</time>
      </trkpt>
      <trkpt lat="50.03237" lon="2.32962">
        <ele>136.7998</ele>
        <time>2024-02-28T15:28:25+01:00</time>
      </trkpt>
      <trkpt lat="50.03233" lon="2.32958">
        <ele>136.7002</ele>
        <time>2024-02-28T15:28:29+01:00</time>
      </trkpt>
      <trkpt lat="50.03233" lon="2.32957">
        <ele>136.7002</ele>
        <time>2024-02-28T15:28:30+01:00</time>
      </trkpt>
      <trkpt lat="50.0323" lon="2.32954">
        <ele>136.7002</ele>
        <time>2024-02-28T15:28:34+01:00</time>
      </trkpt>
      <trkpt lat="50.03229" lon="2.32953">
        <ele>136.60059</ele>
        <time>2024-02-28T15:28:35+01:00</time>
      </trkpt>
      <trkpt lat="50.03225" lon="2.3295">
        <ele>136.7002</ele>
        <time>2024-02-28T15:28:39+01:00</time>
      </trkpt>
      <trkpt lat="50.03224" lon="2.32949">
        <ele>136.7002</ele>
        <time>2024-02-28T15:28:40+01:00</time>
      </trkpt>
      <trkpt lat="50.03221" lon="2.32945">
        <ele>136.7002</ele>
        <time>2024-02-28T15:28:44+01:00</time>
      </trkpt>
      <trkpt lat="50.0322" lon="2.32944">
        <ele>136.60059</ele>
        <time>2024-02-28T15:28:45+01:00</time>
      </trkpt>
      <trkpt lat="50.03216" lon="2.3294">
        <ele>136.7002</ele>
        <time>2024-02-28T15:28:49+01:00</time>
      </trkpt>
      <trkpt lat="50.03215" lon="2.32939">
        <ele>136.7002</ele>
        <time>2024-02-28T15:28:50+01:00</time>
      </trkpt>
      <trkpt lat="50.03212" lon="2.32936">
        <ele>136.60059</ele>
        <time>2024-02-28T15:28:54+01:00</time>
      </trkpt>
      <trkpt lat="50.03211" lon="2.32935">
        <ele>136.7002</ele>
        <time>2024-02-28T15:28:55+01:00</time>
      </trkpt>
      <trkpt lat="50.03208" lon="2.32931">
        <ele>136.7002</ele>
        <time>2024-02-28T15:28:59+01:00</time>
      </trkpt>
      <trkpt lat="50.03207" lon="2.3293">
        <ele>136.7002</ele>
        <time>2024-02-28T15:29:00+01:00</time>
      </trkpt>
      <trkpt lat="50.03204" lon="2.32926">
        <ele>136.7002</ele>
        <time>2024-02-28T15:29:04+01:00</time>
      </trkpt>
      <trkpt lat="50.03204" lon="2.32925">
        <ele>136.7002</ele>
        <time>2024-02-28T15:29:05+01:00</time>
      </trkpt>
      <trkpt lat="50.03201" lon="2.32921">
        <ele>136.7002</ele>
        <time>2024-02-28T15:29:09+01:00</time>
      </trkpt>
      <trkpt lat="50.03201" lon="2.3292">
        <ele>136.7002</ele>
        <time>2024-02-28T15:29:10+01:00</time>
      </trkpt>
      <trkpt lat="50.03198" lon="2.32916">
        <ele>136.60059</ele>
        <time>2024-02-28T15:29:14+01:00</time>
      </trkpt>
      <trkpt lat="50.03197" lon="2.32915">
        <ele>136.60059</ele>
        <time>2024-02-28T15:29:15+01:00</time>
      </trkpt>
      <trkpt lat="50.03194" lon="2.32911">
        <ele>136.7002</ele>
        <time>2024-02-28T15:29:19+01:00</time>
      </trkpt>
      <trkpt lat="50.03193" lon="2.3291">
        <ele>136.7002</ele>
        <time>2024-02-28T15:29:20+01:00</time>
      </trkpt>
      <trkpt lat="50.0319" lon="2.32907">
        <ele>136.7002</ele>
        <time>2024-02-28T15:29:24+01:00</time>
      </trkpt>
      <trkpt lat="50.03189" lon="2.32906">
        <ele>136.7002</ele>
        <time>2024-02-28T15:29:25+01:00</time>
      </trkpt>
      <trkpt lat="50.03186" lon="2.32902">
        <ele>136.7002</ele>
        <time>2024-02-28T15:29:29+01:00</time>
      </trkpt>
      <trkpt lat="50.03185" lon="2.32901">
        <ele>136.7002</ele>
        <time>2024-02-28T15:29:30+01:00</time>
      </trkpt>
      <trkpt lat="50.03182" lon="2.32898">
        <ele>136.7002</ele>
        <time>2024-02-28T15:29:34+01:00</time>
      </trkpt>
      <trkpt lat="50.03181" lon="2.32897">
        <ele>136.7002</ele>
        <time>2024-02-28T15:29:35+01:00</time>
      </trkpt>
      <trkpt lat="50.03177" lon="2.32893">
        <ele>136.7998</ele>
        <time>2024-02-28T15:29:39+01:00</time>
      </trkpt>
      <trkpt lat="50.03176" lon="2.32892">
        <ele>136.7998</ele>
        <time>2024-02-28T15:29:40+01:00</time>
      </trkpt>
      <trkpt lat="50.03173" lon="2.32889">
        <ele>136.7998</ele>
        <time>2024-02-28T15:29:44+01:00</time>
      </trkpt>
      <trkpt lat="50.03172" lon="2.32887">
        <ele>136.7998</ele>
        <time>2024-02-28T15:29:45+01:00</time>
      </trkpt>
      <trkpt lat="50.03169" lon="2.32883">
        <ele>136.7998</ele>
        <time>2024-02-28T15:29:49+01:00</time>
      </trkpt>
      <trkpt lat="50.03168" lon="2.32883">
        <ele>136.7998</ele>
        <time>2024-02-28T15:29:50+01:00</time>
      </trkpt>
      <trkpt lat="50.03165" lon="2.3288">
        <ele>136.90039</ele>
        <time>2024-02-28T15:29:54+01:00</time>
      </trkpt>
      <trkpt lat="50.03164" lon="2.32879">
        <ele>136.90039</ele>
        <time>2024-02-28T15:29:55+01:00</time>
      </trkpt>
      <trkpt lat="50.0316" lon="2.32875">
        <ele>136.90039</ele>
        <time>2024-02-28T15:29:59+01:00</time>
      </trkpt>
      <trkpt lat="50.0316" lon="2.32874">
        <ele>136.90039</ele>
        <time>2024-02-28T15:30:00+01:00</time>
      </trkpt>
      <trkpt lat="50.03157" lon="2.32869">
        <ele>136.90039</ele>
        <time>2024-02-28T15:30:04+01:00</time>
      </trkpt>
      <trkpt lat="50.03156" lon="2.32868">
        <ele>136.90039</ele>
        <time>2024-02-28T15:30:05+01:00</time>
      </trkpt>
      <trkpt lat="50.03153" lon="2.32864">
        <ele>136.90039</ele>
        <time>2024-02-28T15:30:09+01:00</time>
      </trkpt>
      <trkpt lat="50.03153" lon="2.32862">
        <ele>136.90039</ele>
        <time>2024-02-28T15:30:10+01:00</time>
      </trkpt>
      <trkpt lat="50.0315" lon="2.32857">
        <ele>136.90039</ele>
        <time>2024-02-28T15:30:14+01:00</time>
      </trkpt>
      <trkpt lat="50.0315" lon="2.32856">
        <ele>136.90039</ele>
        <time>2024-02-28T15:30:15+01:00</time>
      </trkpt>
      <trkpt lat="50.03147" lon="2.32851">
        <ele>136.90039</ele>
        <time>2024-02-28T15:30:19+01:00</time>
      </trkpt>
      <trkpt lat="50.03147" lon="2.3285">
        <ele>136.90039</ele>
        <time>2024-02-28T15:30:20+01:00</time>
      </trkpt>
      <trkpt lat="50.03144" lon="2.32845">
        <ele>136.90039</ele>
        <time>2024-02-28T15:30:24+01:00</time>
      </trkpt>
      <trkpt lat="50.03144" lon="2.32844">
        <ele>136.90039</ele>
        <time>2024-02-28T15:30:25+01:00</time>
      </trkpt>
      <trkpt lat="50.03141" lon="2.3284">
        <ele>136.90039</ele>
        <time>2024-02-28T15:30:29+01:00</time>
      </trkpt>
      <trkpt lat="50.0314" lon="2.32839">
        <ele>136.90039</ele>
        <time>2024-02-28T15:30:30+01:00</time>
      </trkpt>
      <trkpt lat="50.03137" lon="2.32835">
        <ele>136.90039</ele>
        <time>2024-02-28T15:30:34+01:00</time>
      </trkpt>
      <trkpt lat="50.03136" lon="2.32834">
        <ele>136.90039</ele>
        <time>2024-02-28T15:30:35+01:00</time>
      </trkpt>
      <trkpt lat="50.03134" lon="2.32829">
        <ele>136.90039</ele>
        <time>2024-02-28T15:30:39+01:00</time>
      </trkpt>
      <trkpt lat="50.03133" lon="2.32828">
        <ele>136.90039</ele>
        <time>2024-02-28T15:30:40+01:00</time>
      </trkpt>
      <trkpt lat="50.0313" lon="2.32824">
        <ele>136.7998</ele>
        <time>2024-02-28T15:30:44+01:00</time>
      </trkpt>
      <trkpt lat="50.0313" lon="2.32823">
        <ele>136.7998</ele>
        <time>2024-02-28T15:30:45+01:00</time>
      </trkpt>
      <trkpt lat="50.03127" lon="2.32821">
        <ele>136.7998</ele>
        <time>2024-02-28T15:30:49+01:00</time>
      </trkpt>
      <trkpt lat="50.03126" lon="2.3282">
        <ele>136.7998</ele>
        <time>2024-02-28T15:30:50+01:00</time>
      </trkpt>
      <trkpt lat="50.03123" lon="2.32816">
        <ele>136.7998</ele>
        <time>2024-02-28T15:30:54+01:00</time>
      </trkpt>
      <trkpt lat="50.03123" lon="2.32815">
        <ele>136.7002</ele>
        <time>2024-02-28T15:30:55+01:00</time>
      </trkpt>
      <trkpt lat="50.0312" lon="2.32811">
        <ele>136.7002</ele>
        <time>2024-02-28T15:30:59+01:00</time>
      </trkpt>
      <trkpt lat="50.0312" lon="2.3281">
        <ele>136.7002</ele>
        <time>2024-02-28T15:31:00+01:00</time>
      </trkpt>
      <trkpt lat="50.03117" lon="2.32805">
        <ele>136.60059</ele>
        <time>2024-02-28T15:31:04+01:00</time>
      </trkpt>
      <trkpt lat="50.03116" lon="2.32804">
        <ele>136.60059</ele>
        <time>2024-02-28T15:31:05+01:00</time>
      </trkpt>
      <trkpt lat="50.03112" lon="2.32802">
        <ele>136.60059</ele>
        <time>2024-02-28T15:31:09+01:00</time>
      </trkpt>
      <trkpt lat="50.03112" lon="2.32801">
        <ele>136.60059</ele>
        <time>2024-02-28T15:31:10+01:00</time>
      </trkpt>
      <trkpt lat="50.03109" lon="2.32798">
        <ele>136.40039</ele>
        <time>2024-02-28T15:31:14+01:00</time>
      </trkpt>
      <trkpt lat="50.03108" lon="2.32797">
        <ele>136.40039</ele>
        <time>2024-02-28T15:31:15+01:00</time>
      </trkpt>
      <trkpt lat="50.03106" lon="2.32792">
        <ele>136.5</ele>
        <time>2024-02-28T15:31:19+01:00</time>
      </trkpt>
      <trkpt lat="50.03105" lon="2.32791">
        <ele>136.5</ele>
        <time>2024-02-28T15:31:20+01:00</time>
      </trkpt>
      <trkpt lat="50.03102" lon="2.32787">
        <ele>136.2998</ele>
        <time>2024-02-28T15:31:24+01:00</time>
      </trkpt>
      <trkpt lat="50.03101" lon="2.32787">
        <ele>136.2998</ele>
        <time>2024-02-28T15:31:25+01:00</time>
      </trkpt>
      <trkpt lat="50.03098" lon="2.32783">
        <ele>136.40039</ele>
        <time>2024-02-28T15:31:29+01:00</time>
      </trkpt>
      <trkpt lat="50.03097" lon="2.32783">
        <ele>136.40039</ele>
        <time>2024-02-28T15:31:30+01:00</time>
      </trkpt>
      <trkpt lat="50.03094" lon="2.32779">
        <ele>136.2998</ele>
        <time>2024-02-28T15:31:34+01:00</time>
      </trkpt>
      <trkpt lat="50.03093" lon="2.32778">
        <ele>136.2998</ele>
        <time>2024-02-28T15:31:35+01:00</time>
      </trkpt>
      <trkpt lat="50.03091" lon="2.32774">
        <ele>136.2998</ele>
        <time>2024-02-28T15:31:39+01:00</time>
      </trkpt>
      <trkpt lat="50.0309" lon="2.32772">
        <ele>136.2002</ele>
        <time>2024-02-28T15:31:40+01:00</time>
      </trkpt>
      <trkpt lat="50.03087" lon="2.32768">
        <ele>136.2002</ele>
        <time>2024-02-28T15:31:44+01:00</time>
      </trkpt>
      <trkpt lat="50.03087" lon="2.32767">
        <ele>136.2002</ele>
        <time>2024-02-28T15:31:45+01:00</time>
      </trkpt>
      <trkpt lat="50.03084" lon="2.32761">
        <ele>136.2002</ele>
        <time>2024-02-28T15:31:49+01:00</time>
      </trkpt>
      <trkpt lat="50.03084" lon="2.3276">
        <ele>136.2002</ele>
        <time>2024-02-28T15:31:50+01:00</time>
      </trkpt>
      <trkpt lat="50.03082" lon="2.32754">
        <ele>136.10059</ele>
        <time>2024-02-28T15:31:54+01:00</time>
      </trkpt>
      <trkpt lat="50.03082" lon="2.32752">
        <ele>136.10059</ele>
        <time>2024-02-28T15:31:55+01:00</time>
      </trkpt>
      <trkpt lat="50.0308" lon="2.32746">
        <ele>136</ele>
        <time>2024-02-28T15:31:59+01:00</time>
      </trkpt>
      <trkpt lat="50.0308" lon="2.32745">
        <ele>136</ele>
        <time>2024-02-28T15:32:00+01:00</time>
      </trkpt>
      <trkpt lat="50.03079" lon="2.32739">
        <ele>136.10059</ele>
        <time>2024-02-28T15:32:04+01:00</time>
      </trkpt>
      <trkpt lat="50.03078" lon="2.32738">
        <ele>136</ele>
        <time>2024-02-28T15:32:05+01:00</time>
      </trkpt>
      <trkpt lat="50.03075" lon="2.32734">
        <ele>136</ele>
        <time>2024-02-28T15:32:09+01:00</time>
      </trkpt>
      <trkpt lat="50.03075" lon="2.32733">
        <ele>136</ele>
        <time>2024-02-28T15:32:10+01:00</time>
      </trkpt>
      <trkpt lat="50.03072" lon="2.32728">
        <ele>136.10059</ele>
        <time>2024-02-28T15:32:14+01:00</time>
      </trkpt>
      <trkpt lat="50.03072" lon="2.32727">
        <ele>136.10059</ele>
        <time>2024-02-28T15:32:15+01:00</time>
      </trkpt>
      <trkpt lat="50.03069" lon="2.32722">
        <ele>136.10059</ele>
        <time>2024-02-28T15:32:19+01:00</time>
      </trkpt>
      <trkpt lat="50.03069" lon="2.32721">
        <ele>136.10059</ele>
        <time>2024-02-28T15:32:20+01:00</time>
      </trkpt>
      <trkpt lat="50.03066" lon="2.32716">
        <ele>136.10059</ele>
        <time>2024-02-28T15:32:24+01:00</time>
      </trkpt>
      <trkpt lat="50.03066" lon="2.32714">
        <ele>136.10059</ele>
        <time>2024-02-28T15:32:25+01:00</time>
      </trkpt>
      <trkpt lat="50.03063" lon="2.32709">
        <ele>136.10059</ele>
        <time>2024-02-28T15:32:29+01:00</time>
      </trkpt>
      <trkpt lat="50.03063" lon="2.32707">
        <ele>136.10059</ele>
        <time>2024-02-28T15:32:30+01:00</time>
      </trkpt>
      <trkpt lat="50.03061" lon="2.32702">
        <ele>136.2002</ele>
        <time>2024-02-28T15:32:34+01:00</time>
      </trkpt>
      <trkpt lat="50.0306" lon="2.32701">
        <ele>136.2002</ele>
        <time>2024-02-28T15:32:35+01:00</time>
      </trkpt>
      <trkpt lat="50.03058" lon="2.32696">
        <ele>136.2002</ele>
        <time>2024-02-28T15:32:39+01:00</time>
      </trkpt>
      <trkpt lat="50.03058" lon="2.32694">
        <ele>136.2002</ele>
        <time>2024-02-28T15:32:40+01:00</time>
      </trkpt>
      <trkpt lat="50.03055" lon="2.32691">
        <ele>136.2998</ele>
        <time>2024-02-28T15:32:44+01:00</time>
      </trkpt>
      <trkpt lat="50.03055" lon="2.3269">
        <ele>136.2998</ele>
        <time>2024-02-28T15:32:45+01:00</time>
      </trkpt>
      <trkpt lat="50.03052" lon="2.32687">
        <ele>136.2998</ele>
        <time>2024-02-28T15:32:49+01:00</time>
      </trkpt>
      <trkpt lat="50.03051" lon="2.32686">
        <ele>136.40039</ele>
        <time>2024-02-28T15:32:50+01:00</time>
      </trkpt>
      <trkpt lat="50.03047" lon="2.32683">
        <ele>136.40039</ele>
        <time>2024-02-28T15:32:54+01:00</time>
      </trkpt>
      <trkpt lat="50.03046" lon="2.32683">
        <ele>136.40039</ele>
        <time>2024-02-28T15:32:55+01:00</time>
      </trkpt>
      <trkpt lat="50.03043" lon="2.32681">
        <ele>136.40039</ele>
        <time>2024-02-28T15:32:59+01:00</time>
      </trkpt>
      <trkpt lat="50.03042" lon="2.32681">
        <ele>136.40039</ele>
        <time>2024-02-28T15:33:00+01:00</time>
      </trkpt>
      <trkpt lat="50.0304" lon="2.32677">
        <ele>136.5</ele>
        <time>2024-02-28T15:33:04+01:00</time>
      </trkpt>
      <trkpt lat="50.0304" lon="2.32675">
        <ele>136.5</ele>
        <time>2024-02-28T15:33:05+01:00</time>
      </trkpt>
      <trkpt lat="50.0304" lon="2.3267">
        <ele>136.5</ele>
        <time>2024-02-28T15:33:09+01:00</time>
      </trkpt>
      <trkpt lat="50.0304" lon="2.32668">
        <ele>136.60059</ele>
        <time>2024-02-28T15:33:10+01:00</time>
      </trkpt>
      <trkpt lat="50.0304" lon="2.32663">
        <ele>136.60059</ele>
        <time>2024-02-28T15:33:14+01:00</time>
      </trkpt>
      <trkpt lat="50.0304" lon="2.32661">
        <ele>136.60059</ele>
        <time>2024-02-28T15:33:15+01:00</time>
      </trkpt>
      <trkpt lat="50.03038" lon="2.32657">
        <ele>136.60059</ele>
        <time>2024-02-28T15:33:19+01:00</time>
      </trkpt>
      <trkpt lat="50.03037" lon="2.32656">
        <ele>136.60059</ele>
        <time>2024-02-28T15:33:20+01:00</time>
      </trkpt>
      <trkpt lat="50.03034" lon="2.32652">
        <ele>136.7998</ele>
        <time>2024-02-28T15:33:24+01:00</time>
      </trkpt>
      <trkpt lat="50.03034" lon="2.32652">
        <ele>136.7998</ele>
        <time>2024-02-28T15:33:25+01:00</time>
      </trkpt>
      <trkpt lat="50.03031" lon="2.32649">
        <ele>136.7998</ele>
        <time>2024-02-28T15:33:29+01:00</time>
      </trkpt>
      <trkpt lat="50.0303" lon="2.32648">
        <ele>136.7998</ele>
        <time>2024-02-28T15:33:30+01:00</time>
      </trkpt>
      <trkpt lat="50.03027" lon="2.32646">
        <ele>136.7998</ele>
        <time>2024-02-28T15:33:34+01:00</time>
      </trkpt>
      <trkpt lat="50.03027" lon="2.32645">
        <ele>136.7998</ele>
        <time>2024-02-28T15:33:35+01:00</time>
      </trkpt>
      <trkpt lat="50.03024" lon="2.32642">
        <ele>136.90039</ele>
        <time>2024-02-28T15:33:39+01:00</time>
      </trkpt>
      <trkpt lat="50.03024" lon="2.32641">
        <ele>136.90039</ele>
        <time>2024-02-28T15:33:40+01:00</time>
      </trkpt>
      <trkpt lat="50.03023" lon="2.32636">
        <ele>136.90039</ele>
        <time>2024-02-28T15:33:44+01:00</time>
      </trkpt>
      <trkpt lat="50.03023" lon="2.32634">
        <ele>137</ele>
        <time>2024-02-28T15:33:45+01:00</time>
      </trkpt>
      <trkpt lat="50.03024" lon="2.32629">
        <ele>137</ele>
        <time>2024-02-28T15:33:49+01:00</time>
      </trkpt>
      <trkpt lat="50.03025" lon="2.32627">
        <ele>137</ele>
        <time>2024-02-28T15:33:50+01:00</time>
      </trkpt>
      <trkpt lat="50.03028" lon="2.32623">
        <ele>137.10059</ele>
        <time>2024-02-28T15:33:54+01:00</time>
      </trkpt>
      <trkpt lat="50.03028" lon="2.32622">
        <ele>137.10059</ele>
        <time>2024-02-28T15:33:55+01:00</time>
      </trkpt>
      <trkpt lat="50.03031" lon="2.32617">
        <ele>137.2002</ele>
        <time>2024-02-28T15:33:59+01:00</time>
      </trkpt>
      <trkpt lat="50.03032" lon="2.32615">
        <ele>137.2002</ele>
        <time>2024-02-28T15:34:00+01:00</time>
      </trkpt>
      <trkpt lat="50.03033" lon="2.3261">
        <ele>137.2002</ele>
        <time>2024-02-28T15:34:04+01:00</time>
      </trkpt>
      <trkpt lat="50.03034" lon="2.32608">
        <ele>137.2002</ele>
        <time>2024-02-28T15:34:05+01:00</time>
      </trkpt>
      <trkpt lat="50.03036" lon="2.32603">
        <ele>137.2002</ele>
        <time>2024-02-28T15:34:09+01:00</time>
      </trkpt>
      <trkpt lat="50.03037" lon="2.32602">
        <ele>137.2002</ele>
        <time>2024-02-28T15:34:10+01:00</time>
      </trkpt>
      <trkpt lat="50.03039" lon="2.326">
        <ele>137.2998</ele>
        <time>2024-02-28T15:34:14+01:00</time>
      </trkpt>
      <trkpt lat="50.0304" lon="2.326">
        <ele>137.2998</ele>
        <time>2024-02-28T15:34:15+01:00</time>
      </trkpt>
      <trkpt lat="50.03042" lon="2.32599">
        <ele>137.2002</ele>
        <time>2024-02-28T15:34:19+01:00</time>
      </trkpt>
      <trkpt lat="50.03042" lon="2.326">
        <ele>137.2002</ele>
        <time>2024-02-28T15:34:20+01:00</time>
      </trkpt>
      <trkpt lat="50.03044" lon="2.32605">
        <ele>137.10059</ele>
        <time>2024-02-28T15:34:24+01:00</time>
      </trkpt>
      <trkpt lat="50.03044" lon="2.32605">
        <ele>137.10059</ele>
        <time>2024-02-28T15:34:25+01:00</time>
      </trkpt>
      <trkpt lat="50.03043" lon="2.32603">
        <ele>137.10059</ele>
        <time>2024-02-28T15:34:29+01:00</time>
      </trkpt>
      <trkpt lat="50.03043" lon="2.32603">
        <ele>137.10059</ele>
        <time>2024-02-28T15:34:30+01:00</time>
      </trkpt>
      <trkpt lat="50.03042" lon="2.32603">
        <ele>137.10059</ele>
        <time>2024-02-28T15:34:34+01:00</time>
      </trkpt>
      <trkpt lat="50.03034" lon="2.32607">
        <ele>137.2002</ele>
        <time>2024-02-28T15:34:35+01:00</time>
      </trkpt>
      <trkpt lat="50.03034" lon="2.32608">
        <ele>137.2002</ele>
        <time>2024-02-28T15:34:39+01:00</time>
      </trkpt>
      <trkpt lat="50.03035" lon="2.3261">
        <ele>137.2002</ele>
        <time>2024-02-28T15:34:40+01:00</time>
      </trkpt>
      <trkpt lat="50.03035" lon="2.3261">
        <ele>137.2002</ele>
        <time>2024-02-28T15:34:44+01:00</time>
      </trkpt>
      <trkpt lat="50.03035" lon="2.3261">
        <ele>137.10059</ele>
        <time>2024-02-28T15:34:45+01:00</time>
      </trkpt>
      <trkpt lat="50.03035" lon="2.3261">
        <ele>137.2002</ele>
        <time>2024-02-28T15:34:49+01:00</time>
      </trkpt>
    </trkseg>
  </trk>
</gpx>